<?xml version='1.0' encoding='UTF-8'?>
<gpx version="1.1" creator="https://www.komoot.de" xmlns="http://www.topografix.com/GPX/1/1" xmlns:xsi="http://www.w3.org/2001/XMLSchema-instance" xsi:schemaLocation="http://www.topografix.com/GPX/1/1 http://www.topografix.com/GPX/1/1/gpx.xsd">
  <metadata>
    <name>56_800BenkerjStaffelegg</name>
    <author>
      <link href="https://www.komoot.de">
        <text>komoot</text>
        <type>text/html</type>
      </link>
    </author>
  </metadata>
  <trk>
    <name>56_800BenkerjStaffelegg</name>
    <trkseg>
      <trkpt lat="47.541216" lon="7.870952">
        <ele>340.673350</ele>
        <time>2021-11-14T17:14:12.404Z</time>
      </trkpt>
      <trkpt lat="47.541410" lon="7.870791">
        <ele>340.673350</ele>
        <time>2021-11-14T17:14:15.839Z</time>
      </trkpt>
      <trkpt lat="47.541576" lon="7.870664">
        <ele>340.673350</ele>
        <time>2021-11-14T17:14:19.971Z</time>
      </trkpt>
      <trkpt lat="47.541796" lon="7.871042">
        <ele>340.673350</ele>
        <time>2021-11-14T17:14:27.156Z</time>
      </trkpt>
      <trkpt lat="47.541953" lon="7.871286">
        <ele>340.933450</ele>
        <time>2021-11-14T17:14:31.910Z</time>
      </trkpt>
      <trkpt lat="47.542039" lon="7.871556">
        <ele>341.638527</ele>
        <time>2021-11-14T17:14:36.402Z</time>
      </trkpt>
      <trkpt lat="47.542067" lon="7.871664">
        <ele>341.911754</ele>
        <time>2021-11-14T17:14:37.973Z</time>
      </trkpt>
      <trkpt lat="47.542091" lon="7.871721">
        <ele>342.070410</ele>
        <time>2021-11-14T17:14:38.571Z</time>
      </trkpt>
      <trkpt lat="47.542218" lon="7.871866">
        <ele>342.631377</ele>
        <time>2021-11-14T17:14:43.796Z</time>
      </trkpt>
      <trkpt lat="47.542394" lon="7.872341">
        <ele>343.911054</ele>
        <time>2021-11-14T17:14:53.861Z</time>
      </trkpt>
      <trkpt lat="47.542436" lon="7.872494">
        <ele>344.301124</ele>
        <time>2021-11-14T17:14:57.191Z</time>
      </trkpt>
      <trkpt lat="47.542537" lon="7.872430">
        <ele>344.685447</ele>
        <time>2021-11-14T17:14:59.227Z</time>
      </trkpt>
      <trkpt lat="47.542714" lon="7.872334">
        <ele>345.344889</ele>
        <time>2021-11-14T17:15:06.340Z</time>
      </trkpt>
      <trkpt lat="47.542814" lon="7.872280">
        <ele>345.717263</ele>
        <time>2021-11-14T17:15:09.217Z</time>
      </trkpt>
      <trkpt lat="47.542919" lon="7.872226">
        <ele>346.106118</ele>
        <time>2021-11-14T17:15:13.057Z</time>
      </trkpt>
      <trkpt lat="47.543013" lon="7.872182">
        <ele>346.451008</ele>
        <time>2021-11-14T17:15:16.687Z</time>
      </trkpt>
      <trkpt lat="47.543233" lon="7.872082">
        <ele>347.481499</ele>
        <time>2021-11-14T17:15:23.785Z</time>
      </trkpt>
      <trkpt lat="47.543251" lon="7.872152">
        <ele>347.795839</ele>
        <time>2021-11-14T17:15:27.200Z</time>
      </trkpt>
      <trkpt lat="47.543332" lon="7.872237">
        <ele>348.412921</ele>
        <time>2021-11-14T17:15:30.610Z</time>
      </trkpt>
      <trkpt lat="47.544390" lon="7.872423">
        <ele>355.036242</ele>
        <time>2021-11-14T17:16:12.242Z</time>
      </trkpt>
      <trkpt lat="47.544883" lon="7.872555">
        <ele>358.150936</ele>
        <time>2021-11-14T17:16:34.584Z</time>
      </trkpt>
      <trkpt lat="47.545131" lon="7.872664">
        <ele>359.884644</ele>
        <time>2021-11-14T17:16:45.588Z</time>
      </trkpt>
      <trkpt lat="47.545375" lon="7.872836">
        <ele>361.695626</ele>
        <time>2021-11-14T17:16:56.529Z</time>
      </trkpt>
      <trkpt lat="47.545478" lon="7.872968">
        <ele>362.608381</ele>
        <time>2021-11-14T17:17:03.337Z</time>
      </trkpt>
      <trkpt lat="47.545515" lon="7.873015">
        <ele>362.935031</ele>
        <time>2021-11-14T17:17:05.293Z</time>
      </trkpt>
      <trkpt lat="47.545746" lon="7.873302">
        <ele>364.955564</ele>
        <time>2021-11-14T17:17:18.493Z</time>
      </trkpt>
      <trkpt lat="47.545934" lon="7.873549">
        <ele>366.639645</ele>
        <time>2021-11-14T17:17:28.593Z</time>
      </trkpt>
      <trkpt lat="47.546077" lon="7.873763">
        <ele>368.001901</ele>
        <time>2021-11-14T17:17:37.789Z</time>
      </trkpt>
      <trkpt lat="47.546135" lon="7.873859">
        <ele>368.584746</ele>
        <time>2021-11-14T17:17:41.028Z</time>
      </trkpt>
      <trkpt lat="47.546309" lon="7.874154">
        <ele>370.298508</ele>
        <time>2021-11-14T17:17:52.143Z</time>
      </trkpt>
      <trkpt lat="47.547126" lon="7.875801">
        <ele>376.055270</ele>
        <time>2021-11-14T17:18:37.904Z</time>
      </trkpt>
      <trkpt lat="47.547574" lon="7.876801">
        <ele>377.522302</ele>
        <time>2021-11-14T17:18:56.900Z</time>
      </trkpt>
      <trkpt lat="47.547992" lon="7.877974">
        <ele>377.122715</ele>
        <time>2021-11-14T17:19:09.700Z</time>
      </trkpt>
      <trkpt lat="47.548234" lon="7.878638">
        <ele>376.813503</ele>
        <time>2021-11-14T17:19:14.964Z</time>
      </trkpt>
      <trkpt lat="47.548422" lon="7.878959">
        <ele>375.525511</ele>
        <time>2021-11-14T17:19:17.734Z</time>
      </trkpt>
      <trkpt lat="47.548718" lon="7.879258">
        <ele>373.916957</ele>
        <time>2021-11-14T17:19:21.150Z</time>
      </trkpt>
      <trkpt lat="47.549140" lon="7.879391">
        <ele>371.979783</ele>
        <time>2021-11-14T17:19:25.219Z</time>
      </trkpt>
      <trkpt lat="47.549318" lon="7.879398">
        <ele>371.180282</ele>
        <time>2021-11-14T17:19:26.832Z</time>
      </trkpt>
      <trkpt lat="47.549426" lon="7.879394">
        <ele>370.695211</ele>
        <time>2021-11-14T17:19:27.875Z</time>
      </trkpt>
      <trkpt lat="47.549694" lon="7.879391">
        <ele>369.491859</ele>
        <time>2021-11-14T17:19:30.401Z</time>
      </trkpt>
      <trkpt lat="47.549920" lon="7.879395">
        <ele>368.577848</ele>
        <time>2021-11-14T17:19:32.595Z</time>
      </trkpt>
      <trkpt lat="47.549993" lon="7.879403">
        <ele>368.343439</ele>
        <time>2021-11-14T17:19:33.270Z</time>
      </trkpt>
      <trkpt lat="47.550458" lon="7.879428">
        <ele>366.853378</ele>
        <time>2021-11-14T17:19:37.769Z</time>
      </trkpt>
      <trkpt lat="47.550948" lon="7.879456">
        <ele>365.283071</ele>
        <time>2021-11-14T17:19:42.678Z</time>
      </trkpt>
      <trkpt lat="47.551453" lon="7.879539">
        <ele>363.655976</ele>
        <time>2021-11-14T17:19:48.300Z</time>
      </trkpt>
      <trkpt lat="47.551499" lon="7.879547">
        <ele>363.507658</ele>
        <time>2021-11-14T17:19:48.819Z</time>
      </trkpt>
      <trkpt lat="47.552616" lon="7.879896">
        <ele>360.815395</ele>
        <time>2021-11-14T17:20:01.838Z</time>
      </trkpt>
      <trkpt lat="47.553292" lon="7.880216">
        <ele>359.223463</ele>
        <time>2021-11-14T17:20:09.508Z</time>
      </trkpt>
      <trkpt lat="47.554555" lon="7.880902">
        <ele>353.072470</ele>
        <time>2021-11-14T17:20:22.438Z</time>
      </trkpt>
      <trkpt lat="47.554711" lon="7.880958">
        <ele>352.313449</ele>
        <time>2021-11-14T17:20:23.932Z</time>
      </trkpt>
      <trkpt lat="47.554840" lon="7.880981">
        <ele>351.699042</ele>
        <time>2021-11-14T17:20:25.103Z</time>
      </trkpt>
      <trkpt lat="47.554892" lon="7.880986">
        <ele>351.452631</ele>
        <time>2021-11-14T17:20:25.584Z</time>
      </trkpt>
      <trkpt lat="47.555165" lon="7.880954">
        <ele>350.021563</ele>
        <time>2021-11-14T17:20:28.095Z</time>
      </trkpt>
      <trkpt lat="47.555219" lon="7.881390">
        <ele>348.087937</ele>
        <time>2021-11-14T17:20:30.806Z</time>
      </trkpt>
      <trkpt lat="47.555161" lon="7.882307">
        <ele>344.070387</ele>
        <time>2021-11-14T17:20:36.425Z</time>
      </trkpt>
      <trkpt lat="47.555068" lon="7.882986">
        <ele>341.048154</ele>
        <time>2021-11-14T17:20:40.629Z</time>
      </trkpt>
      <trkpt lat="47.554972" lon="7.883695">
        <ele>338.080666</ele>
        <time>2021-11-14T17:20:45.056Z</time>
      </trkpt>
      <trkpt lat="47.554519" lon="7.886778">
        <ele>327.596748</ele>
        <time>2021-11-14T17:21:05.102Z</time>
      </trkpt>
      <trkpt lat="47.554151" lon="7.889353">
        <ele>321.408391</ele>
        <time>2021-11-14T17:21:23.078Z</time>
      </trkpt>
      <trkpt lat="47.553816" lon="7.891691">
        <ele>317.328400</ele>
        <time>2021-11-14T17:21:40.141Z</time>
      </trkpt>
      <trkpt lat="47.553711" lon="7.892472">
        <ele>316.382096</ele>
        <time>2021-11-14T17:21:45.912Z</time>
      </trkpt>
      <trkpt lat="47.553422" lon="7.894151">
        <ele>314.852698</ele>
        <time>2021-11-14T17:21:59.340Z</time>
      </trkpt>
      <trkpt lat="47.553308" lon="7.894573">
        <ele>315.179881</ele>
        <time>2021-11-14T17:22:03.946Z</time>
      </trkpt>
      <trkpt lat="47.553260" lon="7.894549">
        <ele>315.233910</ele>
        <time>2021-11-14T17:22:04.868Z</time>
      </trkpt>
      <trkpt lat="47.553130" lon="7.894640">
        <ele>315.387252</ele>
        <time>2021-11-14T17:22:07.932Z</time>
      </trkpt>
      <trkpt lat="47.553112" lon="7.894710">
        <ele>315.441171</ele>
        <time>2021-11-14T17:22:08.585Z</time>
      </trkpt>
      <trkpt lat="47.553001" lon="7.894685">
        <ele>315.560914</ele>
        <time>2021-11-14T17:22:10.121Z</time>
      </trkpt>
      <trkpt lat="47.552858" lon="7.894705">
        <ele>315.714104</ele>
        <time>2021-11-14T17:22:12.899Z</time>
      </trkpt>
      <trkpt lat="47.552690" lon="7.894772">
        <ele>315.899656</ele>
        <time>2021-11-14T17:22:16.139Z</time>
      </trkpt>
      <trkpt lat="47.552374" lon="7.895067">
        <ele>316.297993</ele>
        <time>2021-11-14T17:22:24.619Z</time>
      </trkpt>
      <trkpt lat="47.552259" lon="7.895265">
        <ele>316.486024</ele>
        <time>2021-11-14T17:22:29.185Z</time>
      </trkpt>
      <trkpt lat="47.552232" lon="7.895312">
        <ele>316.530451</ele>
        <time>2021-11-14T17:22:30.972Z</time>
      </trkpt>
      <trkpt lat="47.552022" lon="7.895843">
        <ele>317.512497</ele>
        <time>2021-11-14T17:22:43.432Z</time>
      </trkpt>
      <trkpt lat="47.551759" lon="7.896186">
        <ele>318.386900</ele>
        <time>2021-11-14T17:22:53.971Z</time>
      </trkpt>
      <trkpt lat="47.551576" lon="7.896317">
        <ele>318.894113</ele>
        <time>2021-11-14T17:22:58.712Z</time>
      </trkpt>
      <trkpt lat="47.551344" lon="7.896377">
        <ele>319.481857</ele>
        <time>2021-11-14T17:23:05.847Z</time>
      </trkpt>
      <trkpt lat="47.550763" lon="7.896348">
        <ele>320.932648</ele>
        <time>2021-11-14T17:23:19.056Z</time>
      </trkpt>
      <trkpt lat="47.550639" lon="7.896345">
        <ele>320.943323</ele>
        <time>2021-11-14T17:23:21.809Z</time>
      </trkpt>
      <trkpt lat="47.550648" lon="7.896481">
        <ele>320.795970</ele>
        <time>2021-11-14T17:23:22.928Z</time>
      </trkpt>
      <trkpt lat="47.550819" lon="7.898109">
        <ele>319.019358</ele>
        <time>2021-11-14T17:23:36.594Z</time>
      </trkpt>
      <trkpt lat="47.550801" lon="7.900244">
        <ele>314.335487</ele>
        <time>2021-11-14T17:23:50.449Z</time>
      </trkpt>
      <trkpt lat="47.550769" lon="7.901362">
        <ele>311.173199</ele>
        <time>2021-11-14T17:23:57.721Z</time>
      </trkpt>
      <trkpt lat="47.550757" lon="7.901591">
        <ele>310.540688</ele>
        <time>2021-11-14T17:23:59.857Z</time>
      </trkpt>
      <trkpt lat="47.550688" lon="7.902451">
        <ele>308.402421</ele>
        <time>2021-11-14T17:24:08.291Z</time>
      </trkpt>
      <trkpt lat="47.550498" lon="7.903445">
        <ele>305.851735</ele>
        <time>2021-11-14T17:24:18.541Z</time>
      </trkpt>
      <trkpt lat="47.550302" lon="7.904164">
        <ele>303.938615</ele>
        <time>2021-11-14T17:24:25.801Z</time>
      </trkpt>
      <trkpt lat="47.550025" lon="7.904774">
        <ele>302.141798</ele>
        <time>2021-11-14T17:24:32.726Z</time>
      </trkpt>
      <trkpt lat="47.549868" lon="7.905010">
        <ele>301.331950</ele>
        <time>2021-11-14T17:24:35.858Z</time>
      </trkpt>
      <trkpt lat="47.549867" lon="7.905155">
        <ele>300.977556</ele>
        <time>2021-11-14T17:24:37.255Z</time>
      </trkpt>
      <trkpt lat="47.550067" lon="7.905245">
        <ele>300.220695</ele>
        <time>2021-11-14T17:24:40.180Z</time>
      </trkpt>
      <trkpt lat="47.550283" lon="7.905413">
        <ele>299.337345</ele>
        <time>2021-11-14T17:24:43.630Z</time>
      </trkpt>
      <trkpt lat="47.550497" lon="7.905558">
        <ele>298.485270</ele>
        <time>2021-11-14T17:24:46.988Z</time>
      </trkpt>
      <trkpt lat="47.549539" lon="7.908625">
        <ele>293.078002</ele>
        <time>2021-11-14T17:25:11.437Z</time>
      </trkpt>
      <trkpt lat="47.549520" lon="7.908678">
        <ele>293.023272</ele>
        <time>2021-11-14T17:25:11.939Z</time>
      </trkpt>
      <trkpt lat="47.549433" lon="7.908965">
        <ele>292.736348</ele>
        <time>2021-11-14T17:25:14.465Z</time>
      </trkpt>
      <trkpt lat="47.549406" lon="7.909056">
        <ele>292.645694</ele>
        <time>2021-11-14T17:25:15.308Z</time>
      </trkpt>
      <trkpt lat="47.549373" lon="7.909166">
        <ele>292.535913</ele>
        <time>2021-11-14T17:25:16.318Z</time>
      </trkpt>
      <trkpt lat="47.549347" lon="7.909252">
        <ele>292.449974</ele>
        <time>2021-11-14T17:25:17.061Z</time>
      </trkpt>
      <trkpt lat="47.549325" lon="7.909323">
        <ele>292.378726</ele>
        <time>2021-11-14T17:25:17.680Z</time>
      </trkpt>
      <trkpt lat="47.549285" lon="7.909455">
        <ele>292.246768</ele>
        <time>2021-11-14T17:25:18.859Z</time>
      </trkpt>
      <trkpt lat="47.549236" lon="7.909620">
        <ele>292.082370</ele>
        <time>2021-11-14T17:25:20.383Z</time>
      </trkpt>
      <trkpt lat="47.549195" lon="7.909756">
        <ele>291.946531</ele>
        <time>2021-11-14T17:25:21.570Z</time>
      </trkpt>
      <trkpt lat="47.549102" lon="7.910058">
        <ele>291.643800</ele>
        <time>2021-11-14T17:25:24.291Z</time>
      </trkpt>
      <trkpt lat="47.549012" lon="7.910340">
        <ele>291.359319</ele>
        <time>2021-11-14T17:25:26.783Z</time>
      </trkpt>
      <trkpt lat="47.548412" lon="7.912168">
        <ele>289.822322</ele>
        <time>2021-11-14T17:25:43.132Z</time>
      </trkpt>
      <trkpt lat="47.548027" lon="7.913334">
        <ele>289.019819</ele>
        <time>2021-11-14T17:25:53.893Z</time>
      </trkpt>
      <trkpt lat="47.547994" lon="7.913433">
        <ele>289.001864</ele>
        <time>2021-11-14T17:25:54.814Z</time>
      </trkpt>
      <trkpt lat="47.547423" lon="7.915080">
        <ele>288.700776</ele>
        <time>2021-11-14T17:26:12.302Z</time>
      </trkpt>
      <trkpt lat="47.547113" lon="7.915971">
        <ele>288.811038</ele>
        <time>2021-11-14T17:26:22.940Z</time>
      </trkpt>
      <trkpt lat="47.547091" lon="7.916039">
        <ele>288.838210</ele>
        <time>2021-11-14T17:26:23.990Z</time>
      </trkpt>
      <trkpt lat="47.547032" lon="7.916218">
        <ele>288.909991</ele>
        <time>2021-11-14T17:26:26.261Z</time>
      </trkpt>
      <trkpt lat="47.546821" lon="7.916867">
        <ele>289.169568</ele>
        <time>2021-11-14T17:26:34.676Z</time>
      </trkpt>
      <trkpt lat="47.546262" lon="7.919081">
        <ele>289.835300</ele>
        <time>2021-11-14T17:27:02.337Z</time>
      </trkpt>
      <trkpt lat="47.546128" lon="7.919617">
        <ele>289.953855</ele>
        <time>2021-11-14T17:27:07.765Z</time>
      </trkpt>
      <trkpt lat="47.545973" lon="7.920313">
        <ele>290.105871</ele>
        <time>2021-11-14T17:27:15.184Z</time>
      </trkpt>
      <trkpt lat="47.545913" lon="7.920765">
        <ele>290.411552</ele>
        <time>2021-11-14T17:27:19.942Z</time>
      </trkpt>
      <trkpt lat="47.545881" lon="7.921096">
        <ele>290.702497</ele>
        <time>2021-11-14T17:27:23.909Z</time>
      </trkpt>
      <trkpt lat="47.545810" lon="7.921755">
        <ele>291.283157</ele>
        <time>2021-11-14T17:27:32.519Z</time>
      </trkpt>
      <trkpt lat="47.545778" lon="7.921947">
        <ele>291.455235</ele>
        <time>2021-11-14T17:27:35.472Z</time>
      </trkpt>
      <trkpt lat="47.545714" lon="7.922249">
        <ele>291.730655</ele>
        <time>2021-11-14T17:27:39.326Z</time>
      </trkpt>
      <trkpt lat="47.545699" lon="7.922325">
        <ele>291.799552</ele>
        <time>2021-11-14T17:27:40.523Z</time>
      </trkpt>
      <trkpt lat="47.545690" lon="7.922369">
        <ele>291.839556</ele>
        <time>2021-11-14T17:27:41.595Z</time>
      </trkpt>
      <trkpt lat="47.545641" lon="7.922610">
        <ele>292.058560</ele>
        <time>2021-11-14T17:27:44.950Z</time>
      </trkpt>
      <trkpt lat="47.545587" lon="7.922895">
        <ele>292.316126</ele>
        <time>2021-11-14T17:27:49.782Z</time>
      </trkpt>
      <trkpt lat="47.545553" lon="7.923142">
        <ele>292.686422</ele>
        <time>2021-11-14T17:27:53.393Z</time>
      </trkpt>
      <trkpt lat="47.545536" lon="7.923407">
        <ele>293.348226</ele>
        <time>2021-11-14T17:27:58.269Z</time>
      </trkpt>
      <trkpt lat="47.545521" lon="7.923709">
        <ele>294.101080</ele>
        <time>2021-11-14T17:28:03.436Z</time>
      </trkpt>
      <trkpt lat="47.545481" lon="7.924396">
        <ele>295.815423</ele>
        <time>2021-11-14T17:28:18.039Z</time>
      </trkpt>
      <trkpt lat="47.545466" lon="7.924880">
        <ele>297.019998</ele>
        <time>2021-11-14T17:28:29.345Z</time>
      </trkpt>
      <trkpt lat="47.545446" lon="7.925350">
        <ele>298.190820</ele>
        <time>2021-11-14T17:28:39.720Z</time>
      </trkpt>
      <trkpt lat="47.545417" lon="7.925848">
        <ele>299.281312</ele>
        <time>2021-11-14T17:28:50.199Z</time>
      </trkpt>
      <trkpt lat="47.545409" lon="7.926773">
        <ele>300.593890</ele>
        <time>2021-11-14T17:29:07.400Z</time>
      </trkpt>
      <trkpt lat="47.545407" lon="7.927001">
        <ele>300.917423</ele>
        <time>2021-11-14T17:29:11.209Z</time>
      </trkpt>
      <trkpt lat="47.545406" lon="7.927306">
        <ele>301.350188</ele>
        <time>2021-11-14T17:29:15.814Z</time>
      </trkpt>
      <trkpt lat="47.545421" lon="7.927686">
        <ele>301.890286</ele>
        <time>2021-11-14T17:29:21.349Z</time>
      </trkpt>
      <trkpt lat="47.545475" lon="7.928419">
        <ele>302.804537</ele>
        <time>2021-11-14T17:29:30.667Z</time>
      </trkpt>
      <trkpt lat="47.545563" lon="7.929641">
        <ele>301.549980</ele>
        <time>2021-11-14T17:29:40.546Z</time>
      </trkpt>
      <trkpt lat="47.545661" lon="7.930955">
        <ele>300.200423</ele>
        <time>2021-11-14T17:29:49.942Z</time>
      </trkpt>
      <trkpt lat="47.545696" lon="7.931497">
        <ele>299.769587</ele>
        <time>2021-11-14T17:29:53.911Z</time>
      </trkpt>
      <trkpt lat="47.545721" lon="7.931992">
        <ele>299.390817</ele>
        <time>2021-11-14T17:29:57.703Z</time>
      </trkpt>
      <trkpt lat="47.545724" lon="7.932758">
        <ele>298.806304</ele>
        <time>2021-11-14T17:30:03.913Z</time>
      </trkpt>
      <trkpt lat="47.545702" lon="7.933290">
        <ele>298.399595</ele>
        <time>2021-11-14T17:30:08.556Z</time>
      </trkpt>
      <trkpt lat="47.545674" lon="7.933625">
        <ele>298.142018</ele>
        <time>2021-11-14T17:30:11.756Z</time>
      </trkpt>
      <trkpt lat="47.545457" lon="7.935110">
        <ele>299.104217</ele>
        <time>2021-11-14T17:30:29.891Z</time>
      </trkpt>
      <trkpt lat="47.545074" lon="7.936484">
        <ele>300.262067</ele>
        <time>2021-11-14T17:30:51.418Z</time>
      </trkpt>
      <trkpt lat="47.544903" lon="7.936917">
        <ele>300.858304</ele>
        <time>2021-11-14T17:30:58.735Z</time>
      </trkpt>
      <trkpt lat="47.544705" lon="7.937395">
        <ele>301.524861</ele>
        <time>2021-11-14T17:31:06.919Z</time>
      </trkpt>
      <trkpt lat="47.544472" lon="7.937932">
        <ele>302.283586</ele>
        <time>2021-11-14T17:31:16.326Z</time>
      </trkpt>
      <trkpt lat="47.543826" lon="7.939433">
        <ele>304.331540</ele>
        <time>2021-11-14T17:31:43.208Z</time>
      </trkpt>
      <trkpt lat="47.543435" lon="7.940670">
        <ele>305.871611</ele>
        <time>2021-11-14T17:32:03.168Z</time>
      </trkpt>
      <trkpt lat="47.543161" lon="7.942213">
        <ele>306.503136</ele>
        <time>2021-11-14T17:32:24.017Z</time>
      </trkpt>
      <trkpt lat="47.543007" lon="7.943867">
        <ele>306.471802</ele>
        <time>2021-11-14T17:32:39.562Z</time>
      </trkpt>
      <trkpt lat="47.542913" lon="7.945267">
        <ele>305.087775</ele>
        <time>2021-11-14T17:32:50.468Z</time>
      </trkpt>
      <trkpt lat="47.542872" lon="7.945781">
        <ele>304.578616</ele>
        <time>2021-11-14T17:32:54.284Z</time>
      </trkpt>
      <trkpt lat="47.542875" lon="7.946089">
        <ele>304.275593</ele>
        <time>2021-11-14T17:32:56.519Z</time>
      </trkpt>
      <trkpt lat="47.542902" lon="7.946514">
        <ele>303.835572</ele>
        <time>2021-11-14T17:32:59.613Z</time>
      </trkpt>
      <trkpt lat="47.542943" lon="7.946806">
        <ele>303.527480</ele>
        <time>2021-11-14T17:33:01.824Z</time>
      </trkpt>
      <trkpt lat="47.542974" lon="7.946965">
        <ele>303.356519</ele>
        <time>2021-11-14T17:33:03.131Z</time>
      </trkpt>
      <trkpt lat="47.542979" lon="7.946989">
        <ele>303.330574</ele>
        <time>2021-11-14T17:33:03.288Z</time>
      </trkpt>
      <trkpt lat="47.542989" lon="7.947104">
        <ele>303.210797</ele>
        <time>2021-11-14T17:33:04.159Z</time>
      </trkpt>
      <trkpt lat="47.542984" lon="7.947304">
        <ele>303.004056</ele>
        <time>2021-11-14T17:33:05.734Z</time>
      </trkpt>
      <trkpt lat="47.542979" lon="7.947370">
        <ele>302.935450</ele>
        <time>2021-11-14T17:33:06.235Z</time>
      </trkpt>
      <trkpt lat="47.542935" lon="7.947564">
        <ele>302.724039</ele>
        <time>2021-11-14T17:33:07.803Z</time>
      </trkpt>
      <trkpt lat="47.542892" lon="7.947789">
        <ele>302.482479</ele>
        <time>2021-11-14T17:33:09.721Z</time>
      </trkpt>
      <trkpt lat="47.542875" lon="7.948001">
        <ele>302.261944</ele>
        <time>2021-11-14T17:33:11.537Z</time>
      </trkpt>
      <trkpt lat="47.542838" lon="7.948225">
        <ele>302.023725</ele>
        <time>2021-11-14T17:33:13.321Z</time>
      </trkpt>
      <trkpt lat="47.542826" lon="7.948298">
        <ele>301.946112</ele>
        <time>2021-11-14T17:33:13.943Z</time>
      </trkpt>
      <trkpt lat="47.542719" lon="7.949175">
        <ele>301.364106</ele>
        <time>2021-11-14T17:33:21.168Z</time>
      </trkpt>
      <trkpt lat="47.542609" lon="7.949914">
        <ele>301.135200</ele>
        <time>2021-11-14T17:33:27.942Z</time>
      </trkpt>
      <trkpt lat="47.542560" lon="7.950202">
        <ele>301.045360</ele>
        <time>2021-11-14T17:33:30.810Z</time>
      </trkpt>
      <trkpt lat="47.542554" lon="7.950231">
        <ele>301.036186</ele>
        <time>2021-11-14T17:33:31.086Z</time>
      </trkpt>
      <trkpt lat="47.542546" lon="7.950274">
        <ele>301.022694</ele>
        <time>2021-11-14T17:33:31.490Z</time>
      </trkpt>
      <trkpt lat="47.542444" lon="7.950687">
        <ele>300.889669</ele>
        <time>2021-11-14T17:33:35.953Z</time>
      </trkpt>
      <trkpt lat="47.542357" lon="7.951037">
        <ele>300.776849</ele>
        <time>2021-11-14T17:33:39.597Z</time>
      </trkpt>
      <trkpt lat="47.542192" lon="7.951713">
        <ele>300.620783</ele>
        <time>2021-11-14T17:33:46.545Z</time>
      </trkpt>
      <trkpt lat="47.542169" lon="7.951815">
        <ele>300.602622</ele>
        <time>2021-11-14T17:33:47.472Z</time>
      </trkpt>
      <trkpt lat="47.541991" lon="7.952667">
        <ele>300.452009</ele>
        <time>2021-11-14T17:33:55.753Z</time>
      </trkpt>
      <trkpt lat="47.541791" lon="7.953601">
        <ele>300.286535</ele>
        <time>2021-11-14T17:34:04.805Z</time>
      </trkpt>
      <trkpt lat="47.541773" lon="7.953695">
        <ele>300.270034</ele>
        <time>2021-11-14T17:34:05.741Z</time>
      </trkpt>
      <trkpt lat="47.541735" lon="7.953892">
        <ele>300.292586</ele>
        <time>2021-11-14T17:34:07.624Z</time>
      </trkpt>
      <trkpt lat="47.541660" lon="7.954250">
        <ele>300.508519</ele>
        <time>2021-11-14T17:34:11.382Z</time>
      </trkpt>
      <trkpt lat="47.541530" lon="7.954936">
        <ele>300.918975</ele>
        <time>2021-11-14T17:34:18.603Z</time>
      </trkpt>
      <trkpt lat="47.541482" lon="7.955294">
        <ele>301.129235</ele>
        <time>2021-11-14T17:34:22.652Z</time>
      </trkpt>
      <trkpt lat="47.541465" lon="7.955512">
        <ele>301.255652</ele>
        <time>2021-11-14T17:34:24.987Z</time>
      </trkpt>
      <trkpt lat="47.541442" lon="7.955866">
        <ele>301.460522</ele>
        <time>2021-11-14T17:34:30.280Z</time>
      </trkpt>
      <trkpt lat="47.541410" lon="7.956569">
        <ele>302.096494</ele>
        <time>2021-11-14T17:34:41.580Z</time>
      </trkpt>
      <trkpt lat="47.541404" lon="7.956677">
        <ele>302.331679</ele>
        <time>2021-11-14T17:34:43.686Z</time>
      </trkpt>
      <trkpt lat="47.541280" lon="7.957569">
        <ele>304.308214</ele>
        <time>2021-11-14T17:34:59.333Z</time>
      </trkpt>
      <trkpt lat="47.541237" lon="7.957756">
        <ele>304.736962</ele>
        <time>2021-11-14T17:35:03.681Z</time>
      </trkpt>
      <trkpt lat="47.541141" lon="7.958127">
        <ele>305.599274</ele>
        <time>2021-11-14T17:35:11.232Z</time>
      </trkpt>
      <trkpt lat="47.540957" lon="7.959132">
        <ele>307.830646</ele>
        <time>2021-11-14T17:35:32.675Z</time>
      </trkpt>
      <trkpt lat="47.540954" lon="7.959705">
        <ele>308.953047</ele>
        <time>2021-11-14T17:35:44.102Z</time>
      </trkpt>
      <trkpt lat="47.540979" lon="7.959950">
        <ele>309.438394</ele>
        <time>2021-11-14T17:35:49.552Z</time>
      </trkpt>
      <trkpt lat="47.541002" lon="7.960092">
        <ele>309.724431</ele>
        <time>2021-11-14T17:35:52.146Z</time>
      </trkpt>
      <trkpt lat="47.541060" lon="7.960321">
        <ele>310.203518</ele>
        <time>2021-11-14T17:35:56.868Z</time>
      </trkpt>
      <trkpt lat="47.541153" lon="7.960814">
        <ele>311.206177</ele>
        <time>2021-11-14T17:36:05.437Z</time>
      </trkpt>
      <trkpt lat="47.541242" lon="7.961294">
        <ele>312.181196</ele>
        <time>2021-11-14T17:36:13.396Z</time>
      </trkpt>
      <trkpt lat="47.541316" lon="7.962197">
        <ele>313.210764</ele>
        <time>2021-11-14T17:36:26.511Z</time>
      </trkpt>
      <trkpt lat="47.541314" lon="7.962377">
        <ele>313.338252</ele>
        <time>2021-11-14T17:36:29.135Z</time>
      </trkpt>
      <trkpt lat="47.541308" lon="7.962513">
        <ele>313.434769</ele>
        <time>2021-11-14T17:36:30.463Z</time>
      </trkpt>
      <trkpt lat="47.541293" lon="7.962730">
        <ele>313.589246</ele>
        <time>2021-11-14T17:36:32.784Z</time>
      </trkpt>
      <trkpt lat="47.541258" lon="7.962975">
        <ele>313.766590</ele>
        <time>2021-11-14T17:36:36.228Z</time>
      </trkpt>
      <trkpt lat="47.541217" lon="7.963187">
        <ele>313.922762</ele>
        <time>2021-11-14T17:36:38.255Z</time>
      </trkpt>
      <trkpt lat="47.541123" lon="7.963520">
        <ele>314.178371</ele>
        <time>2021-11-14T17:36:43.069Z</time>
      </trkpt>
      <trkpt lat="47.541019" lon="7.963815">
        <ele>314.414056</ele>
        <time>2021-11-14T17:36:47.263Z</time>
      </trkpt>
      <trkpt lat="47.541129" lon="7.964008">
        <ele>314.592932</ele>
        <time>2021-11-14T17:36:50.049Z</time>
      </trkpt>
      <trkpt lat="47.541169" lon="7.964123">
        <ele>314.681849</ele>
        <time>2021-11-14T17:36:51.200Z</time>
      </trkpt>
      <trkpt lat="47.541095" lon="7.964204">
        <ele>314.758098</ele>
        <time>2021-11-14T17:36:53.575Z</time>
      </trkpt>
      <trkpt lat="47.540899" lon="7.964705">
        <ele>315.082035</ele>
        <time>2021-11-14T17:37:00.510Z</time>
      </trkpt>
      <trkpt lat="47.540896" lon="7.964711">
        <ele>315.086212</ele>
        <time>2021-11-14T17:37:00.690Z</time>
      </trkpt>
      <trkpt lat="47.540214" lon="7.967628">
        <ele>317.200239</ele>
        <time>2021-11-14T17:37:38.547Z</time>
      </trkpt>
      <trkpt lat="47.539783" lon="7.969587">
        <ele>319.396032</ele>
        <time>2021-11-14T17:38:08.246Z</time>
      </trkpt>
      <trkpt lat="47.539262" lon="7.971768">
        <ele>322.946718</ele>
        <time>2021-11-14T17:38:47.196Z</time>
      </trkpt>
      <trkpt lat="47.538706" lon="7.974459">
        <ele>327.288523</ele>
        <time>2021-11-14T17:39:32.993Z</time>
      </trkpt>
      <trkpt lat="47.538242" lon="7.976347">
        <ele>330.024379</ele>
        <time>2021-11-14T17:40:03.811Z</time>
      </trkpt>
      <trkpt lat="47.538107" lon="7.977240">
        <ele>330.870399</ele>
        <time>2021-11-14T17:40:17.505Z</time>
      </trkpt>
      <trkpt lat="47.537955" lon="7.978125">
        <ele>331.523403</ele>
        <time>2021-11-14T17:40:31.049Z</time>
      </trkpt>
      <trkpt lat="47.537583" lon="7.979760">
        <ele>331.564828</ele>
        <time>2021-11-14T17:40:49.346Z</time>
      </trkpt>
      <trkpt lat="47.537461" lon="7.980118">
        <ele>331.045273</ele>
        <time>2021-11-14T17:40:52.355Z</time>
      </trkpt>
      <trkpt lat="47.537107" lon="7.981082">
        <ele>329.623534</ele>
        <time>2021-11-14T17:41:00.165Z</time>
      </trkpt>
      <trkpt lat="47.536959" lon="7.981602">
        <ele>328.892412</ele>
        <time>2021-11-14T17:41:04.005Z</time>
      </trkpt>
      <trkpt lat="47.536896" lon="7.981697">
        <ele>328.664737</ele>
        <time>2021-11-14T17:41:04.932Z</time>
      </trkpt>
      <trkpt lat="47.536842" lon="7.981878">
        <ele>328.320837</ele>
        <time>2021-11-14T17:41:06.267Z</time>
      </trkpt>
      <trkpt lat="47.536775" lon="7.982096">
        <ele>327.904570</ele>
        <time>2021-11-14T17:41:07.871Z</time>
      </trkpt>
      <trkpt lat="47.536764" lon="7.982225">
        <ele>327.678603</ele>
        <time>2021-11-14T17:41:08.765Z</time>
      </trkpt>
      <trkpt lat="47.536530" lon="7.982859">
        <ele>326.422882</ele>
        <time>2021-11-14T17:41:13.687Z</time>
      </trkpt>
      <trkpt lat="47.536410" lon="7.983244">
        <ele>325.685932</ele>
        <time>2021-11-14T17:41:16.671Z</time>
      </trkpt>
      <trkpt lat="47.536199" lon="7.983737">
        <ele>324.671492</ele>
        <time>2021-11-14T17:41:20.959Z</time>
      </trkpt>
      <trkpt lat="47.536026" lon="7.984206">
        <ele>324.223585</ele>
        <time>2021-11-14T17:41:25.258Z</time>
      </trkpt>
      <trkpt lat="47.535614" lon="7.985212">
        <ele>324.111825</ele>
        <time>2021-11-14T17:41:36.197Z</time>
      </trkpt>
      <trkpt lat="47.535270" lon="7.985985">
        <ele>324.023885</ele>
        <time>2021-11-14T17:41:46.419Z</time>
      </trkpt>
      <trkpt lat="47.534974" lon="7.986602">
        <ele>324.630518</ele>
        <time>2021-11-14T17:41:55.494Z</time>
      </trkpt>
      <trkpt lat="47.534590" lon="7.987330">
        <ele>325.827508</ele>
        <time>2021-11-14T17:42:09.187Z</time>
      </trkpt>
      <trkpt lat="47.534466" lon="7.987626">
        <ele>326.278858</ele>
        <time>2021-11-14T17:42:15.061Z</time>
      </trkpt>
      <trkpt lat="47.534363" lon="7.987895">
        <ele>326.679545</ele>
        <time>2021-11-14T17:42:20.523Z</time>
      </trkpt>
      <trkpt lat="47.534280" lon="7.987862">
        <ele>326.844469</ele>
        <time>2021-11-14T17:42:22.763Z</time>
      </trkpt>
      <trkpt lat="47.534072" lon="7.987749">
        <ele>327.269647</ele>
        <time>2021-11-14T17:42:28.596Z</time>
      </trkpt>
      <trkpt lat="47.533728" lon="7.987557">
        <ele>328.023797</ele>
        <time>2021-11-14T17:42:37.785Z</time>
      </trkpt>
      <trkpt lat="47.533509" lon="7.987411">
        <ele>328.527411</ele>
        <time>2021-11-14T17:42:43.617Z</time>
      </trkpt>
      <trkpt lat="47.533195" lon="7.987215">
        <ele>329.241947</ele>
        <time>2021-11-14T17:42:52.055Z</time>
      </trkpt>
      <trkpt lat="47.533142" lon="7.987165">
        <ele>329.373717</ele>
        <time>2021-11-14T17:42:53.408Z</time>
      </trkpt>
      <trkpt lat="47.533114" lon="7.987128">
        <ele>329.452404</ele>
        <time>2021-11-14T17:42:54.960Z</time>
      </trkpt>
      <trkpt lat="47.532879" lon="7.987447">
        <ele>330.120852</ele>
        <time>2021-11-14T17:43:02.097Z</time>
      </trkpt>
      <trkpt lat="47.532716" lon="7.987667">
        <ele>330.583292</ele>
        <time>2021-11-14T17:43:07.191Z</time>
      </trkpt>
      <trkpt lat="47.532621" lon="7.987826">
        <ele>330.883896</ele>
        <time>2021-11-14T17:43:10.124Z</time>
      </trkpt>
      <trkpt lat="47.532544" lon="7.987973">
        <ele>331.147311</ele>
        <time>2021-11-14T17:43:13.124Z</time>
      </trkpt>
      <trkpt lat="47.532464" lon="7.988171">
        <ele>331.185248</ele>
        <time>2021-11-14T17:43:15.931Z</time>
      </trkpt>
      <trkpt lat="47.532401" lon="7.988331">
        <ele>331.147206</ele>
        <time>2021-11-14T17:43:18.771Z</time>
      </trkpt>
      <trkpt lat="47.532373" lon="7.988399">
        <ele>331.130848</ele>
        <time>2021-11-14T17:43:19.530Z</time>
      </trkpt>
      <trkpt lat="47.532299" lon="7.988577">
        <ele>331.087915</ele>
        <time>2021-11-14T17:43:21.467Z</time>
      </trkpt>
      <trkpt lat="47.532014" lon="7.989225">
        <ele>330.929079</ele>
        <time>2021-11-14T17:43:28.560Z</time>
      </trkpt>
      <trkpt lat="47.531897" lon="7.989450">
        <ele>330.870750</ele>
        <time>2021-11-14T17:43:30.850Z</time>
      </trkpt>
      <trkpt lat="47.531823" lon="7.989607">
        <ele>330.831424</ele>
        <time>2021-11-14T17:43:32.400Z</time>
      </trkpt>
      <trkpt lat="47.531667" lon="7.989873">
        <ele>330.759059</ele>
        <time>2021-11-14T17:43:35.220Z</time>
      </trkpt>
      <trkpt lat="47.531363" lon="7.990436">
        <ele>330.593193</ele>
        <time>2021-11-14T17:43:40.930Z</time>
      </trkpt>
      <trkpt lat="47.530979" lon="7.991211">
        <ele>330.340570</ele>
        <time>2021-11-14T17:43:49.267Z</time>
      </trkpt>
      <trkpt lat="47.530933" lon="7.991310">
        <ele>330.308988</ele>
        <time>2021-11-14T17:43:50.260Z</time>
      </trkpt>
      <trkpt lat="47.530776" lon="7.991586">
        <ele>330.214146</ele>
        <time>2021-11-14T17:43:53.838Z</time>
      </trkpt>
      <trkpt lat="47.530495" lon="7.992103">
        <ele>330.039728</ele>
        <time>2021-11-14T17:43:59.913Z</time>
      </trkpt>
      <trkpt lat="47.530141" lon="7.992757">
        <ele>330.964313</ele>
        <time>2021-11-14T17:44:08.874Z</time>
      </trkpt>
      <trkpt lat="47.529350" lon="7.994228">
        <ele>334.116141</ele>
        <time>2021-11-14T17:44:44.789Z</time>
      </trkpt>
      <trkpt lat="47.529261" lon="7.994394">
        <ele>334.463523</ele>
        <time>2021-11-14T17:44:48.953Z</time>
      </trkpt>
      <trkpt lat="47.529180" lon="7.994531">
        <ele>334.693481</ele>
        <time>2021-11-14T17:44:52.321Z</time>
      </trkpt>
      <trkpt lat="47.528851" lon="7.994185">
        <ele>335.448151</ele>
        <time>2021-11-14T17:45:05.853Z</time>
      </trkpt>
      <trkpt lat="47.528522" lon="7.994788">
        <ele>336.427171</ele>
        <time>2021-11-14T17:45:22.217Z</time>
      </trkpt>
      <trkpt lat="47.527390" lon="7.996879">
        <ele>337.756779</ele>
        <time>2021-11-14T17:45:59.808Z</time>
      </trkpt>
      <trkpt lat="47.527239" lon="7.997118">
        <ele>337.747198</ele>
        <time>2021-11-14T17:46:03.488Z</time>
      </trkpt>
      <trkpt lat="47.527061" lon="7.997361">
        <ele>337.736704</ele>
        <time>2021-11-14T17:46:08.221Z</time>
      </trkpt>
      <trkpt lat="47.527005" lon="7.997436">
        <ele>337.733431</ele>
        <time>2021-11-14T17:46:09.588Z</time>
      </trkpt>
      <trkpt lat="47.526659" lon="7.997896">
        <ele>337.944519</ele>
        <time>2021-11-14T17:46:18.992Z</time>
      </trkpt>
      <trkpt lat="47.526462" lon="7.998465">
        <ele>338.283947</ele>
        <time>2021-11-14T17:46:28.594Z</time>
      </trkpt>
      <trkpt lat="47.526232" lon="7.998874">
        <ele>338.566485</ele>
        <time>2021-11-14T17:46:36.760Z</time>
      </trkpt>
      <trkpt lat="47.522812" lon="8.002772">
        <ele>344.809443</ele>
        <time>2021-11-14T17:48:30.643Z</time>
      </trkpt>
      <trkpt lat="47.522593" lon="8.003040">
        <ele>345.188733</ele>
        <time>2021-11-14T17:48:38.905Z</time>
      </trkpt>
      <trkpt lat="47.522286" lon="8.003405">
        <ele>345.710223</ele>
        <time>2021-11-14T17:48:50.205Z</time>
      </trkpt>
      <trkpt lat="47.521941" lon="8.003805">
        <ele>346.290606</ele>
        <time>2021-11-14T17:49:01.498Z</time>
      </trkpt>
      <trkpt lat="47.521691" lon="8.004044">
        <ele>346.684761</ele>
        <time>2021-11-14T17:49:09.215Z</time>
      </trkpt>
      <trkpt lat="47.521488" lon="8.004236">
        <ele>347.003816</ele>
        <time>2021-11-14T17:49:14.561Z</time>
      </trkpt>
      <trkpt lat="47.521214" lon="8.004538">
        <ele>347.026013</ele>
        <time>2021-11-14T17:49:22.407Z</time>
      </trkpt>
      <trkpt lat="47.521327" lon="8.004951">
        <ele>346.732476</ele>
        <time>2021-11-14T17:49:28.353Z</time>
      </trkpt>
      <trkpt lat="47.521277" lon="8.005104">
        <ele>346.620510</ele>
        <time>2021-11-14T17:49:30.486Z</time>
      </trkpt>
      <trkpt lat="47.520956" lon="8.005345">
        <ele>346.269447</ele>
        <time>2021-11-14T17:49:36.748Z</time>
      </trkpt>
      <trkpt lat="47.518926" lon="8.007732">
        <ele>342.364357</ele>
        <time>2021-11-14T17:50:17.724Z</time>
      </trkpt>
      <trkpt lat="47.518239" lon="8.008485">
        <ele>342.756051</ele>
        <time>2021-11-14T17:50:33.750Z</time>
      </trkpt>
      <trkpt lat="47.517851" lon="8.008946">
        <ele>343.041616</ele>
        <time>2021-11-14T17:50:45.962Z</time>
      </trkpt>
      <trkpt lat="47.517791" lon="8.009018">
        <ele>343.085949</ele>
        <time>2021-11-14T17:50:48.310Z</time>
      </trkpt>
      <trkpt lat="47.517615" lon="8.009232">
        <ele>343.216678</ele>
        <time>2021-11-14T17:50:54.038Z</time>
      </trkpt>
      <trkpt lat="47.517564" lon="8.009350">
        <ele>343.270991</ele>
        <time>2021-11-14T17:50:57.282Z</time>
      </trkpt>
      <trkpt lat="47.517508" lon="8.009440">
        <ele>343.318433</ele>
        <time>2021-11-14T17:50:59.629Z</time>
      </trkpt>
      <trkpt lat="47.517409" lon="8.009275">
        <ele>343.755101</ele>
        <time>2021-11-14T17:51:03.581Z</time>
      </trkpt>
      <trkpt lat="47.517345" lon="8.009165">
        <ele>344.053081</ele>
        <time>2021-11-14T17:51:06.972Z</time>
      </trkpt>
      <trkpt lat="47.516966" lon="8.008595">
        <ele>345.694729</ele>
        <time>2021-11-14T17:51:24.213Z</time>
      </trkpt>
      <trkpt lat="47.516886" lon="8.008468">
        <ele>346.051156</ele>
        <time>2021-11-14T17:51:27.798Z</time>
      </trkpt>
      <trkpt lat="47.516850" lon="8.008403">
        <ele>346.223681</ele>
        <time>2021-11-14T17:51:30.168Z</time>
      </trkpt>
      <trkpt lat="47.516778" lon="8.008407">
        <ele>346.442633</ele>
        <time>2021-11-14T17:51:32.839Z</time>
      </trkpt>
      <trkpt lat="47.516279" lon="8.008426">
        <ele>347.959526</ele>
        <time>2021-11-14T17:51:49.811Z</time>
      </trkpt>
      <trkpt lat="47.515777" lon="8.008451">
        <ele>349.329908</ele>
        <time>2021-11-14T17:52:07.168Z</time>
      </trkpt>
      <trkpt lat="47.514868" lon="8.008490">
        <ele>351.475666</ele>
        <time>2021-11-14T17:52:35.267Z</time>
      </trkpt>
      <trkpt lat="47.514604" lon="8.008601">
        <ele>352.123225</ele>
        <time>2021-11-14T17:52:42.893Z</time>
      </trkpt>
      <trkpt lat="47.514240" lon="8.009205">
        <ele>353.077679</ele>
        <time>2021-11-14T17:52:56.862Z</time>
      </trkpt>
      <trkpt lat="47.513914" lon="8.009618">
        <ele>353.198736</ele>
        <time>2021-11-14T17:53:06.640Z</time>
      </trkpt>
      <trkpt lat="47.513230" lon="8.010045">
        <ele>353.408180</ele>
        <time>2021-11-14T17:53:21.731Z</time>
      </trkpt>
      <trkpt lat="47.513001" lon="8.010158">
        <ele>353.476286</ele>
        <time>2021-11-14T17:53:26.269Z</time>
      </trkpt>
      <trkpt lat="47.512828" lon="8.010284">
        <ele>353.530684</ele>
        <time>2021-11-14T17:53:29.978Z</time>
      </trkpt>
      <trkpt lat="47.512231" lon="8.010689">
        <ele>353.983111</ele>
        <time>2021-11-14T17:53:42.263Z</time>
      </trkpt>
      <trkpt lat="47.511819" lon="8.010960">
        <ele>354.302967</ele>
        <time>2021-11-14T17:53:52.266Z</time>
      </trkpt>
      <trkpt lat="47.511743" lon="8.011016">
        <ele>354.363197</ele>
        <time>2021-11-14T17:53:54.446Z</time>
      </trkpt>
      <trkpt lat="47.511725" lon="8.011067">
        <ele>354.390772</ele>
        <time>2021-11-14T17:53:54.957Z</time>
      </trkpt>
      <trkpt lat="47.511369" lon="8.012112">
        <ele>355.109874</ele>
        <time>2021-11-14T17:54:12.675Z</time>
      </trkpt>
      <trkpt lat="47.511339" lon="8.012189">
        <ele>355.202053</ele>
        <time>2021-11-14T17:54:14.084Z</time>
      </trkpt>
      <trkpt lat="47.511240" lon="8.012453">
        <ele>355.515178</ele>
        <time>2021-11-14T17:54:19.374Z</time>
      </trkpt>
      <trkpt lat="47.511153" lon="8.012630">
        <ele>355.742179</ele>
        <time>2021-11-14T17:54:22.222Z</time>
      </trkpt>
      <trkpt lat="47.511060" lon="8.012793">
        <ele>355.963439</ele>
        <time>2021-11-14T17:54:26.063Z</time>
      </trkpt>
      <trkpt lat="47.510610" lon="8.013245">
        <ele>356.798300</ele>
        <time>2021-11-14T17:54:37.313Z</time>
      </trkpt>
      <trkpt lat="47.510195" lon="8.013657">
        <ele>357.565419</ele>
        <time>2021-11-14T17:54:47.483Z</time>
      </trkpt>
      <trkpt lat="47.510139" lon="8.013722">
        <ele>357.528019</ele>
        <time>2021-11-14T17:54:48.952Z</time>
      </trkpt>
      <trkpt lat="47.510028" lon="8.013857">
        <ele>357.417191</ele>
        <time>2021-11-14T17:54:50.897Z</time>
      </trkpt>
      <trkpt lat="47.509928" lon="8.014411">
        <ele>357.118361</ele>
        <time>2021-11-14T17:54:56.783Z</time>
      </trkpt>
      <trkpt lat="47.509891" lon="8.014585">
        <ele>357.023299</ele>
        <time>2021-11-14T17:54:58.497Z</time>
      </trkpt>
      <trkpt lat="47.509823" lon="8.014904">
        <ele>356.848980</ele>
        <time>2021-11-14T17:55:01.057Z</time>
      </trkpt>
      <trkpt lat="47.509799" lon="8.014989">
        <ele>356.800970</ele>
        <time>2021-11-14T17:55:01.839Z</time>
      </trkpt>
      <trkpt lat="47.509686" lon="8.015069">
        <ele>356.704335</ele>
        <time>2021-11-14T17:55:03.320Z</time>
      </trkpt>
      <trkpt lat="47.509612" lon="8.015079">
        <ele>356.647007</ele>
        <time>2021-11-14T17:55:04.107Z</time>
      </trkpt>
      <trkpt lat="47.509546" lon="8.015060">
        <ele>356.595134</ele>
        <time>2021-11-14T17:55:04.810Z</time>
      </trkpt>
      <trkpt lat="47.509444" lon="8.014982">
        <ele>356.506563</ele>
        <time>2021-11-14T17:55:06.188Z</time>
      </trkpt>
      <trkpt lat="47.509142" lon="8.014737">
        <ele>356.240881</ele>
        <time>2021-11-14T17:55:10.012Z</time>
      </trkpt>
      <trkpt lat="47.508749" lon="8.014436">
        <ele>355.838039</ele>
        <time>2021-11-14T17:55:15.239Z</time>
      </trkpt>
      <trkpt lat="47.508646" lon="8.014383">
        <ele>355.736073</ele>
        <time>2021-11-14T17:55:16.467Z</time>
      </trkpt>
      <trkpt lat="47.508562" lon="8.014341">
        <ele>355.653167</ele>
        <time>2021-11-14T17:55:17.480Z</time>
      </trkpt>
      <trkpt lat="47.508375" lon="8.014403">
        <ele>355.473974</ele>
        <time>2021-11-14T17:55:20.081Z</time>
      </trkpt>
      <trkpt lat="47.508333" lon="8.014419">
        <ele>355.433421</ele>
        <time>2021-11-14T17:55:20.555Z</time>
      </trkpt>
      <trkpt lat="47.508281" lon="8.014277">
        <ele>355.331396</ele>
        <time>2021-11-14T17:55:21.810Z</time>
      </trkpt>
      <trkpt lat="47.508214" lon="8.014183">
        <ele>355.245080</ele>
        <time>2021-11-14T17:55:23.068Z</time>
      </trkpt>
      <trkpt lat="47.508075" lon="8.014054">
        <ele>355.091675</ele>
        <time>2021-11-14T17:55:25.138Z</time>
      </trkpt>
      <trkpt lat="47.508011" lon="8.013995">
        <ele>355.021175</ele>
        <time>2021-11-14T17:55:26.112Z</time>
      </trkpt>
      <trkpt lat="47.507595" lon="8.013616">
        <ele>354.564418</ele>
        <time>2021-11-14T17:55:32.517Z</time>
      </trkpt>
      <trkpt lat="47.507559" lon="8.013585">
        <ele>354.525475</ele>
        <time>2021-11-14T17:55:33.146Z</time>
      </trkpt>
      <trkpt lat="47.507231" lon="8.013292">
        <ele>354.350232</ele>
        <time>2021-11-14T17:55:38.266Z</time>
      </trkpt>
      <trkpt lat="47.507191" lon="8.013279">
        <ele>354.332531</ele>
        <time>2021-11-14T17:55:38.811Z</time>
      </trkpt>
      <trkpt lat="47.507106" lon="8.013288">
        <ele>354.295695</ele>
        <time>2021-11-14T17:55:39.944Z</time>
      </trkpt>
      <trkpt lat="47.507084" lon="8.013290">
        <ele>354.286168</ele>
        <time>2021-11-14T17:55:40.234Z</time>
      </trkpt>
      <trkpt lat="47.507038" lon="8.013279">
        <ele>354.266027</ele>
        <time>2021-11-14T17:55:40.935Z</time>
      </trkpt>
      <trkpt lat="47.507007" lon="8.013263">
        <ele>354.251836</ele>
        <time>2021-11-14T17:55:41.389Z</time>
      </trkpt>
      <trkpt lat="47.506989" lon="8.013246">
        <ele>354.242607</ele>
        <time>2021-11-14T17:55:41.702Z</time>
      </trkpt>
      <trkpt lat="47.506955" lon="8.013213">
        <ele>354.225033</ele>
        <time>2021-11-14T17:55:42.311Z</time>
      </trkpt>
      <trkpt lat="47.506929" lon="8.013191">
        <ele>354.212088</ele>
        <time>2021-11-14T17:55:42.786Z</time>
      </trkpt>
      <trkpt lat="47.506890" lon="8.013159">
        <ele>354.192815</ele>
        <time>2021-11-14T17:55:43.438Z</time>
      </trkpt>
      <trkpt lat="47.506825" lon="8.013107">
        <ele>354.160878</ele>
        <time>2021-11-14T17:55:44.461Z</time>
      </trkpt>
      <trkpt lat="47.506760" lon="8.013057">
        <ele>354.129215</ele>
        <time>2021-11-14T17:55:45.466Z</time>
      </trkpt>
      <trkpt lat="47.506697" lon="8.013001">
        <ele>354.097451</ele>
        <time>2021-11-14T17:55:46.469Z</time>
      </trkpt>
      <trkpt lat="47.506663" lon="8.012973">
        <ele>354.080634</ele>
        <time>2021-11-14T17:55:47.042Z</time>
      </trkpt>
      <trkpt lat="47.506633" lon="8.012949">
        <ele>354.065894</ele>
        <time>2021-11-14T17:55:47.538Z</time>
      </trkpt>
      <trkpt lat="47.506533" lon="8.012868">
        <ele>354.016622</ele>
        <time>2021-11-14T17:55:49.063Z</time>
      </trkpt>
      <trkpt lat="47.506492" lon="8.012798">
        <ele>353.989569</ele>
        <time>2021-11-14T17:55:49.945Z</time>
      </trkpt>
      <trkpt lat="47.506472" lon="8.012743">
        <ele>353.971331</ele>
        <time>2021-11-14T17:55:50.456Z</time>
      </trkpt>
      <trkpt lat="47.506389" lon="8.012514">
        <ele>353.895448</ele>
        <time>2021-11-14T17:55:52.704Z</time>
      </trkpt>
      <trkpt lat="47.506346" lon="8.012464">
        <ele>353.871814</ele>
        <time>2021-11-14T17:55:53.425Z</time>
      </trkpt>
      <trkpt lat="47.506308" lon="8.012429">
        <ele>353.852468</ele>
        <time>2021-11-14T17:55:54.009Z</time>
      </trkpt>
      <trkpt lat="47.506101" lon="8.012240">
        <ele>353.747343</ele>
        <time>2021-11-14T17:55:57.083Z</time>
      </trkpt>
      <trkpt lat="47.505808" lon="8.011926">
        <ele>353.975286</ele>
        <time>2021-11-14T17:56:01.710Z</time>
      </trkpt>
      <trkpt lat="47.505388" lon="8.011390">
        <ele>354.397941</ele>
        <time>2021-11-14T17:56:10.379Z</time>
      </trkpt>
      <trkpt lat="47.505237" lon="8.011270">
        <ele>354.528568</ele>
        <time>2021-11-14T17:56:13.361Z</time>
      </trkpt>
      <trkpt lat="47.504446" lon="8.010688">
        <ele>355.435429</ele>
        <time>2021-11-14T17:56:32.336Z</time>
      </trkpt>
      <trkpt lat="47.504256" lon="8.010566">
        <ele>355.958902</ele>
        <time>2021-11-14T17:56:37.430Z</time>
      </trkpt>
      <trkpt lat="47.504178" lon="8.010516">
        <ele>356.173744</ele>
        <time>2021-11-14T17:56:39.631Z</time>
      </trkpt>
      <trkpt lat="47.504018" lon="8.010447">
        <ele>356.594969</ele>
        <time>2021-11-14T17:56:44.520Z</time>
      </trkpt>
      <trkpt lat="47.503467" lon="8.010296">
        <ele>358.011331</ele>
        <time>2021-11-14T17:56:58.384Z</time>
      </trkpt>
      <trkpt lat="47.502991" lon="8.010405">
        <ele>359.228769</ele>
        <time>2021-11-14T17:57:10.959Z</time>
      </trkpt>
      <trkpt lat="47.502959" lon="8.010415">
        <ele>359.311435</ele>
        <time>2021-11-14T17:57:12.574Z</time>
      </trkpt>
      <trkpt lat="47.502773" lon="8.009928">
        <ele>360.048254</ele>
        <time>2021-11-14T17:57:22.370Z</time>
      </trkpt>
      <trkpt lat="47.502267" lon="8.008979">
        <ele>361.384722</ele>
        <time>2021-11-14T17:57:39.801Z</time>
      </trkpt>
      <trkpt lat="47.502158" lon="8.008808">
        <ele>361.644621</ele>
        <time>2021-11-14T17:57:42.833Z</time>
      </trkpt>
      <trkpt lat="47.502062" lon="8.008650">
        <ele>361.879535</ele>
        <time>2021-11-14T17:57:46.219Z</time>
      </trkpt>
      <trkpt lat="47.501943" lon="8.008353">
        <ele>362.261261</ele>
        <time>2021-11-14T17:57:50.444Z</time>
      </trkpt>
      <trkpt lat="47.501537" lon="8.007308">
        <ele>362.907998</ele>
        <time>2021-11-14T17:58:04.681Z</time>
      </trkpt>
      <trkpt lat="47.501496" lon="8.007247">
        <ele>362.938103</ele>
        <time>2021-11-14T17:58:05.712Z</time>
      </trkpt>
      <trkpt lat="47.501293" lon="8.006936">
        <ele>363.089403</ele>
        <time>2021-11-14T17:58:10.508Z</time>
      </trkpt>
      <trkpt lat="47.501276" lon="8.006911">
        <ele>363.101813</ele>
        <time>2021-11-14T17:58:10.883Z</time>
      </trkpt>
      <trkpt lat="47.500997" lon="8.006551">
        <ele>363.293492</ele>
        <time>2021-11-14T17:58:16.431Z</time>
      </trkpt>
      <trkpt lat="47.500764" lon="8.006290">
        <ele>363.444816</ele>
        <time>2021-11-14T17:58:21.001Z</time>
      </trkpt>
      <trkpt lat="47.500647" lon="8.006180">
        <ele>363.516598</ele>
        <time>2021-11-14T17:58:23.470Z</time>
      </trkpt>
      <trkpt lat="47.500540" lon="8.006079">
        <ele>363.636263</ele>
        <time>2021-11-14T17:58:25.565Z</time>
      </trkpt>
      <trkpt lat="47.500310" lon="8.005852">
        <ele>363.907239</ele>
        <time>2021-11-14T17:58:30.383Z</time>
      </trkpt>
      <trkpt lat="47.500252" lon="8.005784">
        <ele>363.979766</ele>
        <time>2021-11-14T17:58:31.705Z</time>
      </trkpt>
      <trkpt lat="47.500207" lon="8.005727">
        <ele>364.037823</ele>
        <time>2021-11-14T17:58:32.720Z</time>
      </trkpt>
      <trkpt lat="47.500009" lon="8.005488">
        <ele>364.288263</ele>
        <time>2021-11-14T17:58:37.436Z</time>
      </trkpt>
      <trkpt lat="47.499991" lon="8.005468">
        <ele>364.310326</ele>
        <time>2021-11-14T17:58:37.843Z</time>
      </trkpt>
      <trkpt lat="47.499880" lon="8.005358">
        <ele>364.441266</ele>
        <time>2021-11-14T17:58:40.514Z</time>
      </trkpt>
      <trkpt lat="47.499856" lon="8.005338">
        <ele>364.468264</ele>
        <time>2021-11-14T17:58:41.059Z</time>
      </trkpt>
      <trkpt lat="47.499770" lon="8.005268">
        <ele>364.564469</ele>
        <time>2021-11-14T17:58:43.004Z</time>
      </trkpt>
      <trkpt lat="47.499523" lon="8.005078">
        <ele>364.837330</ele>
        <time>2021-11-14T17:58:48.475Z</time>
      </trkpt>
      <trkpt lat="47.499496" lon="8.005059">
        <ele>364.866635</ele>
        <time>2021-11-14T17:58:49.096Z</time>
      </trkpt>
      <trkpt lat="47.499409" lon="8.005000">
        <ele>364.960441</ele>
        <time>2021-11-14T17:58:50.886Z</time>
      </trkpt>
      <trkpt lat="47.499183" lon="8.004875">
        <ele>365.196935</ele>
        <time>2021-11-14T17:58:55.682Z</time>
      </trkpt>
      <trkpt lat="47.499012" lon="8.004762">
        <ele>365.454612</ele>
        <time>2021-11-14T17:58:59.266Z</time>
      </trkpt>
      <trkpt lat="47.498965" lon="8.004710">
        <ele>365.556762</ele>
        <time>2021-11-14T17:59:00.552Z</time>
      </trkpt>
      <trkpt lat="47.498898" lon="8.004636">
        <ele>365.702290</ele>
        <time>2021-11-14T17:59:02.391Z</time>
      </trkpt>
      <trkpt lat="47.498753" lon="8.004410">
        <ele>366.068851</ele>
        <time>2021-11-14T17:59:06.562Z</time>
      </trkpt>
      <trkpt lat="47.498698" lon="8.004313">
        <ele>366.217787</ele>
        <time>2021-11-14T17:59:08.637Z</time>
      </trkpt>
      <trkpt lat="47.498450" lon="8.003874">
        <ele>366.890818</ele>
        <time>2021-11-14T17:59:17.489Z</time>
      </trkpt>
      <trkpt lat="47.498213" lon="8.003454">
        <ele>367.534423</ele>
        <time>2021-11-14T17:59:25.809Z</time>
      </trkpt>
      <trkpt lat="47.498166" lon="8.003383">
        <ele>367.651331</ele>
        <time>2021-11-14T17:59:27.237Z</time>
      </trkpt>
      <trkpt lat="47.498072" lon="8.003250">
        <ele>367.877707</ele>
        <time>2021-11-14T17:59:29.985Z</time>
      </trkpt>
      <trkpt lat="47.497951" lon="8.003094">
        <ele>368.157051</ele>
        <time>2021-11-14T17:59:33.820Z</time>
      </trkpt>
      <trkpt lat="47.497607" lon="8.002710">
        <ele>368.913813</ele>
        <time>2021-11-14T17:59:43.065Z</time>
      </trkpt>
      <trkpt lat="47.497540" lon="8.002634">
        <ele>369.062767</ele>
        <time>2021-11-14T17:59:45.053Z</time>
      </trkpt>
      <trkpt lat="47.497390" lon="8.002409">
        <ele>369.439615</ele>
        <time>2021-11-14T17:59:49.689Z</time>
      </trkpt>
      <trkpt lat="47.497307" lon="8.002279">
        <ele>369.652855</ele>
        <time>2021-11-14T17:59:52.326Z</time>
      </trkpt>
      <trkpt lat="47.497264" lon="8.002219">
        <ele>369.757134</ele>
        <time>2021-11-14T17:59:53.756Z</time>
      </trkpt>
      <trkpt lat="47.497207" lon="8.002132">
        <ele>369.901615</ele>
        <time>2021-11-14T17:59:55.434Z</time>
      </trkpt>
      <trkpt lat="47.496932" lon="8.001715">
        <ele>370.596335</ele>
        <time>2021-11-14T18:00:04.571Z</time>
      </trkpt>
      <trkpt lat="47.496908" lon="8.001680">
        <ele>370.655788</ele>
        <time>2021-11-14T18:00:05.316Z</time>
      </trkpt>
      <trkpt lat="47.496861" lon="8.001608">
        <ele>370.775147</ele>
        <time>2021-11-14T18:00:06.795Z</time>
      </trkpt>
      <trkpt lat="47.496820" lon="8.001547">
        <ele>370.877729</ele>
        <time>2021-11-14T18:00:08.140Z</time>
      </trkpt>
      <trkpt lat="47.496585" lon="8.001187">
        <ele>371.474527</ele>
        <time>2021-11-14T18:00:15.192Z</time>
      </trkpt>
      <trkpt lat="47.496535" lon="8.001108">
        <ele>371.596032</ele>
        <time>2021-11-14T18:00:16.888Z</time>
      </trkpt>
      <trkpt lat="47.496533" lon="8.001104">
        <ele>371.598672</ele>
        <time>2021-11-14T18:00:16.959Z</time>
      </trkpt>
      <trkpt lat="47.496517" lon="8.001077">
        <ele>371.617720</ele>
        <time>2021-11-14T18:00:17.601Z</time>
      </trkpt>
      <trkpt lat="47.496429" lon="8.000925">
        <ele>371.723888</ele>
        <time>2021-11-14T18:00:20.013Z</time>
      </trkpt>
      <trkpt lat="47.496280" lon="8.000664">
        <ele>371.905119</ele>
        <time>2021-11-14T18:00:24.796Z</time>
      </trkpt>
      <trkpt lat="47.496272" lon="8.000651">
        <ele>371.914445</ele>
        <time>2021-11-14T18:00:25.014Z</time>
      </trkpt>
      <trkpt lat="47.496234" lon="8.000584">
        <ele>371.960842</ele>
        <time>2021-11-14T18:00:25.941Z</time>
      </trkpt>
      <trkpt lat="47.496011" lon="8.000286">
        <ele>372.196697</ele>
        <time>2021-11-14T18:00:31.598Z</time>
      </trkpt>
      <trkpt lat="47.495718" lon="8.000005">
        <ele>372.470773</ele>
        <time>2021-11-14T18:00:37.748Z</time>
      </trkpt>
      <trkpt lat="47.495430" lon="7.999752">
        <ele>372.733682</ele>
        <time>2021-11-14T18:00:43.413Z</time>
      </trkpt>
      <trkpt lat="47.495197" lon="7.999589">
        <ele>372.935995</ele>
        <time>2021-11-14T18:00:47.621Z</time>
      </trkpt>
      <trkpt lat="47.494812" lon="7.999457">
        <ele>373.077592</ele>
        <time>2021-11-14T18:00:53.767Z</time>
      </trkpt>
      <trkpt lat="47.494643" lon="7.999430">
        <ele>373.118912</ele>
        <time>2021-11-14T18:00:56.147Z</time>
      </trkpt>
      <trkpt lat="47.494489" lon="7.999417">
        <ele>373.156407</ele>
        <time>2021-11-14T18:00:58.296Z</time>
      </trkpt>
      <trkpt lat="47.494272" lon="7.999381">
        <ele>373.209487</ele>
        <time>2021-11-14T18:01:01.253Z</time>
      </trkpt>
      <trkpt lat="47.493961" lon="7.999292">
        <ele>373.286486</ele>
        <time>2021-11-14T18:01:05.998Z</time>
      </trkpt>
      <trkpt lat="47.493937" lon="7.999285">
        <ele>373.292432</ele>
        <time>2021-11-14T18:01:06.389Z</time>
      </trkpt>
      <trkpt lat="47.493742" lon="7.999216">
        <ele>373.341170</ele>
        <time>2021-11-14T18:01:09.658Z</time>
      </trkpt>
      <trkpt lat="47.493603" lon="7.999152">
        <ele>373.376555</ele>
        <time>2021-11-14T18:01:12.200Z</time>
      </trkpt>
      <trkpt lat="47.493614" lon="7.999095">
        <ele>373.386292</ele>
        <time>2021-11-14T18:01:12.832Z</time>
      </trkpt>
      <trkpt lat="47.493634" lon="7.998744">
        <ele>373.459535</ele>
        <time>2021-11-14T18:01:16.844Z</time>
      </trkpt>
      <trkpt lat="47.493506" lon="7.998323">
        <ele>373.769845</ele>
        <time>2021-11-14T18:01:22.801Z</time>
      </trkpt>
      <trkpt lat="47.493473" lon="7.998227">
        <ele>373.842243</ele>
        <time>2021-11-14T18:01:24.198Z</time>
      </trkpt>
      <trkpt lat="47.493432" lon="7.998154">
        <ele>373.906049</ele>
        <time>2021-11-14T18:01:25.587Z</time>
      </trkpt>
      <trkpt lat="47.493360" lon="7.998025">
        <ele>374.018516</ele>
        <time>2021-11-14T18:01:27.779Z</time>
      </trkpt>
      <trkpt lat="47.493293" lon="7.997765">
        <ele>374.205558</ele>
        <time>2021-11-14T18:01:31.338Z</time>
      </trkpt>
      <trkpt lat="47.493293" lon="7.997679">
        <ele>374.263364</ele>
        <time>2021-11-14T18:01:32.590Z</time>
      </trkpt>
      <trkpt lat="47.493330" lon="7.997491">
        <ele>374.394983</ele>
        <time>2021-11-14T18:01:35.100Z</time>
      </trkpt>
      <trkpt lat="47.493376" lon="7.997354">
        <ele>374.497813</ele>
        <time>2021-11-14T18:01:36.950Z</time>
      </trkpt>
      <trkpt lat="47.493439" lon="7.997189">
        <ele>374.625203</ele>
        <time>2021-11-14T18:01:39.475Z</time>
      </trkpt>
      <trkpt lat="47.493629" lon="7.996681">
        <ele>375.015485</ele>
        <time>2021-11-14T18:01:46.827Z</time>
      </trkpt>
      <trkpt lat="47.493684" lon="7.996562">
        <ele>375.112395</ele>
        <time>2021-11-14T18:01:48.782Z</time>
      </trkpt>
      <trkpt lat="47.493652" lon="7.996488">
        <ele>375.171450</ele>
        <time>2021-11-14T18:01:49.887Z</time>
      </trkpt>
      <trkpt lat="47.493567" lon="7.996156">
        <ele>375.413622</ele>
        <time>2021-11-14T18:01:54.401Z</time>
      </trkpt>
      <trkpt lat="47.493524" lon="7.995985">
        <ele>375.538648</ele>
        <time>2021-11-14T18:01:56.765Z</time>
      </trkpt>
      <trkpt lat="47.493430" lon="7.995894">
        <ele>375.652560</ele>
        <time>2021-11-14T18:01:58.748Z</time>
      </trkpt>
      <trkpt lat="47.492867" lon="7.995700">
        <ele>376.238796</ele>
        <time>2021-11-14T18:02:09.896Z</time>
      </trkpt>
      <trkpt lat="47.492390" lon="7.995213">
        <ele>376.826484</ele>
        <time>2021-11-14T18:02:20.781Z</time>
      </trkpt>
      <trkpt lat="47.492344" lon="7.995171">
        <ele>376.881298</ele>
        <time>2021-11-14T18:02:21.791Z</time>
      </trkpt>
      <trkpt lat="47.492271" lon="7.995104">
        <ele>376.968411</ele>
        <time>2021-11-14T18:02:23.407Z</time>
      </trkpt>
      <trkpt lat="47.492156" lon="7.994971">
        <ele>377.122500</ele>
        <time>2021-11-14T18:02:25.936Z</time>
      </trkpt>
      <trkpt lat="47.491996" lon="7.994807">
        <ele>377.338657</ele>
        <time>2021-11-14T18:02:30.616Z</time>
      </trkpt>
      <trkpt lat="47.491759" lon="7.994592">
        <ele>377.647389</ele>
        <time>2021-11-14T18:02:37.111Z</time>
      </trkpt>
      <trkpt lat="47.491577" lon="7.994479">
        <ele>377.866590</ele>
        <time>2021-11-14T18:02:42.028Z</time>
      </trkpt>
      <trkpt lat="47.491370" lon="7.994298">
        <ele>378.133617</ele>
        <time>2021-11-14T18:02:47.975Z</time>
      </trkpt>
      <trkpt lat="47.490495" lon="7.993473">
        <ele>379.322851</ele>
        <time>2021-11-14T18:03:14.207Z</time>
      </trkpt>
      <trkpt lat="47.490410" lon="7.993359">
        <ele>379.470238</ele>
        <time>2021-11-14T18:03:17.389Z</time>
      </trkpt>
      <trkpt lat="47.489739" lon="7.992457">
        <ele>380.634938</ele>
        <time>2021-11-14T18:03:40.178Z</time>
      </trkpt>
      <trkpt lat="47.489640" lon="7.992334">
        <ele>380.801021</ele>
        <time>2021-11-14T18:03:43.503Z</time>
      </trkpt>
      <trkpt lat="47.489544" lon="7.992214">
        <ele>380.962478</ele>
        <time>2021-11-14T18:03:46.819Z</time>
      </trkpt>
      <trkpt lat="47.489090" lon="7.991643">
        <ele>381.788837</ele>
        <time>2021-11-14T18:04:01.735Z</time>
      </trkpt>
      <trkpt lat="47.488771" lon="7.991233">
        <ele>382.421726</ele>
        <time>2021-11-14T18:04:12.376Z</time>
      </trkpt>
      <trkpt lat="47.488698" lon="7.991149">
        <ele>382.560240</ele>
        <time>2021-11-14T18:04:14.842Z</time>
      </trkpt>
      <trkpt lat="47.487359" lon="7.989771">
        <ele>385.081346</ele>
        <time>2021-11-14T18:04:58.441Z</time>
      </trkpt>
      <trkpt lat="47.487298" lon="7.989709">
        <ele>385.201325</ele>
        <time>2021-11-14T18:05:00.751Z</time>
      </trkpt>
      <trkpt lat="47.487127" lon="7.989547">
        <ele>385.530512</ele>
        <time>2021-11-14T18:05:05.911Z</time>
      </trkpt>
      <trkpt lat="47.486511" lon="7.989012">
        <ele>386.688530</ele>
        <time>2021-11-14T18:05:25.120Z</time>
      </trkpt>
      <trkpt lat="47.486162" lon="7.988596">
        <ele>387.387575</ele>
        <time>2021-11-14T18:05:37.048Z</time>
      </trkpt>
      <trkpt lat="47.485848" lon="7.988106">
        <ele>388.081530</ele>
        <time>2021-11-14T18:05:49.200Z</time>
      </trkpt>
      <trkpt lat="47.485496" lon="7.987549">
        <ele>388.865231</ele>
        <time>2021-11-14T18:06:02.129Z</time>
      </trkpt>
      <trkpt lat="47.484679" lon="7.986270">
        <ele>390.966513</ele>
        <time>2021-11-14T18:06:33.631Z</time>
      </trkpt>
      <trkpt lat="47.484546" lon="7.985963">
        <ele>391.454660</ele>
        <time>2021-11-14T18:06:40.728Z</time>
      </trkpt>
      <trkpt lat="47.484451" lon="7.985647">
        <ele>391.917629</ele>
        <time>2021-11-14T18:06:47.677Z</time>
      </trkpt>
      <trkpt lat="47.484219" lon="7.985842">
        <ele>392.446138</ele>
        <time>2021-11-14T18:06:55.599Z</time>
      </trkpt>
      <trkpt lat="47.484091" lon="7.985948">
        <ele>392.736686</ele>
        <time>2021-11-14T18:06:59.919Z</time>
      </trkpt>
      <trkpt lat="47.484049" lon="7.985980">
        <ele>392.830261</ele>
        <time>2021-11-14T18:07:01.282Z</time>
      </trkpt>
      <trkpt lat="47.483826" lon="7.986159">
        <ele>393.308027</ele>
        <time>2021-11-14T18:07:08.843Z</time>
      </trkpt>
      <trkpt lat="47.483550" lon="7.986378">
        <ele>393.685745</ele>
        <time>2021-11-14T18:07:17.821Z</time>
      </trkpt>
      <trkpt lat="47.483462" lon="7.986151">
        <ele>393.899047</ele>
        <time>2021-11-14T18:07:21.708Z</time>
      </trkpt>
      <trkpt lat="47.483382" lon="7.985915">
        <ele>394.114247</ele>
        <time>2021-11-14T18:07:25.811Z</time>
      </trkpt>
      <trkpt lat="47.483356" lon="7.985963">
        <ele>394.164387</ele>
        <time>2021-11-14T18:07:26.781Z</time>
      </trkpt>
      <trkpt lat="47.483310" lon="7.986188">
        <ele>394.355987</ele>
        <time>2021-11-14T18:07:30.069Z</time>
      </trkpt>
      <trkpt lat="47.483308" lon="7.986306">
        <ele>394.452196</ele>
        <time>2021-11-14T18:07:31.892Z</time>
      </trkpt>
      <trkpt lat="47.483309" lon="7.986795">
        <ele>394.850771</ele>
        <time>2021-11-14T18:07:38.629Z</time>
      </trkpt>
      <trkpt lat="47.483382" lon="7.988556">
        <ele>394.882766</ele>
        <time>2021-11-14T18:07:54.961Z</time>
      </trkpt>
      <trkpt lat="47.483339" lon="7.989304">
        <ele>394.482516</ele>
        <time>2021-11-14T18:08:00.891Z</time>
      </trkpt>
      <trkpt lat="47.483318" lon="7.989442">
        <ele>394.407097</ele>
        <time>2021-11-14T18:08:01.904Z</time>
      </trkpt>
      <trkpt lat="47.483225" lon="7.989955">
        <ele>394.123911</ele>
        <time>2021-11-14T18:08:06.191Z</time>
      </trkpt>
      <trkpt lat="47.483198" lon="7.990097">
        <ele>394.045262</ele>
        <time>2021-11-14T18:08:07.648Z</time>
      </trkpt>
      <trkpt lat="47.483192" lon="7.990129">
        <ele>394.027556</ele>
        <time>2021-11-14T18:08:07.925Z</time>
      </trkpt>
      <trkpt lat="47.483152" lon="7.990327">
        <ele>394.049426</ele>
        <time>2021-11-14T18:08:09.713Z</time>
      </trkpt>
      <trkpt lat="47.483027" lon="7.990927">
        <ele>394.146354</ele>
        <time>2021-11-14T18:08:15.113Z</time>
      </trkpt>
      <trkpt lat="47.483009" lon="7.990995">
        <ele>394.157629</ele>
        <time>2021-11-14T18:08:15.719Z</time>
      </trkpt>
      <trkpt lat="47.482872" lon="7.991012">
        <ele>394.189034</ele>
        <time>2021-11-14T18:08:18.005Z</time>
      </trkpt>
      <trkpt lat="47.482259" lon="7.991194">
        <ele>394.331855</ele>
        <time>2021-11-14T18:08:27.878Z</time>
      </trkpt>
      <trkpt lat="47.481732" lon="7.991480">
        <ele>394.620022</ele>
        <time>2021-11-14T18:08:39.450Z</time>
      </trkpt>
      <trkpt lat="47.481496" lon="7.991617">
        <ele>394.992615</ele>
        <time>2021-11-14T18:08:45.031Z</time>
      </trkpt>
      <trkpt lat="47.481096" lon="7.991850">
        <ele>395.624417</ele>
        <time>2021-11-14T18:08:53.951Z</time>
      </trkpt>
      <trkpt lat="47.480657" lon="7.991988">
        <ele>396.284024</ele>
        <time>2021-11-14T18:09:03.183Z</time>
      </trkpt>
      <trkpt lat="47.480402" lon="7.991988">
        <ele>396.658802</ele>
        <time>2021-11-14T18:09:08.822Z</time>
      </trkpt>
      <trkpt lat="47.479254" lon="7.991575">
        <ele>398.407684</ele>
        <time>2021-11-14T18:09:32.976Z</time>
      </trkpt>
      <trkpt lat="47.479179" lon="7.991567">
        <ele>398.519244</ele>
        <time>2021-11-14T18:09:34.600Z</time>
      </trkpt>
      <trkpt lat="47.479142" lon="7.991563">
        <ele>398.574284</ele>
        <time>2021-11-14T18:09:35.318Z</time>
      </trkpt>
      <trkpt lat="47.478975" lon="7.991551">
        <ele>398.822339</ele>
        <time>2021-11-14T18:09:38.695Z</time>
      </trkpt>
      <trkpt lat="47.477593" lon="7.991455">
        <ele>401.486850</ele>
        <time>2021-11-14T18:10:07.980Z</time>
      </trkpt>
      <trkpt lat="47.477212" lon="7.991382">
        <ele>402.364841</ele>
        <time>2021-11-14T18:10:16.716Z</time>
      </trkpt>
      <trkpt lat="47.476858" lon="7.991285">
        <ele>403.187615</ele>
        <time>2021-11-14T18:10:25.592Z</time>
      </trkpt>
      <trkpt lat="47.476495" lon="7.991119">
        <ele>404.338261</ele>
        <time>2021-11-14T18:10:36.146Z</time>
      </trkpt>
      <trkpt lat="47.475752" lon="7.990844">
        <ele>408.526115</ele>
        <time>2021-11-14T18:11:01.522Z</time>
      </trkpt>
      <trkpt lat="47.475384" lon="7.990744">
        <ele>410.571965</ele>
        <time>2021-11-14T18:11:15.778Z</time>
      </trkpt>
      <trkpt lat="47.474869" lon="7.990750">
        <ele>413.388026</ele>
        <time>2021-11-14T18:11:37.390Z</time>
      </trkpt>
      <trkpt lat="47.473566" lon="7.991189">
        <ele>422.793560</ele>
        <time>2021-11-14T18:12:39.707Z</time>
      </trkpt>
      <trkpt lat="47.473097" lon="7.991272">
        <ele>426.149749</ele>
        <time>2021-11-14T18:12:58.760Z</time>
      </trkpt>
      <trkpt lat="47.472796" lon="7.991311">
        <ele>427.267967</ele>
        <time>2021-11-14T18:13:09.976Z</time>
      </trkpt>
      <trkpt lat="47.472461" lon="7.991354">
        <ele>428.313117</ele>
        <time>2021-11-14T18:13:20.860Z</time>
      </trkpt>
      <trkpt lat="47.471790" lon="7.991484">
        <ele>430.416508</ele>
        <time>2021-11-14T18:13:38.983Z</time>
      </trkpt>
      <trkpt lat="47.471617" lon="7.991535">
        <ele>430.964794</ele>
        <time>2021-11-14T18:13:42.530Z</time>
      </trkpt>
      <trkpt lat="47.470749" lon="7.991887">
        <ele>432.300092</ele>
        <time>2021-11-14T18:13:57.748Z</time>
      </trkpt>
      <trkpt lat="47.470033" lon="7.992305">
        <ele>432.639271</ele>
        <time>2021-11-14T18:14:09.400Z</time>
      </trkpt>
      <trkpt lat="47.469747" lon="7.992506">
        <ele>432.778794</ele>
        <time>2021-11-14T18:14:14.672Z</time>
      </trkpt>
      <trkpt lat="47.469362" lon="7.992773">
        <ele>433.036646</ele>
        <time>2021-11-14T18:14:22.135Z</time>
      </trkpt>
      <trkpt lat="47.468375" lon="7.993424">
        <ele>433.804625</ele>
        <time>2021-11-14T18:14:41.158Z</time>
      </trkpt>
      <trkpt lat="47.468089" lon="7.993593">
        <ele>434.023489</ele>
        <time>2021-11-14T18:14:46.828Z</time>
      </trkpt>
      <trkpt lat="47.467721" lon="7.993817">
        <ele>434.421678</ele>
        <time>2021-11-14T18:14:54.002Z</time>
      </trkpt>
      <trkpt lat="47.467579" lon="7.993896">
        <ele>434.599804</ele>
        <time>2021-11-14T18:14:56.596Z</time>
      </trkpt>
      <trkpt lat="47.467154" lon="7.994150">
        <ele>435.137990</ele>
        <time>2021-11-14T18:15:05.753Z</time>
      </trkpt>
      <trkpt lat="47.466146" lon="7.994726">
        <ele>436.363154</ele>
        <time>2021-11-14T18:15:27.529Z</time>
      </trkpt>
      <trkpt lat="47.465905" lon="7.994879">
        <ele>436.590025</ele>
        <time>2021-11-14T18:15:32.961Z</time>
      </trkpt>
      <trkpt lat="47.465772" lon="7.994973">
        <ele>436.717537</ele>
        <time>2021-11-14T18:15:36.089Z</time>
      </trkpt>
      <trkpt lat="47.465613" lon="7.995104">
        <ele>436.874979</ele>
        <time>2021-11-14T18:15:39.385Z</time>
      </trkpt>
      <trkpt lat="47.465230" lon="7.995479">
        <ele>437.272307</ele>
        <time>2021-11-14T18:15:47.792Z</time>
      </trkpt>
      <trkpt lat="47.465119" lon="7.995595">
        <ele>437.389876</ele>
        <time>2021-11-14T18:15:50.552Z</time>
      </trkpt>
      <trkpt lat="47.465105" lon="7.995610">
        <ele>437.404830</ele>
        <time>2021-11-14T18:15:50.725Z</time>
      </trkpt>
      <trkpt lat="47.464249" lon="7.996297">
        <ele>437.756848</ele>
        <time>2021-11-14T18:16:06.378Z</time>
      </trkpt>
      <trkpt lat="47.464131" lon="7.996368">
        <ele>437.746992</ele>
        <time>2021-11-14T18:16:08.086Z</time>
      </trkpt>
      <trkpt lat="47.463691" lon="7.996686">
        <ele>437.709103</ele>
        <time>2021-11-14T18:16:14.424Z</time>
      </trkpt>
      <trkpt lat="47.463326" lon="7.997031">
        <ele>437.675590</ele>
        <time>2021-11-14T18:16:20.455Z</time>
      </trkpt>
      <trkpt lat="47.463107" lon="7.997172">
        <ele>437.664180</ele>
        <time>2021-11-14T18:16:23.721Z</time>
      </trkpt>
      <trkpt lat="47.463019" lon="7.997210">
        <ele>437.716680</ele>
        <time>2021-11-14T18:16:25.140Z</time>
      </trkpt>
      <trkpt lat="47.462705" lon="7.997285">
        <ele>437.898833</ele>
        <time>2021-11-14T18:16:30.308Z</time>
      </trkpt>
      <trkpt lat="47.462598" lon="7.997285">
        <ele>437.960110</ele>
        <time>2021-11-14T18:16:32.139Z</time>
      </trkpt>
      <trkpt lat="47.462350" lon="7.997293">
        <ele>438.102170</ele>
        <time>2021-11-14T18:16:36.405Z</time>
      </trkpt>
      <trkpt lat="47.462299" lon="7.997298">
        <ele>438.131441</ele>
        <time>2021-11-14T18:16:37.444Z</time>
      </trkpt>
      <trkpt lat="47.461927" lon="7.997527">
        <ele>438.362194</ele>
        <time>2021-11-14T18:16:44.302Z</time>
      </trkpt>
      <trkpt lat="47.461552" lon="7.997973">
        <ele>438.637767</ele>
        <time>2021-11-14T18:16:52.513Z</time>
      </trkpt>
      <trkpt lat="47.461502" lon="7.997997">
        <ele>438.667871</ele>
        <time>2021-11-14T18:16:53.930Z</time>
      </trkpt>
      <trkpt lat="47.461438" lon="7.998032">
        <ele>438.738573</ele>
        <time>2021-11-14T18:16:55.187Z</time>
      </trkpt>
      <trkpt lat="47.461284" lon="7.998059">
        <ele>438.975684</ele>
        <time>2021-11-14T18:16:58.220Z</time>
      </trkpt>
      <trkpt lat="47.461149" lon="7.998038">
        <ele>439.183235</ele>
        <time>2021-11-14T18:17:01.246Z</time>
      </trkpt>
      <trkpt lat="47.461062" lon="7.998039">
        <ele>439.316260</ele>
        <time>2021-11-14T18:17:02.864Z</time>
      </trkpt>
      <trkpt lat="47.460985" lon="7.998062">
        <ele>439.436368</ele>
        <time>2021-11-14T18:17:04.762Z</time>
      </trkpt>
      <trkpt lat="47.460942" lon="7.998082">
        <ele>439.505288</ele>
        <time>2021-11-14T18:17:05.625Z</time>
      </trkpt>
      <trkpt lat="47.460924" lon="7.998094">
        <ele>439.535476</ele>
        <time>2021-11-14T18:17:05.960Z</time>
      </trkpt>
      <trkpt lat="47.460857" lon="7.998139">
        <ele>439.647985</ele>
        <time>2021-11-14T18:17:07.261Z</time>
      </trkpt>
      <trkpt lat="47.460836" lon="7.998161">
        <ele>439.687332</ele>
        <time>2021-11-14T18:17:08.015Z</time>
      </trkpt>
      <trkpt lat="47.460660" lon="7.998379">
        <ele>440.038330</ele>
        <time>2021-11-14T18:17:12.743Z</time>
      </trkpt>
      <trkpt lat="47.460488" lon="7.998555">
        <ele>440.358114</ele>
        <time>2021-11-14T18:17:17.340Z</time>
      </trkpt>
      <trkpt lat="47.460218" lon="7.998745">
        <ele>440.815281</ele>
        <time>2021-11-14T18:17:23.588Z</time>
      </trkpt>
      <trkpt lat="47.459934" lon="7.998910">
        <ele>441.281810</ele>
        <time>2021-11-14T18:17:29.971Z</time>
      </trkpt>
      <trkpt lat="47.459866" lon="7.998934">
        <ele>441.388700</ele>
        <time>2021-11-14T18:17:31.807Z</time>
      </trkpt>
      <trkpt lat="47.459773" lon="7.998935">
        <ele>441.601607</ele>
        <time>2021-11-14T18:17:33.976Z</time>
      </trkpt>
      <trkpt lat="47.459283" lon="7.998698">
        <ele>442.990435</ele>
        <time>2021-11-14T18:17:45.394Z</time>
      </trkpt>
      <trkpt lat="47.459205" lon="7.998672">
        <ele>443.205834</ele>
        <time>2021-11-14T18:17:47.316Z</time>
      </trkpt>
      <trkpt lat="47.459150" lon="7.998657">
        <ele>443.356499</ele>
        <time>2021-11-14T18:17:48.855Z</time>
      </trkpt>
      <trkpt lat="47.459032" lon="7.998632">
        <ele>443.677631</ele>
        <time>2021-11-14T18:17:51.647Z</time>
      </trkpt>
      <trkpt lat="47.458630" lon="7.998609">
        <ele>444.761411</ele>
        <time>2021-11-14T18:18:01.062Z</time>
      </trkpt>
      <trkpt lat="47.458509" lon="7.998633">
        <ele>445.090298</ele>
        <time>2021-11-14T18:18:04.236Z</time>
      </trkpt>
      <trkpt lat="47.458410" lon="7.998658">
        <ele>445.360859</ele>
        <time>2021-11-14T18:18:08.678Z</time>
      </trkpt>
      <trkpt lat="47.457243" lon="7.999411">
        <ele>449.552431</ele>
        <time>2021-11-14T18:18:46.811Z</time>
      </trkpt>
      <trkpt lat="47.457133" lon="7.999505">
        <ele>449.998627</ele>
        <time>2021-11-14T18:18:51.216Z</time>
      </trkpt>
      <trkpt lat="47.457107" lon="7.999528">
        <ele>450.105033</ele>
        <time>2021-11-14T18:18:53.211Z</time>
      </trkpt>
      <trkpt lat="47.456363" lon="8.000219">
        <ele>453.008388</ele>
        <time>2021-11-14T18:19:14.431Z</time>
      </trkpt>
      <trkpt lat="47.456267" lon="8.000301">
        <ele>453.277449</ele>
        <time>2021-11-14T18:19:18.179Z</time>
      </trkpt>
      <trkpt lat="47.455740" lon="8.000709">
        <ele>454.721140</ele>
        <time>2021-11-14T18:19:33.122Z</time>
      </trkpt>
      <trkpt lat="47.455049" lon="8.001106">
        <ele>456.520317</ele>
        <time>2021-11-14T18:19:49.841Z</time>
      </trkpt>
      <trkpt lat="47.454570" lon="8.001381">
        <ele>457.991012</ele>
        <time>2021-11-14T18:20:02.804Z</time>
      </trkpt>
      <trkpt lat="47.454148" lon="8.001857">
        <ele>459.638617</ele>
        <time>2021-11-14T18:20:16.066Z</time>
      </trkpt>
      <trkpt lat="47.454027" lon="8.002090">
        <ele>460.255315</ele>
        <time>2021-11-14T18:20:21.741Z</time>
      </trkpt>
      <trkpt lat="47.453983" lon="8.002195">
        <ele>460.514617</ele>
        <time>2021-11-14T18:20:24.073Z</time>
      </trkpt>
      <trkpt lat="47.453932" lon="8.002372">
        <ele>460.918491</ele>
        <time>2021-11-14T18:20:27.635Z</time>
      </trkpt>
      <trkpt lat="47.453903" lon="8.002487">
        <ele>461.176132</ele>
        <time>2021-11-14T18:20:30.191Z</time>
      </trkpt>
      <trkpt lat="47.453815" lon="8.002812">
        <ele>461.911017</ele>
        <time>2021-11-14T18:20:37.193Z</time>
      </trkpt>
      <trkpt lat="47.453556" lon="8.003416">
        <ele>463.559503</ele>
        <time>2021-11-14T18:20:52.653Z</time>
      </trkpt>
      <trkpt lat="47.452892" lon="8.004632">
        <ele>467.400208</ele>
        <time>2021-11-14T18:21:24.192Z</time>
      </trkpt>
      <trkpt lat="47.452809" lon="8.004791">
        <ele>467.893799</ele>
        <time>2021-11-14T18:21:28.204Z</time>
      </trkpt>
      <trkpt lat="47.452707" lon="8.004978">
        <ele>468.484181</ele>
        <time>2021-11-14T18:21:32.120Z</time>
      </trkpt>
      <trkpt lat="47.452632" lon="8.005093">
        <ele>468.876790</ele>
        <time>2021-11-14T18:21:35.000Z</time>
      </trkpt>
      <trkpt lat="47.452544" lon="8.005204">
        <ele>469.331759</ele>
        <time>2021-11-14T18:21:38.133Z</time>
      </trkpt>
      <trkpt lat="47.452429" lon="8.005350">
        <ele>469.973001</ele>
        <time>2021-11-14T18:21:41.973Z</time>
      </trkpt>
      <trkpt lat="47.452304" lon="8.005472">
        <ele>470.606646</ele>
        <time>2021-11-14T18:21:46.389Z</time>
      </trkpt>
      <trkpt lat="47.451940" lon="8.005767">
        <ele>472.362762</ele>
        <time>2021-11-14T18:21:58.381Z</time>
      </trkpt>
      <trkpt lat="47.451777" lon="8.005920">
        <ele>473.179574</ele>
        <time>2021-11-14T18:22:04.110Z</time>
      </trkpt>
      <trkpt lat="47.451704" lon="8.006006">
        <ele>473.574446</ele>
        <time>2021-11-14T18:22:07.542Z</time>
      </trkpt>
      <trkpt lat="47.451459" lon="8.006532">
        <ele>475.401745</ele>
        <time>2021-11-14T18:22:22.646Z</time>
      </trkpt>
      <trkpt lat="47.451374" lon="8.006835">
        <ele>476.340247</ele>
        <time>2021-11-14T18:22:30.065Z</time>
      </trkpt>
      <trkpt lat="47.451223" lon="8.007424">
        <ele>478.891075</ele>
        <time>2021-11-14T18:22:45.653Z</time>
      </trkpt>
      <trkpt lat="47.451152" lon="8.007815">
        <ele>480.648832</ele>
        <time>2021-11-14T18:22:56.000Z</time>
      </trkpt>
      <trkpt lat="47.451125" lon="8.007964">
        <ele>481.318574</ele>
        <time>2021-11-14T18:23:00.359Z</time>
      </trkpt>
      <trkpt lat="47.451025" lon="8.008518">
        <ele>483.808115</ele>
        <time>2021-11-14T18:23:15.973Z</time>
      </trkpt>
      <trkpt lat="47.450739" lon="8.010629">
        <ele>494.451341</ele>
        <time>2021-11-14T18:24:20.681Z</time>
      </trkpt>
      <trkpt lat="47.450620" lon="8.012203">
        <ele>503.275336</ele>
        <time>2021-11-14T18:25:11.832Z</time>
      </trkpt>
      <trkpt lat="47.450695" lon="8.012685">
        <ele>507.185106</ele>
        <time>2021-11-14T18:25:30.022Z</time>
      </trkpt>
      <trkpt lat="47.450792" lon="8.012931">
        <ele>509.436178</ele>
        <time>2021-11-14T18:25:40.883Z</time>
      </trkpt>
      <trkpt lat="47.451318" lon="8.013628">
        <ele>517.692434</ele>
        <time>2021-11-14T18:26:26.794Z</time>
      </trkpt>
      <trkpt lat="47.451629" lon="8.014256">
        <ele>523.845564</ele>
        <time>2021-11-14T18:27:02.170Z</time>
      </trkpt>
      <trkpt lat="47.451647" lon="8.014819">
        <ele>528.293643</ele>
        <time>2021-11-14T18:27:29.352Z</time>
      </trkpt>
      <trkpt lat="47.451482" lon="8.015245">
        <ele>532.167990</ele>
        <time>2021-11-14T18:27:49.677Z</time>
      </trkpt>
      <trkpt lat="47.451445" lon="8.015298">
        <ele>532.769163</ele>
        <time>2021-11-14T18:27:55.148Z</time>
      </trkpt>
      <trkpt lat="47.451437" lon="8.015310">
        <ele>532.902150</ele>
        <time>2021-11-14T18:27:56.443Z</time>
      </trkpt>
      <trkpt lat="47.451269" lon="8.015462">
        <ele>535.200656</ele>
        <time>2021-11-14T18:28:05.840Z</time>
      </trkpt>
      <trkpt lat="47.450380" lon="8.015953">
        <ele>545.791851</ele>
        <time>2021-11-14T18:29:01.095Z</time>
      </trkpt>
      <trkpt lat="47.449870" lon="8.016383">
        <ele>550.307578</ele>
        <time>2021-11-14T18:29:28.351Z</time>
      </trkpt>
      <trkpt lat="47.449594" lon="8.016517">
        <ele>552.542051</ele>
        <time>2021-11-14T18:29:39.400Z</time>
      </trkpt>
      <trkpt lat="47.449353" lon="8.016588">
        <ele>554.432242</ele>
        <time>2021-11-14T18:29:50.439Z</time>
      </trkpt>
      <trkpt lat="47.449199" lon="8.016667">
        <ele>555.686055</ele>
        <time>2021-11-14T18:29:57.351Z</time>
      </trkpt>
      <trkpt lat="47.449073" lon="8.016786">
        <ele>556.836046</ele>
        <time>2021-11-14T18:30:03.745Z</time>
      </trkpt>
      <trkpt lat="47.448981" lon="8.016904">
        <ele>557.772810</ele>
        <time>2021-11-14T18:30:09.090Z</time>
      </trkpt>
      <trkpt lat="47.448929" lon="8.016978">
        <ele>558.327923</ele>
        <time>2021-11-14T18:30:12.045Z</time>
      </trkpt>
      <trkpt lat="47.448801" lon="8.017178">
        <ele>559.672077</ele>
        <time>2021-11-14T18:30:20.166Z</time>
      </trkpt>
      <trkpt lat="47.448431" lon="8.017568">
        <ele>562.878714</ele>
        <time>2021-11-14T18:30:39.225Z</time>
      </trkpt>
      <trkpt lat="47.448305" lon="8.017672">
        <ele>563.897069</ele>
        <time>2021-11-14T18:30:46.722Z</time>
      </trkpt>
      <trkpt lat="47.448218" lon="8.017755">
        <ele>564.627739</ele>
        <time>2021-11-14T18:30:50.460Z</time>
      </trkpt>
      <trkpt lat="47.448127" lon="8.017842">
        <ele>565.392480</ele>
        <time>2021-11-14T18:30:55.128Z</time>
      </trkpt>
      <trkpt lat="47.447917" lon="8.018256">
        <ele>567.862347</ele>
        <time>2021-11-14T18:31:10.116Z</time>
      </trkpt>
      <trkpt lat="47.447791" lon="8.018721">
        <ele>570.253091</ele>
        <time>2021-11-14T18:31:25.209Z</time>
      </trkpt>
      <trkpt lat="47.447593" lon="8.019200">
        <ele>572.875570</ele>
        <time>2021-11-14T18:31:40.726Z</time>
      </trkpt>
      <trkpt lat="47.447512" lon="8.019351">
        <ele>573.761653</ele>
        <time>2021-11-14T18:31:47.610Z</time>
      </trkpt>
      <trkpt lat="47.447432" lon="8.019478">
        <ele>574.559578</ele>
        <time>2021-11-14T18:31:51.540Z</time>
      </trkpt>
      <trkpt lat="47.446940" lon="8.020031">
        <ele>578.760866</ele>
        <time>2021-11-14T18:32:17.267Z</time>
      </trkpt>
      <trkpt lat="47.446778" lon="8.020358">
        <ele>580.624464</ele>
        <time>2021-11-14T18:32:28.241Z</time>
      </trkpt>
      <trkpt lat="47.446723" lon="8.020643">
        <ele>581.987045</ele>
        <time>2021-11-14T18:32:36.754Z</time>
      </trkpt>
      <trkpt lat="47.446606" lon="8.022220">
        <ele>588.905490</ele>
        <time>2021-11-14T18:33:22.793Z</time>
      </trkpt>
      <trkpt lat="47.446477" lon="8.022664">
        <ele>590.980100</ele>
        <time>2021-11-14T18:33:36.736Z</time>
      </trkpt>
      <trkpt lat="47.446349" lon="8.022919">
        <ele>592.343454</ele>
        <time>2021-11-14T18:33:45.559Z</time>
      </trkpt>
      <trkpt lat="47.446154" lon="8.023202">
        <ele>594.077957</ele>
        <time>2021-11-14T18:33:56.101Z</time>
      </trkpt>
      <trkpt lat="47.445885" lon="8.023440">
        <ele>595.562001</ele>
        <time>2021-11-14T18:34:07.039Z</time>
      </trkpt>
      <trkpt lat="47.445182" lon="8.023668">
        <ele>597.902976</ele>
        <time>2021-11-14T18:34:27.495Z</time>
      </trkpt>
      <trkpt lat="47.445020" lon="8.023772">
        <ele>598.477427</ele>
        <time>2021-11-14T18:34:31.663Z</time>
      </trkpt>
      <trkpt lat="47.444482" lon="8.024455">
        <ele>600.783852</ele>
        <time>2021-11-14T18:34:48.149Z</time>
      </trkpt>
      <trkpt lat="47.444181" lon="8.025029">
        <ele>603.251003</ele>
        <time>2021-11-14T18:35:00.946Z</time>
      </trkpt>
      <trkpt lat="47.444086" lon="8.025459">
        <ele>604.822504</ele>
        <time>2021-11-14T18:35:09.817Z</time>
      </trkpt>
      <trkpt lat="47.444094" lon="8.025849">
        <ele>606.177985</ele>
        <time>2021-11-14T18:35:18.243Z</time>
      </trkpt>
      <trkpt lat="47.444190" lon="8.026300">
        <ele>607.820525</ele>
        <time>2021-11-14T18:35:29.508Z</time>
      </trkpt>
      <trkpt lat="47.444535" lon="8.027371">
        <ele>613.841061</ele>
        <time>2021-11-14T18:36:09.822Z</time>
      </trkpt>
      <trkpt lat="47.444596" lon="8.027836">
        <ele>617.202132</ele>
        <time>2021-11-14T18:36:27.762Z</time>
      </trkpt>
      <trkpt lat="47.444512" lon="8.028362">
        <ele>621.037196</ele>
        <time>2021-11-14T18:36:50.224Z</time>
      </trkpt>
      <trkpt lat="47.444390" lon="8.028577">
        <ele>623.028676</ele>
        <time>2021-11-14T18:37:04.059Z</time>
      </trkpt>
      <trkpt lat="47.444252" lon="8.028702">
        <ele>624.726673</ele>
        <time>2021-11-14T18:37:11.256Z</time>
      </trkpt>
      <trkpt lat="47.444200" lon="8.028735">
        <ele>625.320391</ele>
        <time>2021-11-14T18:37:16.563Z</time>
      </trkpt>
      <trkpt lat="47.444130" lon="8.028762">
        <ele>626.079418</ele>
        <time>2021-11-14T18:37:19.848Z</time>
      </trkpt>
      <trkpt lat="47.444103" lon="8.028769">
        <ele>626.367027</ele>
        <time>2021-11-14T18:37:21.301Z</time>
      </trkpt>
      <trkpt lat="47.444082" lon="8.028771">
        <ele>626.587818</ele>
        <time>2021-11-14T18:37:23.557Z</time>
      </trkpt>
      <trkpt lat="47.443829" lon="8.028756">
        <ele>629.186880</ele>
        <time>2021-11-14T18:37:37.183Z</time>
      </trkpt>
      <trkpt lat="47.443354" lon="8.028536">
        <ele>633.221216</ele>
        <time>2021-11-14T18:38:05.737Z</time>
      </trkpt>
      <trkpt lat="47.442237" lon="8.027604">
        <ele>643.597281</ele>
        <time>2021-11-14T18:39:02.582Z</time>
      </trkpt>
      <trkpt lat="47.441755" lon="8.027353">
        <ele>646.046399</ele>
        <time>2021-11-14T18:39:19.114Z</time>
      </trkpt>
      <trkpt lat="47.441109" lon="8.027297">
        <ele>649.147734</ele>
        <time>2021-11-14T18:39:39.969Z</time>
      </trkpt>
      <trkpt lat="47.440647" lon="8.027439">
        <ele>651.409251</ele>
        <time>2021-11-14T18:39:55.273Z</time>
      </trkpt>
      <trkpt lat="47.440263" lon="8.027666">
        <ele>653.439251</ele>
        <time>2021-11-14T18:40:09.073Z</time>
      </trkpt>
      <trkpt lat="47.439363" lon="8.028350">
        <ele>658.482787</ele>
        <time>2021-11-14T18:40:43.474Z</time>
      </trkpt>
      <trkpt lat="47.439279" lon="8.028420">
        <ele>658.963366</ele>
        <time>2021-11-14T18:40:47.146Z</time>
      </trkpt>
      <trkpt lat="47.438761" lon="8.028824">
        <ele>662.008374</ele>
        <time>2021-11-14T18:41:08.227Z</time>
      </trkpt>
      <trkpt lat="47.437975" lon="8.029310">
        <ele>666.989833</ele>
        <time>2021-11-14T18:41:41.499Z</time>
      </trkpt>
      <trkpt lat="47.436857" lon="8.029750">
        <ele>671.646907</ele>
        <time>2021-11-14T18:42:27.360Z</time>
      </trkpt>
      <trkpt lat="47.436763" lon="8.029782">
        <ele>671.640474</ele>
        <time>2021-11-14T18:42:30.651Z</time>
      </trkpt>
      <trkpt lat="47.436700" lon="8.029803">
        <ele>671.636167</ele>
        <time>2021-11-14T18:42:32.931Z</time>
      </trkpt>
      <trkpt lat="47.436042" lon="8.030035">
        <ele>671.591054</ele>
        <time>2021-11-14T18:42:46.444Z</time>
      </trkpt>
      <trkpt lat="47.435896" lon="8.030060">
        <ele>671.581252</ele>
        <time>2021-11-14T18:42:48.755Z</time>
      </trkpt>
      <trkpt lat="47.435481" lon="8.030087">
        <ele>671.553548</ele>
        <time>2021-11-14T18:42:52.505Z</time>
      </trkpt>
      <trkpt lat="47.435436" lon="8.030087">
        <ele>671.516236</ele>
        <time>2021-11-14T18:42:52.970Z</time>
      </trkpt>
      <trkpt lat="47.434990" lon="8.030088">
        <ele>665.618421</ele>
        <time>2021-11-14T18:42:56.820Z</time>
      </trkpt>
      <trkpt lat="47.434275" lon="8.030088">
        <ele>656.163416</ele>
        <time>2021-11-14T18:43:02.810Z</time>
      </trkpt>
      <trkpt lat="47.434167" lon="8.030147">
        <ele>654.640854</ele>
        <time>2021-11-14T18:43:03.753Z</time>
      </trkpt>
      <trkpt lat="47.434108" lon="8.030185">
        <ele>653.789821</ele>
        <time>2021-11-14T18:43:04.283Z</time>
      </trkpt>
      <trkpt lat="47.433829" lon="8.030548">
        <ele>648.875008</ele>
        <time>2021-11-14T18:43:07.346Z</time>
      </trkpt>
      <trkpt lat="47.433660" lon="8.031143">
        <ele>642.459151</ele>
        <time>2021-11-14T18:43:10.970Z</time>
      </trkpt>
      <trkpt lat="47.433547" lon="8.032532">
        <ele>628.218338</ele>
        <time>2021-11-14T18:43:18.773Z</time>
      </trkpt>
      <trkpt lat="47.433630" lon="8.033110">
        <ele>622.203641</ele>
        <time>2021-11-14T18:43:22.172Z</time>
      </trkpt>
      <trkpt lat="47.433692" lon="8.033363">
        <ele>619.825492</ele>
        <time>2021-11-14T18:43:23.737Z</time>
      </trkpt>
      <trkpt lat="47.433704" lon="8.033446">
        <ele>619.214035</ele>
        <time>2021-11-14T18:43:24.203Z</time>
      </trkpt>
      <trkpt lat="47.433695" lon="8.033652">
        <ele>617.726869</ele>
        <time>2021-11-14T18:43:25.421Z</time>
      </trkpt>
      <trkpt lat="47.433621" lon="8.033768">
        <ele>616.578172</ele>
        <time>2021-11-14T18:43:26.350Z</time>
      </trkpt>
      <trkpt lat="47.433485" lon="8.033776">
        <ele>615.128601</ele>
        <time>2021-11-14T18:43:27.485Z</time>
      </trkpt>
      <trkpt lat="47.433381" lon="8.033653">
        <ele>613.710137</ele>
        <time>2021-11-14T18:43:28.650Z</time>
      </trkpt>
      <trkpt lat="47.432764" lon="8.031627">
        <ele>597.339281</ele>
        <time>2021-11-14T18:43:41.599Z</time>
      </trkpt>
      <trkpt lat="47.432675" lon="8.031189">
        <ele>593.732285</ele>
        <time>2021-11-14T18:43:44.243Z</time>
      </trkpt>
      <trkpt lat="47.432631" lon="8.030656">
        <ele>589.497316</ele>
        <time>2021-11-14T18:43:47.320Z</time>
      </trkpt>
      <trkpt lat="47.432542" lon="8.030469">
        <ele>587.693976</ele>
        <time>2021-11-14T18:43:48.638Z</time>
      </trkpt>
      <trkpt lat="47.432467" lon="8.030406">
        <ele>586.688215</ele>
        <time>2021-11-14T18:43:49.378Z</time>
      </trkpt>
      <trkpt lat="47.432409" lon="8.030404">
        <ele>586.011791</ele>
        <time>2021-11-14T18:43:49.852Z</time>
      </trkpt>
      <trkpt lat="47.432234" lon="8.030524">
        <ele>583.762587</ele>
        <time>2021-11-14T18:43:51.481Z</time>
      </trkpt>
      <trkpt lat="47.432157" lon="8.030749">
        <ele>581.773825</ele>
        <time>2021-11-14T18:43:52.913Z</time>
      </trkpt>
      <trkpt lat="47.432133" lon="8.030906">
        <ele>580.491779</ele>
        <time>2021-11-14T18:43:53.819Z</time>
      </trkpt>
      <trkpt lat="47.432025" lon="8.031663">
        <ele>573.271955</ele>
        <time>2021-11-14T18:43:58.213Z</time>
      </trkpt>
      <trkpt lat="47.431924" lon="8.032307">
        <ele>567.102650</ele>
        <time>2021-11-14T18:44:01.921Z</time>
      </trkpt>
      <trkpt lat="47.431773" lon="8.032676">
        <ele>563.078033</ele>
        <time>2021-11-14T18:44:04.344Z</time>
      </trkpt>
      <trkpt lat="47.430470" lon="8.034052">
        <ele>543.208096</ele>
        <time>2021-11-14T18:44:17.815Z</time>
      </trkpt>
      <trkpt lat="47.430169" lon="8.034362">
        <ele>538.908140</ele>
        <time>2021-11-14T18:44:20.946Z</time>
      </trkpt>
      <trkpt lat="47.430089" lon="8.034453">
        <ele>537.724949</ele>
        <time>2021-11-14T18:44:21.818Z</time>
      </trkpt>
      <trkpt lat="47.429784" lon="8.034795">
        <ele>533.893091</ele>
        <time>2021-11-14T18:44:25.112Z</time>
      </trkpt>
      <trkpt lat="47.429735" lon="8.034851">
        <ele>533.497587</ele>
        <time>2021-11-14T18:44:25.644Z</time>
      </trkpt>
      <trkpt lat="47.429183" lon="8.035457">
        <ele>529.106958</ele>
        <time>2021-11-14T18:44:31.694Z</time>
      </trkpt>
      <trkpt lat="47.429108" lon="8.035534">
        <ele>528.523856</ele>
        <time>2021-11-14T18:44:32.495Z</time>
      </trkpt>
      <trkpt lat="47.428937" lon="8.035687">
        <ele>527.247465</ele>
        <time>2021-11-14T18:44:34.456Z</time>
      </trkpt>
      <trkpt lat="47.428589" lon="8.035948">
        <ele>524.755602</ele>
        <time>2021-11-14T18:44:38.456Z</time>
      </trkpt>
      <trkpt lat="47.428425" lon="8.036042">
        <ele>523.632390</ele>
        <time>2021-11-14T18:44:40.166Z</time>
      </trkpt>
      <trkpt lat="47.428173" lon="8.036125">
        <ele>522.426096</ele>
        <time>2021-11-14T18:44:42.768Z</time>
      </trkpt>
      <trkpt lat="47.428073" lon="8.036147">
        <ele>522.016873</ele>
        <time>2021-11-14T18:44:43.755Z</time>
      </trkpt>
      <trkpt lat="47.427488" lon="8.036131">
        <ele>519.648596</ele>
        <time>2021-11-14T18:44:49.898Z</time>
      </trkpt>
      <trkpt lat="47.427288" lon="8.036127">
        <ele>518.838993</ele>
        <time>2021-11-14T18:44:51.755Z</time>
      </trkpt>
      <trkpt lat="47.426959" lon="8.036087">
        <ele>517.502820</ele>
        <time>2021-11-14T18:44:54.959Z</time>
      </trkpt>
      <trkpt lat="47.426739" lon="8.036025">
        <ele>516.596298</ele>
        <time>2021-11-14T18:44:57.228Z</time>
      </trkpt>
      <trkpt lat="47.426081" lon="8.035824">
        <ele>511.346353</ele>
        <time>2021-11-14T18:45:03.432Z</time>
      </trkpt>
      <trkpt lat="47.426010" lon="8.035820">
        <ele>510.701166</ele>
        <time>2021-11-14T18:45:04.029Z</time>
      </trkpt>
      <trkpt lat="47.425906" lon="8.035815">
        <ele>509.756290</ele>
        <time>2021-11-14T18:45:04.976Z</time>
      </trkpt>
      <trkpt lat="47.425277" lon="8.035886">
        <ele>504.027996</ele>
        <time>2021-11-14T18:45:10.375Z</time>
      </trkpt>
      <trkpt lat="47.425112" lon="8.035869">
        <ele>502.526070</ele>
        <time>2021-11-14T18:45:11.812Z</time>
      </trkpt>
      <trkpt lat="47.425031" lon="8.035847">
        <ele>501.778231</ele>
        <time>2021-11-14T18:45:12.524Z</time>
      </trkpt>
      <trkpt lat="47.424864" lon="8.035811">
        <ele>500.245737</ele>
        <time>2021-11-14T18:45:13.945Z</time>
      </trkpt>
      <trkpt lat="47.424719" lon="8.035799">
        <ele>498.709955</ele>
        <time>2021-11-14T18:45:15.189Z</time>
      </trkpt>
      <trkpt lat="47.424613" lon="8.035824">
        <ele>497.410764</ele>
        <time>2021-11-14T18:45:16.082Z</time>
      </trkpt>
      <trkpt lat="47.424388" lon="8.035926">
        <ele>494.562288</ele>
        <time>2021-11-14T18:45:18.061Z</time>
      </trkpt>
      <trkpt lat="47.424082" lon="8.036169">
        <ele>490.357944</ele>
        <time>2021-11-14T18:45:21.012Z</time>
      </trkpt>
      <trkpt lat="47.423560" lon="8.036763">
        <ele>482.384442</ele>
        <time>2021-11-14T18:45:26.567Z</time>
      </trkpt>
      <trkpt lat="47.423448" lon="8.036933">
        <ele>480.441363</ele>
        <time>2021-11-14T18:45:27.912Z</time>
      </trkpt>
      <trkpt lat="47.423244" lon="8.037267">
        <ele>476.821832</ele>
        <time>2021-11-14T18:45:30.491Z</time>
      </trkpt>
      <trkpt lat="47.422905" lon="8.037963">
        <ele>470.233936</ele>
        <time>2021-11-14T18:45:35.425Z</time>
      </trkpt>
      <trkpt lat="47.422868" lon="8.038042">
        <ele>469.495852</ele>
        <time>2021-11-14T18:45:35.956Z</time>
      </trkpt>
      <trkpt lat="47.422730" lon="8.038382">
        <ele>466.450085</ele>
        <time>2021-11-14T18:45:38.241Z</time>
      </trkpt>
      <trkpt lat="47.422474" lon="8.038973">
        <ele>461.059350</ele>
        <time>2021-11-14T18:45:42.261Z</time>
      </trkpt>
      <trkpt lat="47.422435" lon="8.039041">
        <ele>460.374553</ele>
        <time>2021-11-14T18:45:42.776Z</time>
      </trkpt>
      <trkpt lat="47.422173" lon="8.039494">
        <ele>456.213471</ele>
        <time>2021-11-14T18:45:46.278Z</time>
      </trkpt>
      <trkpt lat="47.422065" lon="8.039680">
        <ele>454.824060</ele>
        <time>2021-11-14T18:45:47.727Z</time>
      </trkpt>
      <trkpt lat="47.421926" lon="8.039862">
        <ele>453.268214</ele>
        <time>2021-11-14T18:45:49.315Z</time>
      </trkpt>
      <trkpt lat="47.421857" lon="8.039952">
        <ele>452.497183</ele>
        <time>2021-11-14T18:45:50.125Z</time>
      </trkpt>
      <trkpt lat="47.421614" lon="8.040268">
        <ele>449.785397</ele>
        <time>2021-11-14T18:45:52.990Z</time>
      </trkpt>
      <trkpt lat="47.421515" lon="8.040542">
        <ele>448.024567</ele>
        <time>2021-11-14T18:45:54.834Z</time>
      </trkpt>
      <trkpt lat="47.421369" lon="8.040943">
        <ele>445.443175</ele>
        <time>2021-11-14T18:45:57.526Z</time>
      </trkpt>
      <trkpt lat="47.421212" lon="8.041305">
        <ele>443.005690</ele>
        <time>2021-11-14T18:46:00.154Z</time>
      </trkpt>
      <trkpt lat="47.421194" lon="8.041345">
        <ele>442.733367</ele>
        <time>2021-11-14T18:46:00.422Z</time>
      </trkpt>
      <trkpt lat="47.421132" lon="8.041487">
        <ele>441.941023</ele>
        <time>2021-11-14T18:46:01.495Z</time>
      </trkpt>
      <trkpt lat="47.420713" lon="8.042016">
        <ele>438.733489</ele>
        <time>2021-11-14T18:46:06.559Z</time>
      </trkpt>
      <trkpt lat="47.420686" lon="8.042054">
        <ele>438.516476</ele>
        <time>2021-11-14T18:46:06.873Z</time>
      </trkpt>
      <trkpt lat="47.420610" lon="8.042144">
        <ele>437.949624</ele>
        <time>2021-11-14T18:46:07.761Z</time>
      </trkpt>
      <trkpt lat="47.420398" lon="8.042394">
        <ele>436.370993</ele>
        <time>2021-11-14T18:46:10.251Z</time>
      </trkpt>
      <trkpt lat="47.420118" lon="8.042829">
        <ele>434.006439</ele>
        <time>2021-11-14T18:46:14.040Z</time>
      </trkpt>
      <trkpt lat="47.420109" lon="8.042846">
        <ele>433.921429</ele>
        <time>2021-11-14T18:46:14.180Z</time>
      </trkpt>
      <trkpt lat="47.419963" lon="8.043060">
        <ele>432.724559</ele>
        <time>2021-11-14T18:46:16.231Z</time>
      </trkpt>
      <trkpt lat="47.419839" lon="8.043244">
        <ele>431.751611</ele>
        <time>2021-11-14T18:46:17.859Z</time>
      </trkpt>
      <trkpt lat="47.419549" lon="8.043696">
        <ele>430.129576</ele>
        <time>2021-11-14T18:46:21.869Z</time>
      </trkpt>
      <trkpt lat="47.419418" lon="8.043891">
        <ele>429.414018</ele>
        <time>2021-11-14T18:46:23.661Z</time>
      </trkpt>
      <trkpt lat="47.419290" lon="8.044087">
        <ele>428.704675</ele>
        <time>2021-11-14T18:46:25.445Z</time>
      </trkpt>
      <trkpt lat="47.419003" lon="8.044708">
        <ele>426.746349</ele>
        <time>2021-11-14T18:46:30.556Z</time>
      </trkpt>
      <trkpt lat="47.418931" lon="8.044951">
        <ele>426.055553</ele>
        <time>2021-11-14T18:46:32.322Z</time>
      </trkpt>
      <trkpt lat="47.418751" lon="8.045723">
        <ele>424.679099</ele>
        <time>2021-11-14T18:46:37.949Z</time>
      </trkpt>
      <trkpt lat="47.418700" lon="8.045929">
        <ele>424.537320</ele>
        <time>2021-11-14T18:46:39.439Z</time>
      </trkpt>
      <trkpt lat="47.418443" lon="8.046572">
        <ele>424.054629</ele>
        <time>2021-11-14T18:46:45.170Z</time>
      </trkpt>
      <trkpt lat="47.418416" lon="8.046623">
        <ele>424.012774</ele>
        <time>2021-11-14T18:46:45.629Z</time>
      </trkpt>
      <trkpt lat="47.418380" lon="8.046691">
        <ele>423.956968</ele>
        <time>2021-11-14T18:46:46.238Z</time>
      </trkpt>
      <trkpt lat="47.418150" lon="8.046912">
        <ele>423.694912</ele>
        <time>2021-11-14T18:46:49.822Z</time>
      </trkpt>
      <trkpt lat="47.418081" lon="8.046958">
        <ele>423.622605</ele>
        <time>2021-11-14T18:46:50.730Z</time>
      </trkpt>
      <trkpt lat="47.417974" lon="8.047018">
        <ele>423.513285</ele>
        <time>2021-11-14T18:46:52.615Z</time>
      </trkpt>
      <trkpt lat="47.417855" lon="8.047064">
        <ele>423.395789</ele>
        <time>2021-11-14T18:46:55.373Z</time>
      </trkpt>
      <trkpt lat="47.417795" lon="8.047088">
        <ele>423.336412</ele>
        <time>2021-11-14T18:46:56.517Z</time>
      </trkpt>
      <trkpt lat="47.417655" lon="8.047116">
        <ele>423.243628</ele>
        <time>2021-11-14T18:46:59.386Z</time>
      </trkpt>
      <trkpt lat="47.417615" lon="8.047155">
        <ele>423.469954</ele>
        <time>2021-11-14T18:47:00.508Z</time>
      </trkpt>
      <trkpt lat="47.417590" lon="8.047205">
        <ele>423.668634</ele>
        <time>2021-11-14T18:47:01.391Z</time>
      </trkpt>
      <trkpt lat="47.417594" lon="8.047260">
        <ele>423.845414</ele>
        <time>2021-11-14T18:47:02.931Z</time>
      </trkpt>
      <trkpt lat="47.417617" lon="8.047332">
        <ele>424.099861</ele>
        <time>2021-11-14T18:47:04.325Z</time>
      </trkpt>
      <trkpt lat="47.418123" lon="8.047882">
        <ele>427.066430</ele>
        <time>2021-11-14T18:47:22.297Z</time>
      </trkpt>
      <trkpt lat="47.418193" lon="8.047958">
        <ele>427.476659</ele>
        <time>2021-11-14T18:47:25.732Z</time>
      </trkpt>
      <trkpt lat="47.418393" lon="8.048179">
        <ele>428.656082</ele>
        <time>2021-11-14T18:47:34.855Z</time>
      </trkpt>
      <trkpt lat="47.418715" lon="8.048536">
        <ele>430.557229</ele>
        <time>2021-11-14T18:47:51.404Z</time>
      </trkpt>
      <trkpt lat="47.419429" lon="8.049326">
        <ele>435.549088</ele>
        <time>2021-11-14T18:48:30.029Z</time>
      </trkpt>
      <trkpt lat="47.419619" lon="8.049537">
        <ele>436.956840</ele>
        <time>2021-11-14T18:48:40.357Z</time>
      </trkpt>
      <trkpt lat="47.420012" lon="8.049972">
        <ele>439.865203</ele>
        <time>2021-11-14T18:48:58.565Z</time>
      </trkpt>
      <trkpt lat="47.420508" lon="8.050508">
        <ele>443.083793</ele>
        <time>2021-11-14T18:49:18.579Z</time>
      </trkpt>
      <trkpt lat="47.420568" lon="8.050577">
        <ele>443.368876</ele>
        <time>2021-11-14T18:49:20.779Z</time>
      </trkpt>
      <trkpt lat="47.421406" lon="8.051509">
        <ele>447.301646</ele>
        <time>2021-11-14T18:49:51.412Z</time>
      </trkpt>
      <trkpt lat="47.421741" lon="8.051883">
        <ele>448.875982</ele>
        <time>2021-11-14T18:50:03.810Z</time>
      </trkpt>
      <trkpt lat="47.421847" lon="8.051993">
        <ele>449.503173</ele>
        <time>2021-11-14T18:50:07.083Z</time>
      </trkpt>
      <trkpt lat="47.421955" lon="8.052114">
        <ele>450.288542</ele>
        <time>2021-11-14T18:50:11.079Z</time>
      </trkpt>
      <trkpt lat="47.422217" lon="8.052415">
        <ele>452.211604</ele>
        <time>2021-11-14T18:50:20.226Z</time>
      </trkpt>
      <trkpt lat="47.422377" lon="8.052651">
        <ele>453.521559</ele>
        <time>2021-11-14T18:50:27.089Z</time>
      </trkpt>
      <trkpt lat="47.422431" lon="8.052751">
        <ele>454.023220</ele>
        <time>2021-11-14T18:50:31.008Z</time>
      </trkpt>
      <trkpt lat="47.422513" lon="8.052957">
        <ele>454.960345</ele>
        <time>2021-11-14T18:50:35.618Z</time>
      </trkpt>
      <trkpt lat="47.422643" lon="8.053514">
        <ele>457.270571</ele>
        <time>2021-11-14T18:50:52.795Z</time>
      </trkpt>
      <trkpt lat="47.422615" lon="8.054334">
        <ele>461.444849</ele>
        <time>2021-11-14T18:51:20.463Z</time>
      </trkpt>
      <trkpt lat="47.422615" lon="8.054564">
        <ele>463.239879</ele>
        <time>2021-11-14T18:51:28.206Z</time>
      </trkpt>
      <trkpt lat="47.422640" lon="8.054788">
        <ele>465.011706</ele>
        <time>2021-11-14T18:51:37.269Z</time>
      </trkpt>
      <trkpt lat="47.422843" lon="8.055226">
        <ele>469.155175</ele>
        <time>2021-11-14T18:51:58.768Z</time>
      </trkpt>
      <trkpt lat="47.422879" lon="8.055332">
        <ele>470.080821</ele>
        <time>2021-11-14T18:52:03.948Z</time>
      </trkpt>
      <trkpt lat="47.422870" lon="8.055395">
        <ele>470.583341</ele>
        <time>2021-11-14T18:52:06.487Z</time>
      </trkpt>
      <trkpt lat="47.422875" lon="8.055459">
        <ele>471.086144</ele>
        <time>2021-11-14T18:52:08.385Z</time>
      </trkpt>
      <trkpt lat="47.422895" lon="8.055516">
        <ele>471.587260</ele>
        <time>2021-11-14T18:52:11.511Z</time>
      </trkpt>
      <trkpt lat="47.422925" lon="8.055556">
        <ele>472.053315</ele>
        <time>2021-11-14T18:52:14.482Z</time>
      </trkpt>
      <trkpt lat="47.423040" lon="8.055573">
        <ele>473.386469</ele>
        <time>2021-11-14T18:52:21.754Z</time>
      </trkpt>
      <trkpt lat="47.423116" lon="8.055382">
        <ele>475.115792</ele>
        <time>2021-11-14T18:52:31.222Z</time>
      </trkpt>
      <trkpt lat="47.423105" lon="8.055325">
        <ele>475.578385</ele>
        <time>2021-11-14T18:52:34.251Z</time>
      </trkpt>
      <trkpt lat="47.423711" lon="8.055037">
        <ele>482.995496</ele>
        <time>2021-11-14T18:53:20.442Z</time>
      </trkpt>
      <trkpt lat="47.423952" lon="8.054902">
        <ele>486.051905</ele>
        <time>2021-11-14T18:53:37.243Z</time>
      </trkpt>
      <trkpt lat="47.424368" lon="8.054668">
        <ele>491.330460</ele>
        <time>2021-11-14T18:54:06.587Z</time>
      </trkpt>
      <trkpt lat="47.424669" lon="8.054420">
        <ele>495.417172</ele>
        <time>2021-11-14T18:54:26.955Z</time>
      </trkpt>
      <trkpt lat="47.424943" lon="8.054141">
        <ele>499.362987</ele>
        <time>2021-11-14T18:54:46.746Z</time>
      </trkpt>
      <trkpt lat="47.425153" lon="8.053972">
        <ele>502.011942</ele>
        <time>2021-11-14T18:55:00.045Z</time>
      </trkpt>
      <trkpt lat="47.425386" lon="8.053857">
        <ele>504.011636</ele>
        <time>2021-11-14T18:55:13.215Z</time>
      </trkpt>
      <trkpt lat="47.425993" lon="8.053794">
        <ele>508.965100</ele>
        <time>2021-11-14T18:55:41.549Z</time>
      </trkpt>
      <trkpt lat="47.426076" lon="8.053783">
        <ele>509.643474</ele>
        <time>2021-11-14T18:55:45.944Z</time>
      </trkpt>
      <trkpt lat="47.426253" lon="8.053723">
        <ele>511.121752</ele>
        <time>2021-11-14T18:55:52.969Z</time>
      </trkpt>
      <trkpt lat="47.427063" lon="8.053089">
        <ele>518.235546</ele>
        <time>2021-11-14T18:56:33.598Z</time>
      </trkpt>
      <trkpt lat="47.427251" lon="8.053032">
        <ele>519.565635</ele>
        <time>2021-11-14T18:56:41.794Z</time>
      </trkpt>
      <trkpt lat="47.428009" lon="8.053094">
        <ele>524.827104</ele>
        <time>2021-11-14T18:57:15.056Z</time>
      </trkpt>
      <trkpt lat="47.428920" lon="8.053075">
        <ele>530.939468</ele>
        <time>2021-11-14T18:57:50.773Z</time>
      </trkpt>
      <trkpt lat="47.428995" lon="8.053069">
        <ele>531.416746</ele>
        <time>2021-11-14T18:57:55.770Z</time>
      </trkpt>
      <trkpt lat="47.429301" lon="8.053034">
        <ele>533.367008</ele>
        <time>2021-11-14T18:58:07.020Z</time>
      </trkpt>
      <trkpt lat="47.429398" lon="8.053003">
        <ele>533.997627</ele>
        <time>2021-11-14T18:58:13.297Z</time>
      </trkpt>
      <trkpt lat="47.429874" lon="8.052772">
        <ele>537.181158</ele>
        <time>2021-11-14T18:58:31.925Z</time>
      </trkpt>
      <trkpt lat="47.429977" lon="8.052686">
        <ele>537.932853</ele>
        <time>2021-11-14T18:58:35.971Z</time>
      </trkpt>
      <trkpt lat="47.430068" lon="8.052606">
        <ele>538.605637</ele>
        <time>2021-11-14T18:58:42.448Z</time>
      </trkpt>
      <trkpt lat="47.430875" lon="8.051671">
        <ele>544.564831</ele>
        <time>2021-11-14T18:59:18.099Z</time>
      </trkpt>
      <trkpt lat="47.431259" lon="8.051470">
        <ele>546.864300</ele>
        <time>2021-11-14T18:59:35.355Z</time>
      </trkpt>
      <trkpt lat="47.431340" lon="8.051455">
        <ele>547.325100</ele>
        <time>2021-11-14T18:59:39.130Z</time>
      </trkpt>
      <trkpt lat="47.431460" lon="8.051423">
        <ele>548.013406</ele>
        <time>2021-11-14T18:59:42.630Z</time>
      </trkpt>
      <trkpt lat="47.431625" lon="8.051403">
        <ele>548.947919</ele>
        <time>2021-11-14T18:59:47.943Z</time>
      </trkpt>
      <trkpt lat="47.431736" lon="8.051401">
        <ele>549.574535</ele>
        <time>2021-11-14T18:59:52.350Z</time>
      </trkpt>
      <trkpt lat="47.432266" lon="8.051392">
        <ele>553.189402</ele>
        <time>2021-11-14T19:00:11.004Z</time>
      </trkpt>
      <trkpt lat="47.432475" lon="8.051388">
        <ele>554.692579</ele>
        <time>2021-11-14T19:00:20.938Z</time>
      </trkpt>
      <trkpt lat="47.432929" lon="8.051465">
        <ele>557.978996</ele>
        <time>2021-11-14T19:00:39.277Z</time>
      </trkpt>
      <trkpt lat="47.433090" lon="8.051571">
        <ele>559.246487</ele>
        <time>2021-11-14T19:00:47.479Z</time>
      </trkpt>
      <trkpt lat="47.433326" lon="8.051878">
        <ele>561.507254</ele>
        <time>2021-11-14T19:01:00.994Z</time>
      </trkpt>
      <trkpt lat="47.433349" lon="8.051934">
        <ele>561.825964</ele>
        <time>2021-11-14T19:01:04.635Z</time>
      </trkpt>
      <trkpt lat="47.433423" lon="8.052113">
        <ele>562.846499</ele>
        <time>2021-11-14T19:01:11.914Z</time>
      </trkpt>
      <trkpt lat="47.433470" lon="8.052350">
        <ele>564.498751</ele>
        <time>2021-11-14T19:01:19.443Z</time>
      </trkpt>
      <trkpt lat="47.433500" lon="8.052504">
        <ele>565.707177</ele>
        <time>2021-11-14T19:01:26.905Z</time>
      </trkpt>
      <trkpt lat="47.433503" lon="8.052851">
        <ele>568.323932</ele>
        <time>2021-11-14T19:01:38.398Z</time>
      </trkpt>
      <trkpt lat="47.433537" lon="8.055038">
        <ele>584.980374</ele>
        <time>2021-11-14T19:03:10.855Z</time>
      </trkpt>
      <trkpt lat="47.433514" lon="8.055631">
        <ele>589.927413</ele>
        <time>2021-11-14T19:03:37.395Z</time>
      </trkpt>
      <trkpt lat="47.433469" lon="8.056182">
        <ele>594.549863</ele>
        <time>2021-11-14T19:04:01.815Z</time>
      </trkpt>
      <trkpt lat="47.433449" lon="8.056416">
        <ele>596.514280</ele>
        <time>2021-11-14T19:04:11.852Z</time>
      </trkpt>
      <trkpt lat="47.433418" lon="8.056776">
        <ele>599.536818</ele>
        <time>2021-11-14T19:04:28.828Z</time>
      </trkpt>
      <trkpt lat="47.433418" lon="8.057379">
        <ele>604.559043</ele>
        <time>2021-11-14T19:04:54.904Z</time>
      </trkpt>
      <trkpt lat="47.433488" lon="8.058124">
        <ele>608.549547</ele>
        <time>2021-11-14T19:05:26.075Z</time>
      </trkpt>
      <trkpt lat="47.433597" lon="8.058949">
        <ele>612.602156</ele>
        <time>2021-11-14T19:05:56.666Z</time>
      </trkpt>
      <trkpt lat="47.433610" lon="8.059053">
        <ele>613.112044</ele>
        <time>2021-11-14T19:05:59.170Z</time>
      </trkpt>
      <trkpt lat="47.433732" lon="8.059869">
        <ele>617.141042</ele>
        <time>2021-11-14T19:06:15.908Z</time>
      </trkpt>
      <trkpt lat="47.433818" lon="8.060443">
        <ele>617.526478</ele>
        <time>2021-11-14T19:06:23.917Z</time>
      </trkpt>
      <trkpt lat="47.433841" lon="8.060561">
        <ele>617.281498</ele>
        <time>2021-11-14T19:06:25.159Z</time>
      </trkpt>
      <trkpt lat="47.433897" lon="8.060733">
        <ele>616.900692</ele>
        <time>2021-11-14T19:06:26.495Z</time>
      </trkpt>
      <trkpt lat="47.433913" lon="8.060781">
        <ele>616.793940</ele>
        <time>2021-11-14T19:06:26.931Z</time>
      </trkpt>
      <trkpt lat="47.433974" lon="8.060897">
        <ele>616.500827</ele>
        <time>2021-11-14T19:06:28.601Z</time>
      </trkpt>
      <trkpt lat="47.434058" lon="8.061001">
        <ele>616.177694</ele>
        <time>2021-11-14T19:06:29.789Z</time>
      </trkpt>
      <trkpt lat="47.434186" lon="8.061122">
        <ele>615.729623</ele>
        <time>2021-11-14T19:06:31.223Z</time>
      </trkpt>
      <trkpt lat="47.434476" lon="8.061251">
        <ele>614.836487</ele>
        <time>2021-11-14T19:06:34.190Z</time>
      </trkpt>
      <trkpt lat="47.434654" lon="8.061257">
        <ele>614.311399</ele>
        <time>2021-11-14T19:06:36.002Z</time>
      </trkpt>
      <trkpt lat="47.434799" lon="8.061205">
        <ele>613.871368</ele>
        <time>2021-11-14T19:06:37.356Z</time>
      </trkpt>
      <trkpt lat="47.435387" lon="8.060864">
        <ele>610.795960</ele>
        <time>2021-11-14T19:06:43.105Z</time>
      </trkpt>
      <trkpt lat="47.435679" lon="8.060767">
        <ele>608.762633</ele>
        <time>2021-11-14T19:06:45.750Z</time>
      </trkpt>
      <trkpt lat="47.436148" lon="8.060668">
        <ele>605.543909</ele>
        <time>2021-11-14T19:06:49.999Z</time>
      </trkpt>
      <trkpt lat="47.436332" lon="8.060550">
        <ele>604.181255</ele>
        <time>2021-11-14T19:06:51.790Z</time>
      </trkpt>
      <trkpt lat="47.436511" lon="8.060328">
        <ele>602.593863</ele>
        <time>2021-11-14T19:06:53.933Z</time>
      </trkpt>
      <trkpt lat="47.436575" lon="8.060226">
        <ele>601.954497</ele>
        <time>2021-11-14T19:06:54.777Z</time>
      </trkpt>
      <trkpt lat="47.437631" lon="8.058564">
        <ele>591.179442</ele>
        <time>2021-11-14T19:07:08.726Z</time>
      </trkpt>
      <trkpt lat="47.438151" lon="8.057748">
        <ele>585.372008</ele>
        <time>2021-11-14T19:07:15.426Z</time>
      </trkpt>
      <trkpt lat="47.438390" lon="8.057522">
        <ele>582.948165</ele>
        <time>2021-11-14T19:07:17.941Z</time>
      </trkpt>
      <trkpt lat="47.438753" lon="8.057449">
        <ele>579.818295</ele>
        <time>2021-11-14T19:07:21.158Z</time>
      </trkpt>
      <trkpt lat="47.439110" lon="8.057501">
        <ele>576.753478</ele>
        <time>2021-11-14T19:07:24.313Z</time>
      </trkpt>
      <trkpt lat="47.439250" lon="8.057494">
        <ele>575.556696</ele>
        <time>2021-11-14T19:07:25.514Z</time>
      </trkpt>
      <trkpt lat="47.441177" lon="8.056749">
        <ele>556.694534</ele>
        <time>2021-11-14T19:07:42.752Z</time>
      </trkpt>
      <trkpt lat="47.441352" lon="8.056727">
        <ele>554.986807</ele>
        <time>2021-11-14T19:07:44.247Z</time>
      </trkpt>
      <trkpt lat="47.441823" lon="8.056701">
        <ele>550.289347</ele>
        <time>2021-11-14T19:07:48.311Z</time>
      </trkpt>
      <trkpt lat="47.441973" lon="8.056692">
        <ele>548.793151</ele>
        <time>2021-11-14T19:07:49.602Z</time>
      </trkpt>
      <trkpt lat="47.442208" lon="8.056646">
        <ele>546.430604</ele>
        <time>2021-11-14T19:07:51.642Z</time>
      </trkpt>
      <trkpt lat="47.442440" lon="8.056586">
        <ele>544.083288</ele>
        <time>2021-11-14T19:07:53.660Z</time>
      </trkpt>
      <trkpt lat="47.442593" lon="8.056542">
        <ele>542.529848</ele>
        <time>2021-11-14T19:07:55.004Z</time>
      </trkpt>
      <trkpt lat="47.442807" lon="8.056482">
        <ele>540.359025</ele>
        <time>2021-11-14T19:07:56.855Z</time>
      </trkpt>
      <trkpt lat="47.443063" lon="8.056406">
        <ele>537.756698</ele>
        <time>2021-11-14T19:07:59.112Z</time>
      </trkpt>
      <trkpt lat="47.443500" lon="8.056201">
        <ele>534.841922</ele>
        <time>2021-11-14T19:08:03.113Z</time>
      </trkpt>
      <trkpt lat="47.443746" lon="8.056022">
        <ele>533.169821</ele>
        <time>2021-11-14T19:08:05.539Z</time>
      </trkpt>
      <trkpt lat="47.443780" lon="8.055984">
        <ele>532.909894</ele>
        <time>2021-11-14T19:08:05.917Z</time>
      </trkpt>
      <trkpt lat="47.444016" lon="8.055716">
        <ele>531.095110</ele>
        <time>2021-11-14T19:08:08.646Z</time>
      </trkpt>
      <trkpt lat="47.444045" lon="8.055679">
        <ele>530.861508</ele>
        <time>2021-11-14T19:08:08.976Z</time>
      </trkpt>
      <trkpt lat="47.444778" lon="8.054764">
        <ele>526.643075</ele>
        <time>2021-11-14T19:08:18.512Z</time>
      </trkpt>
      <trkpt lat="47.444891" lon="8.054624">
        <ele>526.741945</ele>
        <time>2021-11-14T19:08:20.206Z</time>
      </trkpt>
      <trkpt lat="47.445165" lon="8.054338">
        <ele>526.966875</ele>
        <time>2021-11-14T19:08:26.000Z</time>
      </trkpt>
      <trkpt lat="47.445482" lon="8.054086">
        <ele>527.208248</ele>
        <time>2021-11-14T19:08:34.639Z</time>
      </trkpt>
      <trkpt lat="47.445607" lon="8.054011">
        <ele>527.298718</ele>
        <time>2021-11-14T19:08:38.425Z</time>
      </trkpt>
      <trkpt lat="47.446043" lon="8.053773">
        <ele>527.610410</ele>
        <time>2021-11-14T19:08:48.812Z</time>
      </trkpt>
      <trkpt lat="47.446146" lon="8.053729">
        <ele>527.682312</ele>
        <time>2021-11-14T19:08:51.764Z</time>
      </trkpt>
      <trkpt lat="47.446269" lon="8.053688">
        <ele>527.829101</ele>
        <time>2021-11-14T19:08:55.330Z</time>
      </trkpt>
      <trkpt lat="47.446453" lon="8.053638">
        <ele>528.053131</ele>
        <time>2021-11-14T19:08:59.239Z</time>
      </trkpt>
      <trkpt lat="47.446540" lon="8.053621">
        <ele>528.158219</ele>
        <time>2021-11-14T19:09:01.934Z</time>
      </trkpt>
      <trkpt lat="47.447302" lon="8.053642">
        <ele>529.070872</ele>
        <time>2021-11-14T19:09:19.784Z</time>
      </trkpt>
      <trkpt lat="47.447679" lon="8.053483">
        <ele>529.540332</ele>
        <time>2021-11-14T19:09:26.521Z</time>
      </trkpt>
      <trkpt lat="47.447774" lon="8.053385">
        <ele>529.679042</ele>
        <time>2021-11-14T19:09:27.916Z</time>
      </trkpt>
      <trkpt lat="47.447919" lon="8.053237">
        <ele>529.705694</ele>
        <time>2021-11-14T19:09:30.158Z</time>
      </trkpt>
      <trkpt lat="47.448435" lon="8.052444">
        <ele>527.209530</ele>
        <time>2021-11-14T19:09:38.158Z</time>
      </trkpt>
      <trkpt lat="47.448673" lon="8.052159">
        <ele>526.182326</ele>
        <time>2021-11-14T19:09:41.286Z</time>
      </trkpt>
      <trkpt lat="47.449059" lon="8.051793">
        <ele>524.644336</ele>
        <time>2021-11-14T19:09:45.748Z</time>
      </trkpt>
      <trkpt lat="47.449613" lon="8.051437">
        <ele>520.856195</ele>
        <time>2021-11-14T19:09:51.260Z</time>
      </trkpt>
      <trkpt lat="47.449886" lon="8.051364">
        <ele>518.548215</ele>
        <time>2021-11-14T19:09:53.705Z</time>
      </trkpt>
      <trkpt lat="47.450074" lon="8.051371">
        <ele>516.983706</ele>
        <time>2021-11-14T19:09:55.364Z</time>
      </trkpt>
      <trkpt lat="47.450344" lon="8.051426">
        <ele>514.716306</ele>
        <time>2021-11-14T19:09:57.752Z</time>
      </trkpt>
      <trkpt lat="47.450504" lon="8.051491">
        <ele>513.335916</ele>
        <time>2021-11-14T19:09:59.200Z</time>
      </trkpt>
      <trkpt lat="47.450592" lon="8.051537">
        <ele>512.559434</ele>
        <time>2021-11-14T19:10:00.004Z</time>
      </trkpt>
      <trkpt lat="47.450757" lon="8.051663">
        <ele>511.014548</ele>
        <time>2021-11-14T19:10:01.606Z</time>
      </trkpt>
      <trkpt lat="47.451164" lon="8.052019">
        <ele>506.917563</ele>
        <time>2021-11-14T19:10:05.663Z</time>
      </trkpt>
      <trkpt lat="47.451546" lon="8.052392">
        <ele>502.757372</ele>
        <time>2021-11-14T19:10:09.578Z</time>
      </trkpt>
      <trkpt lat="47.451728" lon="8.052549">
        <ele>500.842482</ele>
        <time>2021-11-14T19:10:11.407Z</time>
      </trkpt>
      <trkpt lat="47.452030" lon="8.052767">
        <ele>497.788333</ele>
        <time>2021-11-14T19:10:14.304Z</time>
      </trkpt>
      <trkpt lat="47.452592" lon="8.053064">
        <ele>492.427105</ele>
        <time>2021-11-14T19:10:19.606Z</time>
      </trkpt>
      <trkpt lat="47.452771" lon="8.053113">
        <ele>491.543242</ele>
        <time>2021-11-14T19:10:21.236Z</time>
      </trkpt>
      <trkpt lat="47.452870" lon="8.053142">
        <ele>491.053228</ele>
        <time>2021-11-14T19:10:22.159Z</time>
      </trkpt>
      <trkpt lat="47.453160" lon="8.053216">
        <ele>489.624384</ele>
        <time>2021-11-14T19:10:24.851Z</time>
      </trkpt>
      <trkpt lat="47.453588" lon="8.053338">
        <ele>487.508066</ele>
        <time>2021-11-14T19:10:28.984Z</time>
      </trkpt>
      <trkpt lat="47.454007" lon="8.053484">
        <ele>485.417988</ele>
        <time>2021-11-14T19:10:33.337Z</time>
      </trkpt>
      <trkpt lat="47.454190" lon="8.053504">
        <ele>484.527045</ele>
        <time>2021-11-14T19:10:35.111Z</time>
      </trkpt>
      <trkpt lat="47.454280" lon="8.053495">
        <ele>484.089070</ele>
        <time>2021-11-14T19:10:35.994Z</time>
      </trkpt>
      <trkpt lat="47.454599" lon="8.053302">
        <ele>482.947598</ele>
        <time>2021-11-14T19:10:39.679Z</time>
      </trkpt>
      <trkpt lat="47.454740" lon="8.053121">
        <ele>482.398191</ele>
        <time>2021-11-14T19:10:41.690Z</time>
      </trkpt>
      <trkpt lat="47.455021" lon="8.052703">
        <ele>481.225399</ele>
        <time>2021-11-14T19:10:45.802Z</time>
      </trkpt>
      <trkpt lat="47.455102" lon="8.052621">
        <ele>480.936555</ele>
        <time>2021-11-14T19:10:46.821Z</time>
      </trkpt>
      <trkpt lat="47.455278" lon="8.052443">
        <ele>480.309137</ele>
        <time>2021-11-14T19:10:48.989Z</time>
      </trkpt>
      <trkpt lat="47.455435" lon="8.052304">
        <ele>479.770691</ele>
        <time>2021-11-14T19:10:50.810Z</time>
      </trkpt>
      <trkpt lat="47.455674" lon="8.052090">
        <ele>478.948555</ele>
        <time>2021-11-14T19:10:53.796Z</time>
      </trkpt>
      <trkpt lat="47.455912" lon="8.051878">
        <ele>478.153975</ele>
        <time>2021-11-14T19:10:56.715Z</time>
      </trkpt>
      <trkpt lat="47.455980" lon="8.051817">
        <ele>477.935655</ele>
        <time>2021-11-14T19:10:57.543Z</time>
      </trkpt>
      <trkpt lat="47.456114" lon="8.051697">
        <ele>477.505636</ele>
        <time>2021-11-14T19:10:59.084Z</time>
      </trkpt>
      <trkpt lat="47.456563" lon="8.051295">
        <ele>476.064839</ele>
        <time>2021-11-14T19:11:04.296Z</time>
      </trkpt>
      <trkpt lat="47.456612" lon="8.051330">
        <ele>475.915464</ele>
        <time>2021-11-14T19:11:04.824Z</time>
      </trkpt>
      <trkpt lat="47.457083" lon="8.050928">
        <ele>474.422681</ele>
        <time>2021-11-14T19:11:10.537Z</time>
      </trkpt>
      <trkpt lat="47.457280" lon="8.050653">
        <ele>473.679062</ele>
        <time>2021-11-14T19:11:13.508Z</time>
      </trkpt>
      <trkpt lat="47.457325" lon="8.050553">
        <ele>473.476761</ele>
        <time>2021-11-14T19:11:14.323Z</time>
      </trkpt>
      <trkpt lat="47.457227" lon="8.050454">
        <ele>473.235323</ele>
        <time>2021-11-14T19:11:15.625Z</time>
      </trkpt>
      <trkpt lat="47.457433" lon="8.049943">
        <ele>472.416978</ele>
        <time>2021-11-14T19:11:21.025Z</time>
      </trkpt>
      <trkpt lat="47.457577" lon="8.049600">
        <ele>471.861623</ele>
        <time>2021-11-14T19:11:24.286Z</time>
      </trkpt>
      <trkpt lat="47.457602" lon="8.049565">
        <ele>471.791592</ele>
        <time>2021-11-14T19:11:24.944Z</time>
      </trkpt>
      <trkpt lat="47.457845" lon="8.049210">
        <ele>471.096732</ele>
        <time>2021-11-14T19:11:28.852Z</time>
      </trkpt>
      <trkpt lat="47.458266" lon="8.048995">
        <ele>470.190638</ele>
        <time>2021-11-14T19:11:33.481Z</time>
      </trkpt>
      <trkpt lat="47.458490" lon="8.048954">
        <ele>469.556232</ele>
        <time>2021-11-14T19:11:35.743Z</time>
      </trkpt>
      <trkpt lat="47.458499" lon="8.049045">
        <ele>469.277170</ele>
        <time>2021-11-14T19:11:42.425Z</time>
      </trkpt>
      <trkpt lat="47.458999" lon="8.048946">
        <ele>467.013236</ele>
        <time>2021-11-14T19:11:47.239Z</time>
      </trkpt>
      <trkpt lat="47.459481" lon="8.048809">
        <ele>464.810520</ele>
        <time>2021-11-14T19:11:51.908Z</time>
      </trkpt>
      <trkpt lat="47.459687" lon="8.048651">
        <ele>463.769115</ele>
        <time>2021-11-14T19:11:54.064Z</time>
      </trkpt>
      <trkpt lat="47.459655" lon="8.048568">
        <ele>463.479202</ele>
        <time>2021-11-14T19:12:00.656Z</time>
      </trkpt>
      <trkpt lat="47.459740" lon="8.048503">
        <ele>463.049767</ele>
        <time>2021-11-14T19:12:01.559Z</time>
      </trkpt>
      <trkpt lat="47.459812" lon="8.048447">
        <ele>462.684690</ele>
        <time>2021-11-14T19:12:02.356Z</time>
      </trkpt>
      <trkpt lat="47.460107" lon="8.048213">
        <ele>461.272590</ele>
        <time>2021-11-14T19:12:05.431Z</time>
      </trkpt>
      <trkpt lat="47.460570" lon="8.047988">
        <ele>459.402385</ele>
        <time>2021-11-14T19:12:10.115Z</time>
      </trkpt>
      <trkpt lat="47.460608" lon="8.047981">
        <ele>459.255433</ele>
        <time>2021-11-14T19:12:10.455Z</time>
      </trkpt>
      <trkpt lat="47.460776" lon="8.047954">
        <ele>458.606939</ele>
        <time>2021-11-14T19:12:12.188Z</time>
      </trkpt>
      <trkpt lat="47.461083" lon="8.047963">
        <ele>457.428596</ele>
        <time>2021-11-14T19:12:15.261Z</time>
      </trkpt>
      <trkpt lat="47.461466" lon="8.048031">
        <ele>455.948284</ele>
        <time>2021-11-14T19:12:19.328Z</time>
      </trkpt>
      <trkpt lat="47.462404" lon="8.048445">
        <ele>451.884533</ele>
        <time>2021-11-14T19:12:29.160Z</time>
      </trkpt>
      <trkpt lat="47.462692" lon="8.048578">
        <ele>450.595441</ele>
        <time>2021-11-14T19:12:32.055Z</time>
      </trkpt>
      <trkpt lat="47.462760" lon="8.048615">
        <ele>450.285869</ele>
        <time>2021-11-14T19:12:32.773Z</time>
      </trkpt>
      <trkpt lat="47.462793" lon="8.048637">
        <ele>450.131213</ele>
        <time>2021-11-14T19:12:33.110Z</time>
      </trkpt>
      <trkpt lat="47.462932" lon="8.048714">
        <ele>449.497036</ele>
        <time>2021-11-14T19:12:34.474Z</time>
      </trkpt>
      <trkpt lat="47.464428" lon="8.050024">
        <ele>441.825423</ele>
        <time>2021-11-14T19:12:50.825Z</time>
      </trkpt>
      <trkpt lat="47.464876" lon="8.050495">
        <ele>439.365909</ele>
        <time>2021-11-14T19:12:56.379Z</time>
      </trkpt>
      <trkpt lat="47.465219" lon="8.050945">
        <ele>437.765359</ele>
        <time>2021-11-14T19:13:00.984Z</time>
      </trkpt>
      <trkpt lat="47.465390" lon="8.051077">
        <ele>437.112152</ele>
        <time>2021-11-14T19:13:02.932Z</time>
      </trkpt>
      <trkpt lat="47.465552" lon="8.051201">
        <ele>436.494435</ele>
        <time>2021-11-14T19:13:04.749Z</time>
      </trkpt>
      <trkpt lat="47.466297" lon="8.051497">
        <ele>433.882044</ele>
        <time>2021-11-14T19:13:12.454Z</time>
      </trkpt>
      <trkpt lat="47.466507" lon="8.051581">
        <ele>433.145330</ele>
        <time>2021-11-14T19:13:14.620Z</time>
      </trkpt>
      <trkpt lat="47.466793" lon="8.051728">
        <ele>432.282790</ele>
        <time>2021-11-14T19:13:17.749Z</time>
      </trkpt>
      <trkpt lat="47.467177" lon="8.052075">
        <ele>431.017962</ele>
        <time>2021-11-14T19:13:22.373Z</time>
      </trkpt>
      <trkpt lat="47.467479" lon="8.052348">
        <ele>430.023131</ele>
        <time>2021-11-14T19:13:25.999Z</time>
      </trkpt>
      <trkpt lat="47.468134" lon="8.052813">
        <ele>427.996958</ele>
        <time>2021-11-14T19:13:33.611Z</time>
      </trkpt>
      <trkpt lat="47.468638" lon="8.053071">
        <ele>427.081543</ele>
        <time>2021-11-14T19:13:39.545Z</time>
      </trkpt>
      <trkpt lat="47.468916" lon="8.053225">
        <ele>426.572015</ele>
        <time>2021-11-14T19:13:42.950Z</time>
      </trkpt>
      <trkpt lat="47.469768" lon="8.053784">
        <ele>424.972234</ele>
        <time>2021-11-14T19:13:53.746Z</time>
      </trkpt>
      <trkpt lat="47.469816" lon="8.053809">
        <ele>424.889456</ele>
        <time>2021-11-14T19:13:54.275Z</time>
      </trkpt>
      <trkpt lat="47.469912" lon="8.053834">
        <ele>424.737473</ele>
        <time>2021-11-14T19:13:55.426Z</time>
      </trkpt>
      <trkpt lat="47.470035" lon="8.053870">
        <ele>424.541975</ele>
        <time>2021-11-14T19:13:56.867Z</time>
      </trkpt>
      <trkpt lat="47.470146" lon="8.053870">
        <ele>424.368905</ele>
        <time>2021-11-14T19:13:58.140Z</time>
      </trkpt>
      <trkpt lat="47.470221" lon="8.053859">
        <ele>424.251393</ele>
        <time>2021-11-14T19:13:58.982Z</time>
      </trkpt>
      <trkpt lat="47.470388" lon="8.053827">
        <ele>423.988833</ele>
        <time>2021-11-14T19:14:00.851Z</time>
      </trkpt>
      <trkpt lat="47.470975" lon="8.053567">
        <ele>423.033447</ele>
        <time>2021-11-14T19:14:07.900Z</time>
      </trkpt>
      <trkpt lat="47.471281" lon="8.053367">
        <ele>422.511845</ele>
        <time>2021-11-14T19:14:11.719Z</time>
      </trkpt>
      <trkpt lat="47.471653" lon="8.053017">
        <ele>421.804010</ele>
        <time>2021-11-14T19:14:16.908Z</time>
      </trkpt>
      <trkpt lat="47.471695" lon="8.052974">
        <ele>421.719047</ele>
        <time>2021-11-14T19:14:17.405Z</time>
      </trkpt>
      <trkpt lat="47.471962" lon="8.052697">
        <ele>421.176581</ele>
        <time>2021-11-14T19:14:21.233Z</time>
      </trkpt>
      <trkpt lat="47.472031" lon="8.052625">
        <ele>421.036124</ele>
        <time>2021-11-14T19:14:22.142Z</time>
      </trkpt>
      <trkpt lat="47.472429" lon="8.052206">
        <ele>420.223553</ele>
        <time>2021-11-14T19:14:27.786Z</time>
      </trkpt>
      <trkpt lat="47.472623" lon="8.052001">
        <ele>419.826978</ele>
        <time>2021-11-14T19:14:30.474Z</time>
      </trkpt>
      <trkpt lat="47.472803" lon="8.051811">
        <ele>419.459157</ele>
        <time>2021-11-14T19:14:32.945Z</time>
      </trkpt>
      <trkpt lat="47.473006" lon="8.051614">
        <ele>419.032181</ele>
        <time>2021-11-14T19:14:35.590Z</time>
      </trkpt>
      <trkpt lat="47.473944" lon="8.050844">
        <ele>416.750967</ele>
        <time>2021-11-14T19:14:47.284Z</time>
      </trkpt>
      <trkpt lat="47.474013" lon="8.050809">
        <ele>416.595849</ele>
        <time>2021-11-14T19:14:48.028Z</time>
      </trkpt>
      <trkpt lat="47.474067" lon="8.050782">
        <ele>416.474634</ele>
        <time>2021-11-14T19:14:48.668Z</time>
      </trkpt>
      <trkpt lat="47.474254" lon="8.050712">
        <ele>416.064434</ele>
        <time>2021-11-14T19:14:50.746Z</time>
      </trkpt>
      <trkpt lat="47.474369" lon="8.050670">
        <ele>415.812537</ele>
        <time>2021-11-14T19:14:51.961Z</time>
      </trkpt>
      <trkpt lat="47.474655" lon="8.050582">
        <ele>415.216707</ele>
        <time>2021-11-14T19:14:55.235Z</time>
      </trkpt>
      <trkpt lat="47.474739" lon="8.050556">
        <ele>415.072139</ele>
        <time>2021-11-14T19:14:56.104Z</time>
      </trkpt>
      <trkpt lat="47.474798" lon="8.050543">
        <ele>414.971652</ele>
        <time>2021-11-14T19:14:56.779Z</time>
      </trkpt>
      <trkpt lat="47.474929" lon="8.050514">
        <ele>414.748516</ele>
        <time>2021-11-14T19:14:58.278Z</time>
      </trkpt>
      <trkpt lat="47.475144" lon="8.050466">
        <ele>414.382230</ele>
        <time>2021-11-14T19:15:00.611Z</time>
      </trkpt>
      <trkpt lat="47.475253" lon="8.050461">
        <ele>414.198523</ele>
        <time>2021-11-14T19:15:01.826Z</time>
      </trkpt>
      <trkpt lat="47.475284" lon="8.050458">
        <ele>414.146189</ele>
        <time>2021-11-14T19:15:02.192Z</time>
      </trkpt>
      <trkpt lat="47.475357" lon="8.050458">
        <ele>414.023215</ele>
        <time>2021-11-14T19:15:03.038Z</time>
      </trkpt>
      <trkpt lat="47.475715" lon="8.050478">
        <ele>413.419706</ele>
        <time>2021-11-14T19:15:06.956Z</time>
      </trkpt>
      <trkpt lat="47.475713" lon="8.050385">
        <ele>413.313761</ele>
        <time>2021-11-14T19:15:07.659Z</time>
      </trkpt>
      <trkpt lat="47.475746" lon="8.050384">
        <ele>413.258158</ele>
        <time>2021-11-14T19:15:08.160Z</time>
      </trkpt>
      <trkpt lat="47.476344" lon="8.050361">
        <ele>412.265115</ele>
        <time>2021-11-14T19:15:18.349Z</time>
      </trkpt>
      <trkpt lat="47.476590" lon="8.050307">
        <ele>412.032195</ele>
        <time>2021-11-14T19:15:22.716Z</time>
      </trkpt>
      <trkpt lat="47.476858" lon="8.050274">
        <ele>411.780324</ele>
        <time>2021-11-14T19:15:51.752Z</time>
      </trkpt>
      <trkpt lat="47.477047" lon="8.050303">
        <ele>411.602362</ele>
        <time>2021-11-14T19:16:12.486Z</time>
      </trkpt>
      <trkpt lat="47.477267" lon="8.050373">
        <ele>411.391604</ele>
        <time>2021-11-14T19:16:36.722Z</time>
      </trkpt>
      <trkpt lat="47.477918" lon="8.050584">
        <ele>410.767434</ele>
        <time>2021-11-14T19:16:48.550Z</time>
      </trkpt>
      <trkpt lat="47.478348" lon="8.050767">
        <ele>410.244947</ele>
        <time>2021-11-14T19:16:56.277Z</time>
      </trkpt>
      <trkpt lat="47.478902" lon="8.050813">
        <ele>409.510735</ele>
        <time>2021-11-14T19:17:05.709Z</time>
      </trkpt>
      <trkpt lat="47.479301" lon="8.050948">
        <ele>408.969145</ele>
        <time>2021-11-14T19:17:12.467Z</time>
      </trkpt>
      <trkpt lat="47.480731" lon="8.051537">
        <ele>406.601542</ele>
        <time>2021-11-14T19:17:36.770Z</time>
      </trkpt>
      <trkpt lat="47.481120" lon="8.051779">
        <ele>405.857586</ele>
        <time>2021-11-14T19:17:43.398Z</time>
      </trkpt>
      <trkpt lat="47.481212" lon="8.051837">
        <ele>405.681282</ele>
        <time>2021-11-14T19:17:45.064Z</time>
      </trkpt>
      <trkpt lat="47.481264" lon="8.051869">
        <ele>405.581993</ele>
        <time>2021-11-14T19:17:45.998Z</time>
      </trkpt>
      <trkpt lat="47.481406" lon="8.051919">
        <ele>405.324657</ele>
        <time>2021-11-14T19:17:48.111Z</time>
      </trkpt>
      <trkpt lat="47.481555" lon="8.051930">
        <ele>405.061644</ele>
        <time>2021-11-14T19:17:50.611Z</time>
      </trkpt>
      <trkpt lat="47.481797" lon="8.051888">
        <ele>404.528696</ele>
        <time>2021-11-14T19:17:54.358Z</time>
      </trkpt>
      <trkpt lat="47.482127" lon="8.051839">
        <ele>403.798632</ele>
        <time>2021-11-14T19:17:59.633Z</time>
      </trkpt>
      <trkpt lat="47.482219" lon="8.051812">
        <ele>403.592172</ele>
        <time>2021-11-14T19:18:01.145Z</time>
      </trkpt>
      <trkpt lat="47.482335" lon="8.051760">
        <ele>403.325365</ele>
        <time>2021-11-14T19:18:03.286Z</time>
      </trkpt>
      <trkpt lat="47.482375" lon="8.051733">
        <ele>403.228586</ele>
        <time>2021-11-14T19:18:03.920Z</time>
      </trkpt>
      <trkpt lat="47.482455" lon="8.051685">
        <ele>403.038559</ele>
        <time>2021-11-14T19:18:05.196Z</time>
      </trkpt>
      <trkpt lat="47.482625" lon="8.051456">
        <ele>402.532503</ele>
        <time>2021-11-14T19:18:09.091Z</time>
      </trkpt>
      <trkpt lat="47.482669" lon="8.051382">
        <ele>402.385875</ele>
        <time>2021-11-14T19:18:10.044Z</time>
      </trkpt>
      <trkpt lat="47.482913" lon="8.050915">
        <ele>401.507736</ele>
        <time>2021-11-14T19:18:16.054Z</time>
      </trkpt>
      <trkpt lat="47.483058" lon="8.050738">
        <ele>401.093961</ele>
        <time>2021-11-14T19:18:18.932Z</time>
      </trkpt>
      <trkpt lat="47.483227" lon="8.050664">
        <ele>400.910895</ele>
        <time>2021-11-14T19:18:21.479Z</time>
      </trkpt>
      <trkpt lat="47.483364" lon="8.050596">
        <ele>400.763128</ele>
        <time>2021-11-14T19:18:23.666Z</time>
      </trkpt>
      <trkpt lat="47.483598" lon="8.050422">
        <ele>400.495326</ele>
        <time>2021-11-14T19:18:27.550Z</time>
      </trkpt>
      <trkpt lat="47.483809" lon="8.050170">
        <ele>400.218046</ele>
        <time>2021-11-14T19:18:31.820Z</time>
      </trkpt>
      <trkpt lat="47.483967" lon="8.049904">
        <ele>399.973309</ele>
        <time>2021-11-14T19:18:35.903Z</time>
      </trkpt>
      <trkpt lat="47.483967" lon="8.049904">
        <ele>399.973309</ele>
        <time>2021-11-14T19:18:35.914Z</time>
      </trkpt>
      <trkpt lat="47.484225" lon="8.049304">
        <ele>399.481850</ele>
        <time>2021-11-14T19:18:44.618Z</time>
      </trkpt>
      <trkpt lat="47.484248" lon="8.049249">
        <ele>399.437153</ele>
        <time>2021-11-14T19:18:45.548Z</time>
      </trkpt>
      <trkpt lat="47.484328" lon="8.049054">
        <ele>399.279508</ele>
        <time>2021-11-14T19:18:49.042Z</time>
      </trkpt>
      <trkpt lat="47.484307" lon="8.048841">
        <ele>399.828754</ele>
        <time>2021-11-14T19:18:52.336Z</time>
      </trkpt>
      <trkpt lat="47.484310" lon="8.048647">
        <ele>400.483763</ele>
        <time>2021-11-14T19:18:56.059Z</time>
      </trkpt>
      <trkpt lat="47.484311" lon="8.048547">
        <ele>400.821346</ele>
        <time>2021-11-14T19:18:58.638Z</time>
      </trkpt>
      <trkpt lat="47.484323" lon="8.048319">
        <ele>401.593279</ele>
        <time>2021-11-14T19:19:03.082Z</time>
      </trkpt>
      <trkpt lat="47.484354" lon="8.048144">
        <ele>402.203940</ele>
        <time>2021-11-14T19:19:07.105Z</time>
      </trkpt>
      <trkpt lat="47.484336" lon="8.047958">
        <ele>402.838179</ele>
        <time>2021-11-14T19:19:12.311Z</time>
      </trkpt>
      <trkpt lat="47.484302" lon="8.047447">
        <ele>404.571375</ele>
        <time>2021-11-14T19:19:25.398Z</time>
      </trkpt>
      <trkpt lat="47.484285" lon="8.047381">
        <ele>404.809788</ele>
        <time>2021-11-14T19:19:27.337Z</time>
      </trkpt>
      <trkpt lat="47.484254" lon="8.047262">
        <ele>405.240278</ele>
        <time>2021-11-14T19:19:30.367Z</time>
      </trkpt>
      <trkpt lat="47.484094" lon="8.047008">
        <ele>406.412349</ele>
        <time>2021-11-14T19:19:40.392Z</time>
      </trkpt>
      <trkpt lat="47.483944" lon="8.046772">
        <ele>407.505932</ele>
        <time>2021-11-14T19:19:49.010Z</time>
      </trkpt>
      <trkpt lat="47.483960" lon="8.046613">
        <ele>408.048550</ele>
        <time>2021-11-14T19:19:54.944Z</time>
      </trkpt>
      <trkpt lat="47.484017" lon="8.046089">
        <ele>409.345405</ele>
        <time>2021-11-14T19:20:12.181Z</time>
      </trkpt>
      <trkpt lat="47.484086" lon="8.045711">
        <ele>410.260186</ele>
        <time>2021-11-14T19:20:24.209Z</time>
      </trkpt>
      <trkpt lat="47.484315" lon="8.044930">
        <ele>412.249199</ele>
        <time>2021-11-14T19:20:50.520Z</time>
      </trkpt>
      <trkpt lat="47.484698" lon="8.044163">
        <ele>414.395600</ele>
        <time>2021-11-14T19:21:05.851Z</time>
      </trkpt>
      <trkpt lat="47.485120" lon="8.042908">
        <ele>407.317770</ele>
        <time>2021-11-14T19:21:17.889Z</time>
      </trkpt>
      <trkpt lat="47.485289" lon="8.042522">
        <ele>404.995504</ele>
        <time>2021-11-14T19:21:21.760Z</time>
      </trkpt>
      <trkpt lat="47.485395" lon="8.042549">
        <ele>404.191867</ele>
        <time>2021-11-14T19:21:22.642Z</time>
      </trkpt>
      <trkpt lat="47.485598" lon="8.042685">
        <ele>402.526930</ele>
        <time>2021-11-14T19:21:24.694Z</time>
      </trkpt>
      <trkpt lat="47.486008" lon="8.043050">
        <ele>398.787939</ele>
        <time>2021-11-14T19:21:28.766Z</time>
      </trkpt>
      <trkpt lat="47.486019" lon="8.043059">
        <ele>398.686551</ele>
        <time>2021-11-14T19:21:28.869Z</time>
      </trkpt>
      <trkpt lat="47.486151" lon="8.043162">
        <ele>397.482849</ele>
        <time>2021-11-14T19:21:30.256Z</time>
      </trkpt>
      <trkpt lat="47.486179" lon="8.043182">
        <ele>397.232060</ele>
        <time>2021-11-14T19:21:30.523Z</time>
      </trkpt>
      <trkpt lat="47.486222" lon="8.043212">
        <ele>396.848596</ele>
        <time>2021-11-14T19:21:30.950Z</time>
      </trkpt>
      <trkpt lat="47.486260" lon="8.043156">
        <ele>396.416010</ele>
        <time>2021-11-14T19:21:31.584Z</time>
      </trkpt>
      <trkpt lat="47.486857" lon="8.042766">
        <ele>391.152110</ele>
        <time>2021-11-14T19:21:39.520Z</time>
      </trkpt>
      <trkpt lat="47.487031" lon="8.042589">
        <ele>389.448962</ele>
        <time>2021-11-14T19:21:42.239Z</time>
      </trkpt>
      <trkpt lat="47.487333" lon="8.042295">
        <ele>386.533103</ele>
        <time>2021-11-14T19:21:47.160Z</time>
      </trkpt>
      <trkpt lat="47.487400" lon="8.042230">
        <ele>386.340570</ele>
        <time>2021-11-14T19:21:48.484Z</time>
      </trkpt>
      <trkpt lat="47.487908" lon="8.041733">
        <ele>385.037279</ele>
        <time>2021-11-14T19:21:58.255Z</time>
      </trkpt>
      <trkpt lat="47.488139" lon="8.041130">
        <ele>384.034853</ele>
        <time>2021-11-14T19:22:05.969Z</time>
      </trkpt>
      <trkpt lat="47.488448" lon="8.040708">
        <ele>383.134988</ele>
        <time>2021-11-14T19:22:12.762Z</time>
      </trkpt>
      <trkpt lat="47.488652" lon="8.040561">
        <ele>382.651144</ele>
        <time>2021-11-14T19:22:16.464Z</time>
      </trkpt>
      <trkpt lat="47.489262" lon="8.040226">
        <ele>381.684988</ele>
        <time>2021-11-14T19:22:27.267Z</time>
      </trkpt>
      <trkpt lat="47.489332" lon="8.040190">
        <ele>381.574946</ele>
        <time>2021-11-14T19:22:28.525Z</time>
      </trkpt>
      <trkpt lat="47.489708" lon="8.040031">
        <ele>380.994272</ele>
        <time>2021-11-14T19:22:35.037Z</time>
      </trkpt>
      <trkpt lat="47.492266" lon="8.039262">
        <ele>377.088340</ele>
        <time>2021-11-14T19:23:17.877Z</time>
      </trkpt>
      <trkpt lat="47.492451" lon="8.039274">
        <ele>376.829861</ele>
        <time>2021-11-14T19:23:20.911Z</time>
      </trkpt>
      <trkpt lat="47.493090" lon="8.039530">
        <ele>375.905818</ele>
        <time>2021-11-14T19:23:31.728Z</time>
      </trkpt>
      <trkpt lat="47.493416" lon="8.039728">
        <ele>375.413947</ele>
        <time>2021-11-14T19:23:37.705Z</time>
      </trkpt>
      <trkpt lat="47.493541" lon="8.039739">
        <ele>375.239159</ele>
        <time>2021-11-14T19:23:40.098Z</time>
      </trkpt>
      <trkpt lat="47.493615" lon="8.039696">
        <ele>375.128191</ele>
        <time>2021-11-14T19:23:41.385Z</time>
      </trkpt>
      <trkpt lat="47.493681" lon="8.039626">
        <ele>375.014852</ele>
        <time>2021-11-14T19:23:42.661Z</time>
      </trkpt>
      <trkpt lat="47.493985" lon="8.039302">
        <ele>374.642427</ele>
        <time>2021-11-14T19:23:48.998Z</time>
      </trkpt>
      <trkpt lat="47.494550" lon="8.038902">
        <ele>374.256846</ele>
        <time>2021-11-14T19:23:59.795Z</time>
      </trkpt>
      <trkpt lat="47.495065" lon="8.038717">
        <ele>373.930588</ele>
        <time>2021-11-14T19:24:09.377Z</time>
      </trkpt>
      <trkpt lat="47.495161" lon="8.038728">
        <ele>373.871310</ele>
        <time>2021-11-14T19:24:11.590Z</time>
      </trkpt>
      <trkpt lat="47.495197" lon="8.038814">
        <ele>373.829229</ele>
        <time>2021-11-14T19:24:12.671Z</time>
      </trkpt>
      <trkpt lat="47.495279" lon="8.039095">
        <ele>373.701910</ele>
        <time>2021-11-14T19:24:17.204Z</time>
      </trkpt>
      <trkpt lat="47.495489" lon="8.039211">
        <ele>373.793339</ele>
        <time>2021-11-14T19:24:21.408Z</time>
      </trkpt>
      <trkpt lat="47.497029" lon="8.038197">
        <ele>375.366773</ele>
        <time>2021-11-14T19:25:03.059Z</time>
      </trkpt>
      <trkpt lat="47.497508" lon="8.037915">
        <ele>375.301205</ele>
        <time>2021-11-14T19:25:17.376Z</time>
      </trkpt>
      <trkpt lat="47.498149" lon="8.037545">
        <ele>375.213694</ele>
        <time>2021-11-14T19:25:31.838Z</time>
      </trkpt>
      <trkpt lat="47.498683" lon="8.037262">
        <ele>375.124970</ele>
        <time>2021-11-14T19:25:41.313Z</time>
      </trkpt>
      <trkpt lat="47.499762" lon="8.036824">
        <ele>371.307000</ele>
        <time>2021-11-14T19:25:57.345Z</time>
      </trkpt>
      <trkpt lat="47.499899" lon="8.036731">
        <ele>370.792677</ele>
        <time>2021-11-14T19:25:59.414Z</time>
      </trkpt>
      <trkpt lat="47.500033" lon="8.036458">
        <ele>370.014726</ele>
        <time>2021-11-14T19:26:02.496Z</time>
      </trkpt>
      <trkpt lat="47.500142" lon="8.035639">
        <ele>368.511672</ele>
        <time>2021-11-14T19:26:10.488Z</time>
      </trkpt>
      <trkpt lat="47.500159" lon="8.035559">
        <ele>368.407450</ele>
        <time>2021-11-14T19:26:11.268Z</time>
      </trkpt>
      <trkpt lat="47.500213" lon="8.035313">
        <ele>368.086001</ele>
        <time>2021-11-14T19:26:13.966Z</time>
      </trkpt>
      <trkpt lat="47.500370" lon="8.034585">
        <ele>367.136304</ele>
        <time>2021-11-14T19:26:22.398Z</time>
      </trkpt>
      <trkpt lat="47.500371" lon="8.034497">
        <ele>367.026927</ele>
        <time>2021-11-14T19:26:23.315Z</time>
      </trkpt>
      <trkpt lat="47.500411" lon="8.034253">
        <ele>366.714898</ele>
        <time>2021-11-14T19:26:26.675Z</time>
      </trkpt>
      <trkpt lat="47.500514" lon="8.034048">
        <ele>366.397405</ele>
        <time>2021-11-14T19:26:29.566Z</time>
      </trkpt>
      <trkpt lat="47.500609" lon="8.033743">
        <ele>365.980024</ele>
        <time>2021-11-14T19:26:33.965Z</time>
      </trkpt>
      <trkpt lat="47.501016" lon="8.032338">
        <ele>364.780167</ele>
        <time>2021-11-14T19:26:52.474Z</time>
      </trkpt>
      <trkpt lat="47.501417" lon="8.030833">
        <ele>363.514135</ele>
        <time>2021-11-14T19:27:10.886Z</time>
      </trkpt>
      <trkpt lat="47.501451" lon="8.030732">
        <ele>363.378757</ele>
        <time>2021-11-14T19:27:12.080Z</time>
      </trkpt>
      <trkpt lat="47.501479" lon="8.030595">
        <ele>363.207045</ele>
        <time>2021-11-14T19:27:13.615Z</time>
      </trkpt>
      <trkpt lat="47.501858" lon="8.029220">
        <ele>361.425473</ele>
        <time>2021-11-14T19:27:29.396Z</time>
      </trkpt>
      <trkpt lat="47.502470" lon="8.027919">
        <ele>359.876304</ele>
        <time>2021-11-14T19:27:46.853Z</time>
      </trkpt>
      <trkpt lat="47.502768" lon="8.027165">
        <ele>359.163444</ele>
        <time>2021-11-14T19:27:57.030Z</time>
      </trkpt>
      <trkpt lat="47.502892" lon="8.026637">
        <ele>358.707282</ele>
        <time>2021-11-14T19:28:03.614Z</time>
      </trkpt>
      <trkpt lat="47.502945" lon="8.026325">
        <ele>358.447652</ele>
        <time>2021-11-14T19:28:07.408Z</time>
      </trkpt>
      <trkpt lat="47.502970" lon="8.026171">
        <ele>358.359369</ele>
        <time>2021-11-14T19:28:09.259Z</time>
      </trkpt>
      <trkpt lat="47.503021" lon="8.025852">
        <ele>358.176647</ele>
        <time>2021-11-14T19:28:13.238Z</time>
      </trkpt>
      <trkpt lat="47.503032" lon="8.025730">
        <ele>358.108042</ele>
        <time>2021-11-14T19:28:14.644Z</time>
      </trkpt>
      <trkpt lat="47.503016" lon="8.025577">
        <ele>358.021744</ele>
        <time>2021-11-14T19:28:16.605Z</time>
      </trkpt>
      <trkpt lat="47.503159" lon="8.025346">
        <ele>357.847101</ele>
        <time>2021-11-14T19:28:19.238Z</time>
      </trkpt>
      <trkpt lat="47.503222" lon="8.025223">
        <ele>357.761063</ele>
        <time>2021-11-14T19:28:20.555Z</time>
      </trkpt>
      <trkpt lat="47.503404" lon="8.024849">
        <ele>357.504142</ele>
        <time>2021-11-14T19:28:24.493Z</time>
      </trkpt>
      <trkpt lat="47.503907" lon="8.023817">
        <ele>356.676396</ele>
        <time>2021-11-14T19:28:35.564Z</time>
      </trkpt>
      <trkpt lat="47.504056" lon="8.023411">
        <ele>356.244593</ele>
        <time>2021-11-14T19:28:39.251Z</time>
      </trkpt>
      <trkpt lat="47.504432" lon="8.023537">
        <ele>355.711267</ele>
        <time>2021-11-14T19:28:43.786Z</time>
      </trkpt>
      <trkpt lat="47.504531" lon="8.023550">
        <ele>355.573771</ele>
        <time>2021-11-14T19:28:44.897Z</time>
      </trkpt>
      <trkpt lat="47.504579" lon="8.023556">
        <ele>355.507131</ele>
        <time>2021-11-14T19:28:45.442Z</time>
      </trkpt>
      <trkpt lat="47.504759" lon="8.023499">
        <ele>355.252482</ele>
        <time>2021-11-14T19:28:47.574Z</time>
      </trkpt>
      <trkpt lat="47.504935" lon="8.023341">
        <ele>354.967727</ele>
        <time>2021-11-14T19:28:49.922Z</time>
      </trkpt>
      <trkpt lat="47.504983" lon="8.023284">
        <ele>354.882598</ele>
        <time>2021-11-14T19:28:50.671Z</time>
      </trkpt>
      <trkpt lat="47.505029" lon="8.023398">
        <ele>354.758502</ele>
        <time>2021-11-14T19:28:51.635Z</time>
      </trkpt>
      <trkpt lat="47.505657" lon="8.024171">
        <ele>353.120283</ele>
        <time>2021-11-14T19:29:00.675Z</time>
      </trkpt>
      <trkpt lat="47.505697" lon="8.024216">
        <ele>353.009359</ele>
        <time>2021-11-14T19:29:01.162Z</time>
      </trkpt>
      <trkpt lat="47.505796" lon="8.024010">
        <ele>352.632296</ele>
        <time>2021-11-14T19:29:03.056Z</time>
      </trkpt>
      <trkpt lat="47.505883" lon="8.023827">
        <ele>352.298540</ele>
        <time>2021-11-14T19:29:04.678Z</time>
      </trkpt>
      <trkpt lat="47.506199" lon="8.023103">
        <ele>351.012932</ele>
        <time>2021-11-14T19:29:10.921Z</time>
      </trkpt>
      <trkpt lat="47.506232" lon="8.023038">
        <ele>350.891660</ele>
        <time>2021-11-14T19:29:11.524Z</time>
      </trkpt>
      <trkpt lat="47.506258" lon="8.022985">
        <ele>350.793967</ele>
        <time>2021-11-14T19:29:12.006Z</time>
      </trkpt>
      <trkpt lat="47.506468" lon="8.022553">
        <ele>349.886745</ele>
        <time>2021-11-14T19:29:15.814Z</time>
      </trkpt>
      <trkpt lat="47.506535" lon="8.022414">
        <ele>349.575444</ele>
        <time>2021-11-14T19:29:16.966Z</time>
      </trkpt>
      <trkpt lat="47.506621" lon="8.022234">
        <ele>349.173514</ele>
        <time>2021-11-14T19:29:18.558Z</time>
      </trkpt>
      <trkpt lat="47.506655" lon="8.022123">
        <ele>348.951325</ele>
        <time>2021-11-14T19:29:19.420Z</time>
      </trkpt>
      <trkpt lat="47.506678" lon="8.022015">
        <ele>348.744885</ele>
        <time>2021-11-14T19:29:20.202Z</time>
      </trkpt>
      <trkpt lat="47.506735" lon="8.021861">
        <ele>348.424756</ele>
        <time>2021-11-14T19:29:21.443Z</time>
      </trkpt>
      <trkpt lat="47.506867" lon="8.021604">
        <ele>347.836186</ele>
        <time>2021-11-14T19:29:23.671Z</time>
      </trkpt>
      <trkpt lat="47.506910" lon="8.021529">
        <ele>347.656850</ele>
        <time>2021-11-14T19:29:24.339Z</time>
      </trkpt>
      <trkpt lat="47.506949" lon="8.021459">
        <ele>347.491433</ele>
        <time>2021-11-14T19:29:25.008Z</time>
      </trkpt>
      <trkpt lat="47.507007" lon="8.021362">
        <ele>347.255274</ele>
        <time>2021-11-14T19:29:25.901Z</time>
      </trkpt>
      <trkpt lat="47.507213" lon="8.021061">
        <ele>346.474133</ele>
        <time>2021-11-14T19:29:28.889Z</time>
      </trkpt>
      <trkpt lat="47.507466" lon="8.020697">
        <ele>345.592516</ele>
        <time>2021-11-14T19:29:32.557Z</time>
      </trkpt>
      <trkpt lat="47.507609" lon="8.020484">
        <ele>345.332660</ele>
        <time>2021-11-14T19:29:34.697Z</time>
      </trkpt>
      <trkpt lat="47.507666" lon="8.020400">
        <ele>345.229633</ele>
        <time>2021-11-14T19:29:35.559Z</time>
      </trkpt>
      <trkpt lat="47.507863" lon="8.020075">
        <ele>344.851786</ele>
        <time>2021-11-14T19:29:38.754Z</time>
      </trkpt>
      <trkpt lat="47.507895" lon="8.020117">
        <ele>344.797004</ele>
        <time>2021-11-14T19:29:39.216Z</time>
      </trkpt>
      <trkpt lat="47.507995" lon="8.020296">
        <ele>344.596008</ele>
        <time>2021-11-14T19:29:40.997Z</time>
      </trkpt>
      <trkpt lat="47.508000" lon="8.020315">
        <ele>344.578364</ele>
        <time>2021-11-14T19:29:41.128Z</time>
      </trkpt>
      <trkpt lat="47.508039" lon="8.020467">
        <ele>344.437671</ele>
        <time>2021-11-14T19:29:42.332Z</time>
      </trkpt>
      <trkpt lat="47.508194" lon="8.021281">
        <ele>343.705874</ele>
        <time>2021-11-14T19:29:49.061Z</time>
      </trkpt>
      <trkpt lat="47.508213" lon="8.021364">
        <ele>343.630043</ele>
        <time>2021-11-14T19:29:49.880Z</time>
      </trkpt>
      <trkpt lat="47.508331" lon="8.021703">
        <ele>343.443861</ele>
        <time>2021-11-14T19:29:54.930Z</time>
      </trkpt>
      <trkpt lat="47.508453" lon="8.021990">
        <ele>343.960020</ele>
        <time>2021-11-14T19:29:59.144Z</time>
      </trkpt>
      <trkpt lat="47.508643" lon="8.022392">
        <ele>344.706834</ele>
        <time>2021-11-14T19:30:06.638Z</time>
      </trkpt>
      <trkpt lat="47.508786" lon="8.022604">
        <ele>345.162868</ele>
        <time>2021-11-14T19:30:12.312Z</time>
      </trkpt>
      <trkpt lat="47.508863" lon="8.022719">
        <ele>345.409338</ele>
        <time>2021-11-14T19:30:15.064Z</time>
      </trkpt>
      <trkpt lat="47.508958" lon="8.022838">
        <ele>345.689761</ele>
        <time>2021-11-14T19:30:19.014Z</time>
      </trkpt>
      <trkpt lat="47.509187" lon="8.023037">
        <ele>346.288124</ele>
        <time>2021-11-14T19:30:26.577Z</time>
      </trkpt>
      <trkpt lat="47.509313" lon="8.023129">
        <ele>346.604708</ele>
        <time>2021-11-14T19:30:30.619Z</time>
      </trkpt>
      <trkpt lat="47.509881" lon="8.023632">
        <ele>347.572028</ele>
        <time>2021-11-14T19:30:46.694Z</time>
      </trkpt>
      <trkpt lat="47.510365" lon="8.024216">
        <ele>347.911650</ele>
        <time>2021-11-14T19:31:00.192Z</time>
      </trkpt>
      <trkpt lat="47.510388" lon="8.024167">
        <ele>347.933572</ele>
        <time>2021-11-14T19:31:00.715Z</time>
      </trkpt>
      <trkpt lat="47.510638" lon="8.023374">
        <ele>348.255090</ele>
        <time>2021-11-14T19:31:13.103Z</time>
      </trkpt>
      <trkpt lat="47.510740" lon="8.023224">
        <ele>348.333289</ele>
        <time>2021-11-14T19:31:15.114Z</time>
      </trkpt>
      <trkpt lat="47.510917" lon="8.022984">
        <ele>348.022944</ele>
        <time>2021-11-14T19:31:19.726Z</time>
      </trkpt>
      <trkpt lat="47.510935" lon="8.022959">
        <ele>347.962614</ele>
        <time>2021-11-14T19:31:20.070Z</time>
      </trkpt>
      <trkpt lat="47.512343" lon="8.021241">
        <ele>343.575634</ele>
        <time>2021-11-14T19:31:47.176Z</time>
      </trkpt>
      <trkpt lat="47.512778" lon="8.020828">
        <ele>342.502777</ele>
        <time>2021-11-14T19:31:55.370Z</time>
      </trkpt>
      <trkpt lat="47.513167" lon="8.020663">
        <ele>341.662674</ele>
        <time>2021-11-14T19:32:01.689Z</time>
      </trkpt>
      <trkpt lat="47.513856" lon="8.020390">
        <ele>340.212306</ele>
        <time>2021-11-14T19:32:13.056Z</time>
      </trkpt>
      <trkpt lat="47.514214" lon="8.020312">
        <ele>339.783464</ele>
        <time>2021-11-14T19:32:19.042Z</time>
      </trkpt>
      <trkpt lat="47.514447" lon="8.020326">
        <ele>339.507104</ele>
        <time>2021-11-14T19:32:22.897Z</time>
      </trkpt>
      <trkpt lat="47.514678" lon="8.020338">
        <ele>339.233172</ele>
        <time>2021-11-14T19:32:26.855Z</time>
      </trkpt>
      <trkpt lat="47.514794" lon="8.020346">
        <ele>339.095549</ele>
        <time>2021-11-14T19:32:28.819Z</time>
      </trkpt>
      <trkpt lat="47.515011" lon="8.020364">
        <ele>338.837975</ele>
        <time>2021-11-14T19:32:32.590Z</time>
      </trkpt>
      <trkpt lat="47.515050" lon="8.020367">
        <ele>338.791693</ele>
        <time>2021-11-14T19:32:33.261Z</time>
      </trkpt>
      <trkpt lat="47.515452" lon="8.020407">
        <ele>338.314200</ele>
        <time>2021-11-14T19:32:40.279Z</time>
      </trkpt>
      <trkpt lat="47.515648" lon="8.020395">
        <ele>338.109489</ele>
        <time>2021-11-14T19:32:43.797Z</time>
      </trkpt>
      <trkpt lat="47.515685" lon="8.020393">
        <ele>338.096503</ele>
        <time>2021-11-14T19:32:44.448Z</time>
      </trkpt>
      <trkpt lat="47.516146" lon="8.020218">
        <ele>337.929582</ele>
        <time>2021-11-14T19:32:53.128Z</time>
      </trkpt>
      <trkpt lat="47.516172" lon="8.020201">
        <ele>337.919613</ele>
        <time>2021-11-14T19:32:53.625Z</time>
      </trkpt>
      <trkpt lat="47.516265" lon="8.020138">
        <ele>337.883742</ele>
        <time>2021-11-14T19:32:55.475Z</time>
      </trkpt>
      <trkpt lat="47.516418" lon="8.020012">
        <ele>337.822336</ele>
        <time>2021-11-14T19:32:58.896Z</time>
      </trkpt>
      <trkpt lat="47.516592" lon="8.019879">
        <ele>337.753655</ele>
        <time>2021-11-14T19:33:02.572Z</time>
      </trkpt>
      <trkpt lat="47.516606" lon="8.019868">
        <ele>337.748096</ele>
        <time>2021-11-14T19:33:02.959Z</time>
      </trkpt>
      <trkpt lat="47.516775" lon="8.019794">
        <ele>337.686283</ele>
        <time>2021-11-14T19:33:06.474Z</time>
      </trkpt>
      <trkpt lat="47.516798" lon="8.019784">
        <ele>337.677876</ele>
        <time>2021-11-14T19:33:06.989Z</time>
      </trkpt>
      <trkpt lat="47.517087" lon="8.019737">
        <ele>337.575902</ele>
        <time>2021-11-14T19:33:12.711Z</time>
      </trkpt>
      <trkpt lat="47.517205" lon="8.019691">
        <ele>337.533104</ele>
        <time>2021-11-14T19:33:14.966Z</time>
      </trkpt>
      <trkpt lat="47.517322" lon="8.019626">
        <ele>337.490131</ele>
        <time>2021-11-14T19:33:17.585Z</time>
      </trkpt>
      <trkpt lat="47.517543" lon="8.019449">
        <ele>337.475295</ele>
        <time>2021-11-14T19:33:22.739Z</time>
      </trkpt>
      <trkpt lat="47.517699" lon="8.019320">
        <ele>337.464744</ele>
        <time>2021-11-14T19:33:25.594Z</time>
      </trkpt>
      <trkpt lat="47.517787" lon="8.019247">
        <ele>337.458788</ele>
        <time>2021-11-14T19:33:27.322Z</time>
      </trkpt>
      <trkpt lat="47.517873" lon="8.019154">
        <ele>337.452500</ele>
        <time>2021-11-14T19:33:28.810Z</time>
      </trkpt>
      <trkpt lat="47.517945" lon="8.019080">
        <ele>337.447325</ele>
        <time>2021-11-14T19:33:30.468Z</time>
      </trkpt>
      <trkpt lat="47.518228" lon="8.018741">
        <ele>337.425831</ele>
        <time>2021-11-14T19:33:36.578Z</time>
      </trkpt>
      <trkpt lat="47.518485" lon="8.018258">
        <ele>337.401310</ele>
        <time>2021-11-14T19:33:42.390Z</time>
      </trkpt>
      <trkpt lat="47.518569" lon="8.018073">
        <ele>337.392420</ele>
        <time>2021-11-14T19:33:44.296Z</time>
      </trkpt>
      <trkpt lat="47.518733" lon="8.017694">
        <ele>337.210282</ele>
        <time>2021-11-14T19:33:48.221Z</time>
      </trkpt>
      <trkpt lat="47.518855" lon="8.017453">
        <ele>336.993471</ele>
        <time>2021-11-14T19:33:50.764Z</time>
      </trkpt>
      <trkpt lat="47.519079" lon="8.017167">
        <ele>336.678207</ele>
        <time>2021-11-14T19:33:54.272Z</time>
      </trkpt>
      <trkpt lat="47.519096" lon="8.017126">
        <ele>336.643574</ele>
        <time>2021-11-14T19:33:54.640Z</time>
      </trkpt>
      <trkpt lat="47.519107" lon="8.017079">
        <ele>336.607768</ele>
        <time>2021-11-14T19:33:55.055Z</time>
      </trkpt>
      <trkpt lat="47.519117" lon="8.017042">
        <ele>336.579080</ele>
        <time>2021-11-14T19:33:55.396Z</time>
      </trkpt>
      <trkpt lat="47.519123" lon="8.016537">
        <ele>336.215501</ele>
        <time>2021-11-14T19:33:59.434Z</time>
      </trkpt>
      <trkpt lat="47.519126" lon="8.016373">
        <ele>336.097403</ele>
        <time>2021-11-14T19:34:00.922Z</time>
      </trkpt>
      <trkpt lat="47.519171" lon="8.016191">
        <ele>335.957887</ele>
        <time>2021-11-14T19:34:02.355Z</time>
      </trkpt>
      <trkpt lat="47.519228" lon="8.016109">
        <ele>335.873178</ele>
        <time>2021-11-14T19:34:03.301Z</time>
      </trkpt>
      <trkpt lat="47.519330" lon="8.015986">
        <ele>335.732965</ele>
        <time>2021-11-14T19:34:04.969Z</time>
      </trkpt>
      <trkpt lat="47.519346" lon="8.015845">
        <ele>335.630044</ele>
        <time>2021-11-14T19:34:06.009Z</time>
      </trkpt>
      <trkpt lat="47.519424" lon="8.015360">
        <ele>335.356301</ele>
        <time>2021-11-14T19:34:10.017Z</time>
      </trkpt>
      <trkpt lat="47.519518" lon="8.015145">
        <ele>335.252115</ele>
        <time>2021-11-14T19:34:12.033Z</time>
      </trkpt>
      <trkpt lat="47.519564" lon="8.015041">
        <ele>335.201543</ele>
        <time>2021-11-14T19:34:13.207Z</time>
      </trkpt>
      <trkpt lat="47.519666" lon="8.015011">
        <ele>335.138905</ele>
        <time>2021-11-14T19:34:14.455Z</time>
      </trkpt>
      <trkpt lat="47.520115" lon="8.014648">
        <ele>334.830770</ele>
        <time>2021-11-14T19:34:21.036Z</time>
      </trkpt>
      <trkpt lat="47.520539" lon="8.014558">
        <ele>334.572768</ele>
        <time>2021-11-14T19:34:27.357Z</time>
      </trkpt>
      <trkpt lat="47.520848" lon="8.014542">
        <ele>334.386531</ele>
        <time>2021-11-14T19:34:31.802Z</time>
      </trkpt>
      <trkpt lat="47.520953" lon="8.014530">
        <ele>334.372622</ele>
        <time>2021-11-14T19:34:33.137Z</time>
      </trkpt>
      <trkpt lat="47.521150" lon="8.014447">
        <ele>334.350332</ele>
        <time>2021-11-14T19:34:36.348Z</time>
      </trkpt>
      <trkpt lat="47.521292" lon="8.014319">
        <ele>334.332241</ele>
        <time>2021-11-14T19:34:38.549Z</time>
      </trkpt>
      <trkpt lat="47.521454" lon="8.014134">
        <ele>334.309978</ele>
        <time>2021-11-14T19:34:41.745Z</time>
      </trkpt>
      <trkpt lat="47.521508" lon="8.014076">
        <ele>334.302718</ele>
        <time>2021-11-14T19:34:42.686Z</time>
      </trkpt>
      <trkpt lat="47.521532" lon="8.014046">
        <ele>334.299300</ele>
        <time>2021-11-14T19:34:43.137Z</time>
      </trkpt>
      <trkpt lat="47.521611" lon="8.013949">
        <ele>334.288132</ele>
        <time>2021-11-14T19:34:44.400Z</time>
      </trkpt>
      <trkpt lat="47.521782" lon="8.013652">
        <ele>334.259450</ele>
        <time>2021-11-14T19:34:48.635Z</time>
      </trkpt>
      <trkpt lat="47.521857" lon="8.013314">
        <ele>334.233303</ele>
        <time>2021-11-14T19:34:52.287Z</time>
      </trkpt>
      <trkpt lat="47.521867" lon="8.013168">
        <ele>334.222519</ele>
        <time>2021-11-14T19:34:53.713Z</time>
      </trkpt>
      <trkpt lat="47.521884" lon="8.013019">
        <ele>334.211413</ele>
        <time>2021-11-14T19:34:55.453Z</time>
      </trkpt>
      <trkpt lat="47.521999" lon="8.011997">
        <ele>334.375281</ele>
        <time>2021-11-14T19:35:09.089Z</time>
      </trkpt>
      <trkpt lat="47.522135" lon="8.011541">
        <ele>334.506014</ele>
        <time>2021-11-14T19:35:16.134Z</time>
      </trkpt>
      <trkpt lat="47.522752" lon="8.010942">
        <ele>334.792532</ele>
        <time>2021-11-14T19:35:33.190Z</time>
      </trkpt>
      <trkpt lat="47.523475" lon="8.009886">
        <ele>335.309914</ele>
        <time>2021-11-14T19:35:57.255Z</time>
      </trkpt>
      <trkpt lat="47.523750" lon="8.009595">
        <ele>335.494889</ele>
        <time>2021-11-14T19:36:04.896Z</time>
      </trkpt>
      <trkpt lat="47.525125" lon="8.008474">
        <ele>335.528486</ele>
        <time>2021-11-14T19:36:37.977Z</time>
      </trkpt>
      <trkpt lat="47.525704" lon="8.008036">
        <ele>335.276527</ele>
        <time>2021-11-14T19:36:49.686Z</time>
      </trkpt>
      <trkpt lat="47.526398" lon="8.007517">
        <ele>334.307918</ele>
        <time>2021-11-14T19:37:02.662Z</time>
      </trkpt>
      <trkpt lat="47.527466" lon="8.006442">
        <ele>332.123765</ele>
        <time>2021-11-14T19:37:23.218Z</time>
      </trkpt>
      <trkpt lat="47.528852" lon="8.005150">
        <ele>329.163154</ele>
        <time>2021-11-14T19:37:49.309Z</time>
      </trkpt>
      <trkpt lat="47.529337" lon="8.004498">
        <ele>327.793077</ele>
        <time>2021-11-14T19:38:00.063Z</time>
      </trkpt>
      <trkpt lat="47.529391" lon="8.004422">
        <ele>327.630631</ele>
        <time>2021-11-14T19:38:01.251Z</time>
      </trkpt>
      <trkpt lat="47.530077" lon="8.003471">
        <ele>325.581600</ele>
        <time>2021-11-14T19:38:15.550Z</time>
      </trkpt>
      <trkpt lat="47.531127" lon="8.002157">
        <ele>322.919664</ele>
        <time>2021-11-14T19:38:36.616Z</time>
      </trkpt>
      <trkpt lat="47.531407" lon="8.001793">
        <ele>322.222094</ele>
        <time>2021-11-14T19:38:42.354Z</time>
      </trkpt>
      <trkpt lat="47.531713" lon="8.001270">
        <ele>321.810653</ele>
        <time>2021-11-14T19:38:49.996Z</time>
      </trkpt>
      <trkpt lat="47.531789" lon="8.001140">
        <ele>322.007086</ele>
        <time>2021-11-14T19:38:53.143Z</time>
      </trkpt>
      <trkpt lat="47.532176" lon="8.000088">
        <ele>323.375587</ele>
        <time>2021-11-14T19:39:14.821Z</time>
      </trkpt>
      <trkpt lat="47.532283" lon="7.999633">
        <ele>323.925959</ele>
        <time>2021-11-14T19:39:25.026Z</time>
      </trkpt>
      <trkpt lat="47.532518" lon="7.999729">
        <ele>324.338391</ele>
        <time>2021-11-14T19:39:31.864Z</time>
      </trkpt>
      <trkpt lat="47.532553" lon="7.999760">
        <ele>324.407387</ele>
        <time>2021-11-14T19:39:33.363Z</time>
      </trkpt>
      <trkpt lat="47.532577" lon="7.999781">
        <ele>324.454548</ele>
        <time>2021-11-14T19:39:35.272Z</time>
      </trkpt>
      <trkpt lat="47.532664" lon="7.999794">
        <ele>324.602487</ele>
        <time>2021-11-14T19:39:37.731Z</time>
      </trkpt>
      <trkpt lat="47.532735" lon="7.999727">
        <ele>324.896845</ele>
        <time>2021-11-14T19:39:40.164Z</time>
      </trkpt>
      <trkpt lat="47.533029" lon="7.999334">
        <ele>326.482326</ele>
        <time>2021-11-14T19:39:54.251Z</time>
      </trkpt>
      <trkpt lat="47.533962" lon="7.998088">
        <ele>331.511652</ele>
        <time>2021-11-14T19:40:43.556Z</time>
      </trkpt>
      <trkpt lat="47.534094" lon="7.997948">
        <ele>331.883345</ele>
        <time>2021-11-14T19:40:49.174Z</time>
      </trkpt>
      <trkpt lat="47.534180" lon="7.997821">
        <ele>331.956025</ele>
        <time>2021-11-14T19:40:53.813Z</time>
      </trkpt>
      <trkpt lat="47.534939" lon="7.996993">
        <ele>332.520175</ele>
        <time>2021-11-14T19:41:17.265Z</time>
      </trkpt>
      <trkpt lat="47.535085" lon="7.996814">
        <ele>332.633603</ele>
        <time>2021-11-14T19:41:20.987Z</time>
      </trkpt>
      <trkpt lat="47.535402" lon="7.996333">
        <ele>332.905198</ele>
        <time>2021-11-14T19:41:28.342Z</time>
      </trkpt>
      <trkpt lat="47.535464" lon="7.996209">
        <ele>332.465588</ele>
        <time>2021-11-14T19:41:29.997Z</time>
      </trkpt>
      <trkpt lat="47.535250" lon="7.995925">
        <ele>331.114337</ele>
        <time>2021-11-14T19:41:34.046Z</time>
      </trkpt>
      <trkpt lat="47.535246" lon="7.995853">
        <ele>330.884964</ele>
        <time>2021-11-14T19:41:34.783Z</time>
      </trkpt>
      <trkpt lat="47.535236" lon="7.995706">
        <ele>330.415876</ele>
        <time>2021-11-14T19:41:36.221Z</time>
      </trkpt>
      <trkpt lat="47.535418" lon="7.993683">
        <ele>324.115290</ele>
        <time>2021-11-14T19:41:54.379Z</time>
      </trkpt>
      <trkpt lat="47.535621" lon="7.993049">
        <ele>322.660855</ele>
        <time>2021-11-14T19:42:00.802Z</time>
      </trkpt>
      <trkpt lat="47.535662" lon="7.992755">
        <ele>322.038598</ele>
        <time>2021-11-14T19:42:03.675Z</time>
      </trkpt>
      <trkpt lat="47.535601" lon="7.992617">
        <ele>321.696702</ele>
        <time>2021-11-14T19:42:05.274Z</time>
      </trkpt>
      <trkpt lat="47.535603" lon="7.992576">
        <ele>321.611497</ele>
        <time>2021-11-14T19:42:06.154Z</time>
      </trkpt>
      <trkpt lat="47.535497" lon="7.992318">
        <ele>320.985484</ele>
        <time>2021-11-14T19:42:09.227Z</time>
      </trkpt>
      <trkpt lat="47.535110" lon="7.991631">
        <ele>319.130902</ele>
        <time>2021-11-14T19:42:19.224Z</time>
      </trkpt>
      <trkpt lat="47.534860" lon="7.991148">
        <ele>319.096994</ele>
        <time>2021-11-14T19:42:26.850Z</time>
      </trkpt>
      <trkpt lat="47.534644" lon="7.990797">
        <ele>319.251806</ele>
        <time>2021-11-14T19:42:33.351Z</time>
      </trkpt>
      <trkpt lat="47.534606" lon="7.990590">
        <ele>319.321731</ele>
        <time>2021-11-14T19:42:36.697Z</time>
      </trkpt>
      <trkpt lat="47.534609" lon="7.990394">
        <ele>319.385637</ele>
        <time>2021-11-14T19:42:40.307Z</time>
      </trkpt>
      <trkpt lat="47.534723" lon="7.989575">
        <ele>319.658219</ele>
        <time>2021-11-14T19:42:54.893Z</time>
      </trkpt>
      <trkpt lat="47.534771" lon="7.988562">
        <ele>319.538635</ele>
        <time>2021-11-14T19:43:11.673Z</time>
      </trkpt>
      <trkpt lat="47.534795" lon="7.988078">
        <ele>319.322949</ele>
        <time>2021-11-14T19:43:17.946Z</time>
      </trkpt>
      <trkpt lat="47.534985" lon="7.988144">
        <ele>319.194482</ele>
        <time>2021-11-14T19:43:20.182Z</time>
      </trkpt>
      <trkpt lat="47.535196" lon="7.988134">
        <ele>319.055513</ele>
        <time>2021-11-14T19:43:22.916Z</time>
      </trkpt>
      <trkpt lat="47.535393" lon="7.988043">
        <ele>318.919671</ele>
        <time>2021-11-14T19:43:25.344Z</time>
      </trkpt>
      <trkpt lat="47.535735" lon="7.987639">
        <ele>318.631708</ele>
        <time>2021-11-14T19:43:30.341Z</time>
      </trkpt>
      <trkpt lat="47.535862" lon="7.987408">
        <ele>318.373799</ele>
        <time>2021-11-14T19:43:32.479Z</time>
      </trkpt>
      <trkpt lat="47.535935" lon="7.987272">
        <ele>318.212492</ele>
        <time>2021-11-14T19:43:33.790Z</time>
      </trkpt>
      <trkpt lat="47.536140" lon="7.986963">
        <ele>317.810283</ele>
        <time>2021-11-14T19:43:36.817Z</time>
      </trkpt>
      <trkpt lat="47.536465" lon="7.986660">
        <ele>317.282193</ele>
        <time>2021-11-14T19:43:40.958Z</time>
      </trkpt>
      <trkpt lat="47.536685" lon="7.986543">
        <ele>316.960748</ele>
        <time>2021-11-14T19:43:43.848Z</time>
      </trkpt>
      <trkpt lat="47.536796" lon="7.986519">
        <ele>316.806487</ele>
        <time>2021-11-14T19:43:45.094Z</time>
      </trkpt>
      <trkpt lat="47.537167" lon="7.986470">
        <ele>316.294277</ele>
        <time>2021-11-14T19:43:50.136Z</time>
      </trkpt>
      <trkpt lat="47.537409" lon="7.986449">
        <ele>316.235066</ele>
        <time>2021-11-14T19:43:54.189Z</time>
      </trkpt>
      <trkpt lat="47.537821" lon="7.986433">
        <ele>316.530472</ele>
        <time>2021-11-14T19:44:00.676Z</time>
      </trkpt>
      <trkpt lat="47.537815" lon="7.986191">
        <ele>316.647652</ele>
        <time>2021-11-14T19:44:03.417Z</time>
      </trkpt>
      <trkpt lat="47.537812" lon="7.986127">
        <ele>316.678695</ele>
        <time>2021-11-14T19:44:04.780Z</time>
      </trkpt>
      <trkpt lat="47.537884" lon="7.985939">
        <ele>316.783284</ele>
        <time>2021-11-14T19:44:06.726Z</time>
      </trkpt>
      <trkpt lat="47.538208" lon="7.985592">
        <ele>317.069856</ele>
        <time>2021-11-14T19:44:14.389Z</time>
      </trkpt>
      <trkpt lat="47.538891" lon="7.984830">
        <ele>317.319429</ele>
        <time>2021-11-14T19:44:31.620Z</time>
      </trkpt>
      <trkpt lat="47.538988" lon="7.984674">
        <ele>317.274339</ele>
        <time>2021-11-14T19:44:34.991Z</time>
      </trkpt>
      <trkpt lat="47.539141" lon="7.984006">
        <ele>317.124368</ele>
        <time>2021-11-14T19:44:42.280Z</time>
      </trkpt>
      <trkpt lat="47.539266" lon="7.983513">
        <ele>317.012406</ele>
        <time>2021-11-14T19:44:46.478Z</time>
      </trkpt>
      <trkpt lat="47.539359" lon="7.983508">
        <ele>316.983099</ele>
        <time>2021-11-14T19:44:47.909Z</time>
      </trkpt>
      <trkpt lat="47.539746" lon="7.983424">
        <ele>316.832896</ele>
        <time>2021-11-14T19:44:54.215Z</time>
      </trkpt>
      <trkpt lat="47.540009" lon="7.983581">
        <ele>316.134910</ele>
        <time>2021-11-14T19:44:58.778Z</time>
      </trkpt>
      <trkpt lat="47.540197" lon="7.983795">
        <ele>315.551282</ele>
        <time>2021-11-14T19:45:02.462Z</time>
      </trkpt>
      <trkpt lat="47.540570" lon="7.984220">
        <ele>314.392921</ele>
        <time>2021-11-14T19:45:09.624Z</time>
      </trkpt>
      <trkpt lat="47.540609" lon="7.984254">
        <ele>314.281528</ele>
        <time>2021-11-14T19:45:10.258Z</time>
      </trkpt>
      <trkpt lat="47.540750" lon="7.984343">
        <ele>313.904251</ele>
        <time>2021-11-14T19:45:12.490Z</time>
      </trkpt>
      <trkpt lat="47.541183" lon="7.984395">
        <ele>312.834894</ele>
        <time>2021-11-14T19:45:18.953Z</time>
      </trkpt>
      <trkpt lat="47.541734" lon="7.984406">
        <ele>311.713557</ele>
        <time>2021-11-14T19:45:27.200Z</time>
      </trkpt>
      <trkpt lat="47.542126" lon="7.984398">
        <ele>310.985379</ele>
        <time>2021-11-14T19:45:33.265Z</time>
      </trkpt>
      <trkpt lat="47.542208" lon="7.984399">
        <ele>310.833066</ele>
        <time>2021-11-14T19:45:34.159Z</time>
      </trkpt>
      <trkpt lat="47.542145" lon="7.983983">
        <ele>310.298501</ele>
        <time>2021-11-14T19:45:37.444Z</time>
      </trkpt>
      <trkpt lat="47.542068" lon="7.983338">
        <ele>309.477219</ele>
        <time>2021-11-14T19:45:42.523Z</time>
      </trkpt>
      <trkpt lat="47.542087" lon="7.982565">
        <ele>309.112832</ele>
        <time>2021-11-14T19:45:48.836Z</time>
      </trkpt>
      <trkpt lat="47.542122" lon="7.980765">
        <ele>309.179137</ele>
        <time>2021-11-14T19:46:07.638Z</time>
      </trkpt>
      <trkpt lat="47.542138" lon="7.980233">
        <ele>309.325599</ele>
        <time>2021-11-14T19:46:14.423Z</time>
      </trkpt>
      <trkpt lat="47.542153" lon="7.979253">
        <ele>310.263238</ele>
        <time>2021-11-14T19:46:27.812Z</time>
      </trkpt>
      <trkpt lat="47.542119" lon="7.977479">
        <ele>311.967141</ele>
        <time>2021-11-14T19:46:53.462Z</time>
      </trkpt>
      <trkpt lat="47.542041" lon="7.976588">
        <ele>312.851477</ele>
        <time>2021-11-14T19:47:06.394Z</time>
      </trkpt>
      <trkpt lat="47.542030" lon="7.976464">
        <ele>312.974577</ele>
        <time>2021-11-14T19:47:08.409Z</time>
      </trkpt>
      <trkpt lat="47.541613" lon="7.974143">
        <ele>314.621827</ele>
        <time>2021-11-14T19:47:40.555Z</time>
      </trkpt>
      <trkpt lat="47.541444" lon="7.973570">
        <ele>314.784236</ele>
        <time>2021-11-14T19:47:47.651Z</time>
      </trkpt>
      <trkpt lat="47.541111" lon="7.971844">
        <ele>314.524749</ele>
        <time>2021-11-14T19:48:03.829Z</time>
      </trkpt>
      <trkpt lat="47.541050" lon="7.971427">
        <ele>314.220076</ele>
        <time>2021-11-14T19:48:07.330Z</time>
      </trkpt>
      <trkpt lat="47.541007" lon="7.971034">
        <ele>313.935789</ele>
        <time>2021-11-14T19:48:10.501Z</time>
      </trkpt>
      <trkpt lat="47.540930" lon="7.969589">
        <ele>312.808592</ele>
        <time>2021-11-14T19:48:21.851Z</time>
      </trkpt>
      <trkpt lat="47.540988" lon="7.968696">
        <ele>311.935164</ele>
        <time>2021-11-14T19:48:28.925Z</time>
      </trkpt>
      <trkpt lat="47.541122" lon="7.967754">
        <ele>310.997906</ele>
        <time>2021-11-14T19:48:36.957Z</time>
      </trkpt>
      <trkpt lat="47.541502" lon="7.965586">
        <ele>307.931892</ele>
        <time>2021-11-14T19:48:53.192Z</time>
      </trkpt>
      <trkpt lat="47.541593" lon="7.965571">
        <ele>307.732774</ele>
        <time>2021-11-14T19:48:54.155Z</time>
      </trkpt>
      <trkpt lat="47.541714" lon="7.965522">
        <ele>307.459981</ele>
        <time>2021-11-14T19:48:55.522Z</time>
      </trkpt>
      <trkpt lat="47.541930" lon="7.965431">
        <ele>306.971622</ele>
        <time>2021-11-14T19:48:57.942Z</time>
      </trkpt>
      <trkpt lat="47.542210" lon="7.965313">
        <ele>306.373725</ele>
        <time>2021-11-14T19:49:01.158Z</time>
      </trkpt>
      <trkpt lat="47.542210" lon="7.965313">
        <ele>306.373725</ele>
        <time>2021-11-14T19:49:01.160Z</time>
      </trkpt>
      <trkpt lat="47.542210" lon="7.965313">
        <ele>306.373725</ele>
        <time>2021-11-14T19:49:01.176Z</time>
      </trkpt>
      <trkpt lat="47.542271" lon="7.965269">
        <ele>306.242905</ele>
        <time>2021-11-14T19:49:02.214Z</time>
      </trkpt>
      <trkpt lat="47.542253" lon="7.965169">
        <ele>306.108198</ele>
        <time>2021-11-14T19:49:03.332Z</time>
      </trkpt>
      <trkpt lat="47.542508" lon="7.963499">
        <ele>303.879626</ele>
        <time>2021-11-14T19:49:21.237Z</time>
      </trkpt>
      <trkpt lat="47.542511" lon="7.963476">
        <ele>303.849136</ele>
        <time>2021-11-14T19:49:21.545Z</time>
      </trkpt>
      <trkpt lat="47.542516" lon="7.962915">
        <ele>303.135012</ele>
        <time>2021-11-14T19:49:28.018Z</time>
      </trkpt>
      <trkpt lat="47.542513" lon="7.962471">
        <ele>302.707689</ele>
        <time>2021-11-14T19:49:33.079Z</time>
      </trkpt>
      <trkpt lat="47.542619" lon="7.961728">
        <ele>301.976838</ele>
        <time>2021-11-14T19:49:41.922Z</time>
      </trkpt>
      <trkpt lat="47.542689" lon="7.961423">
        <ele>301.666808</ele>
        <time>2021-11-14T19:49:45.393Z</time>
      </trkpt>
      <trkpt lat="47.542731" lon="7.961265">
        <ele>301.503386</ele>
        <time>2021-11-14T19:49:47.367Z</time>
      </trkpt>
      <trkpt lat="47.542800" lon="7.960973">
        <ele>301.205649</ele>
        <time>2021-11-14T19:49:50.693Z</time>
      </trkpt>
      <trkpt lat="47.542861" lon="7.960776">
        <ele>300.997064</ele>
        <time>2021-11-14T19:49:53.131Z</time>
      </trkpt>
      <trkpt lat="47.542960" lon="7.960501">
        <ele>300.697125</ele>
        <time>2021-11-14T19:49:56.440Z</time>
      </trkpt>
      <trkpt lat="47.543357" lon="7.959668">
        <ele>300.251155</ele>
        <time>2021-11-14T19:50:07.980Z</time>
      </trkpt>
      <trkpt lat="47.543357" lon="7.959659">
        <ele>300.247642</ele>
        <time>2021-11-14T19:50:08.059Z</time>
      </trkpt>
      <trkpt lat="47.543374" lon="7.959437">
        <ele>300.160426</ele>
        <time>2021-11-14T19:50:10.733Z</time>
      </trkpt>
      <trkpt lat="47.543322" lon="7.959242">
        <ele>300.078582</ele>
        <time>2021-11-14T19:50:13.295Z</time>
      </trkpt>
      <trkpt lat="47.543178" lon="7.959043">
        <ele>299.964701</ele>
        <time>2021-11-14T19:50:16.971Z</time>
      </trkpt>
      <trkpt lat="47.542693" lon="7.958608">
        <ele>299.636834</ele>
        <time>2021-11-14T19:50:29.272Z</time>
      </trkpt>
      <trkpt lat="47.542441" lon="7.958428">
        <ele>299.633978</ele>
        <time>2021-11-14T19:50:35.049Z</time>
      </trkpt>
      <trkpt lat="47.542337" lon="7.958347">
        <ele>299.672606</ele>
        <time>2021-11-14T19:50:37.848Z</time>
      </trkpt>
      <trkpt lat="47.542259" lon="7.958287">
        <ele>299.701501</ele>
        <time>2021-11-14T19:50:39.716Z</time>
      </trkpt>
      <trkpt lat="47.541830" lon="7.958033">
        <ele>299.853385</ele>
        <time>2021-11-14T19:50:49.467Z</time>
      </trkpt>
      <trkpt lat="47.541700" lon="7.957963">
        <ele>299.898859</ele>
        <time>2021-11-14T19:50:52.815Z</time>
      </trkpt>
      <trkpt lat="47.541539" lon="7.957892">
        <ele>299.954084</ele>
        <time>2021-11-14T19:50:56.307Z</time>
      </trkpt>
      <trkpt lat="47.541305" lon="7.957787">
        <ele>300.034465</ele>
        <time>2021-11-14T19:51:01.895Z</time>
      </trkpt>
      <trkpt lat="47.541355" lon="7.957559">
        <ele>300.087668</ele>
        <time>2021-11-14T19:51:04.198Z</time>
      </trkpt>
      <trkpt lat="47.541450" lon="7.956897">
        <ele>300.168623</ele>
        <time>2021-11-14T19:51:11.893Z</time>
      </trkpt>
      <trkpt lat="47.541464" lon="7.956698">
        <ele>300.169213</ele>
        <time>2021-11-14T19:51:13.873Z</time>
      </trkpt>
      <trkpt lat="47.541533" lon="7.955526">
        <ele>300.172684</ele>
        <time>2021-11-14T19:51:25.188Z</time>
      </trkpt>
      <trkpt lat="47.541554" lon="7.955311">
        <ele>300.173324</ele>
        <time>2021-11-14T19:51:27.226Z</time>
      </trkpt>
      <trkpt lat="47.541735" lon="7.953892">
        <ele>300.277204</ele>
        <time>2021-11-14T19:51:41.435Z</time>
      </trkpt>
      <trkpt lat="47.541773" lon="7.953695">
        <ele>300.307404</ele>
        <time>2021-11-14T19:51:43.682Z</time>
      </trkpt>
      <trkpt lat="47.541791" lon="7.953601">
        <ele>300.321806</ele>
        <time>2021-11-14T19:51:44.717Z</time>
      </trkpt>
      <trkpt lat="47.541991" lon="7.952667">
        <ele>300.466236</ele>
        <time>2021-11-14T19:51:55.573Z</time>
      </trkpt>
      <trkpt lat="47.542169" lon="7.951815">
        <ele>300.597822</ele>
        <time>2021-11-14T19:52:05.311Z</time>
      </trkpt>
      <trkpt lat="47.542192" lon="7.951713">
        <ele>300.613741</ele>
        <time>2021-11-14T19:52:06.574Z</time>
      </trkpt>
      <trkpt lat="47.542357" lon="7.951037">
        <ele>300.720147</ele>
        <time>2021-11-14T19:52:14.038Z</time>
      </trkpt>
      <trkpt lat="47.542444" lon="7.950687">
        <ele>300.775357</ele>
        <time>2021-11-14T19:52:17.869Z</time>
      </trkpt>
      <trkpt lat="47.542546" lon="7.950274">
        <ele>300.840455</ele>
        <time>2021-11-14T19:52:22.216Z</time>
      </trkpt>
      <trkpt lat="47.542554" lon="7.950231">
        <ele>300.847058</ele>
        <time>2021-11-14T19:52:22.702Z</time>
      </trkpt>
      <trkpt lat="47.542560" lon="7.950202">
        <ele>300.851547</ele>
        <time>2021-11-14T19:52:23.036Z</time>
      </trkpt>
      <trkpt lat="47.542609" lon="7.949914">
        <ele>300.895512</ele>
        <time>2021-11-14T19:52:26.035Z</time>
      </trkpt>
      <trkpt lat="47.542719" lon="7.949175">
        <ele>301.174147</ele>
        <time>2021-11-14T19:52:33.938Z</time>
      </trkpt>
      <trkpt lat="47.542826" lon="7.948298">
        <ele>301.796353</ele>
        <time>2021-11-14T19:52:44.881Z</time>
      </trkpt>
      <trkpt lat="47.542838" lon="7.948225">
        <ele>301.848808</ele>
        <time>2021-11-14T19:52:45.708Z</time>
      </trkpt>
      <trkpt lat="47.542875" lon="7.948001">
        <ele>302.009809</ele>
        <time>2021-11-14T19:52:48.592Z</time>
      </trkpt>
      <trkpt lat="47.542928" lon="7.947798">
        <ele>302.161766</ele>
        <time>2021-11-14T19:52:51.515Z</time>
      </trkpt>
      <trkpt lat="47.542957" lon="7.947651">
        <ele>302.268688</ele>
        <time>2021-11-14T19:52:53.223Z</time>
      </trkpt>
      <trkpt lat="47.543050" lon="7.947411">
        <ele>302.461890</ele>
        <time>2021-11-14T19:52:57.587Z</time>
      </trkpt>
      <trkpt lat="47.543087" lon="7.947317">
        <ele>302.537859</ele>
        <time>2021-11-14T19:52:58.866Z</time>
      </trkpt>
      <trkpt lat="47.543092" lon="7.947257">
        <ele>302.580066</ele>
        <time>2021-11-14T19:52:59.655Z</time>
      </trkpt>
      <trkpt lat="47.543097" lon="7.947186">
        <ele>302.629904</ele>
        <time>2021-11-14T19:53:00.505Z</time>
      </trkpt>
      <trkpt lat="47.543086" lon="7.947052">
        <ele>302.724146</ele>
        <time>2021-11-14T19:53:02.335Z</time>
      </trkpt>
      <trkpt lat="47.543056" lon="7.946935">
        <ele>302.811525</ele>
        <time>2021-11-14T19:53:04.702Z</time>
      </trkpt>
      <trkpt lat="47.543045" lon="7.946881">
        <ele>302.873503</ele>
        <time>2021-11-14T19:53:05.814Z</time>
      </trkpt>
      <trkpt lat="47.542982" lon="7.946547">
        <ele>303.311309</ele>
        <time>2021-11-14T19:53:10.413Z</time>
      </trkpt>
      <trkpt lat="47.542974" lon="7.946495">
        <ele>303.378639</ele>
        <time>2021-11-14T19:53:11.626Z</time>
      </trkpt>
      <trkpt lat="47.542960" lon="7.946400">
        <ele>303.501396</ele>
        <time>2021-11-14T19:53:13.463Z</time>
      </trkpt>
      <trkpt lat="47.542916" lon="7.945730">
        <ele>304.351225</ele>
        <time>2021-11-14T19:53:24.039Z</time>
      </trkpt>
      <trkpt lat="47.542913" lon="7.945267">
        <ele>304.935763</ele>
        <time>2021-11-14T19:53:31.526Z</time>
      </trkpt>
      <trkpt lat="47.543007" lon="7.943867">
        <ele>306.267546</ele>
        <time>2021-11-14T19:53:52.265Z</time>
      </trkpt>
      <trkpt lat="47.543161" lon="7.942213">
        <ele>306.591907</ele>
        <time>2021-11-14T19:54:10.671Z</time>
      </trkpt>
      <trkpt lat="47.543435" lon="7.940670">
        <ele>305.708965</ele>
        <time>2021-11-14T19:54:23.619Z</time>
      </trkpt>
      <trkpt lat="47.543826" lon="7.939433">
        <ele>304.371610</ele>
        <time>2021-11-14T19:54:34.020Z</time>
      </trkpt>
      <trkpt lat="47.544472" lon="7.937932">
        <ele>302.273164</ele>
        <time>2021-11-14T19:54:47.344Z</time>
      </trkpt>
      <trkpt lat="47.544705" lon="7.937395">
        <ele>301.496649</ele>
        <time>2021-11-14T19:54:52.184Z</time>
      </trkpt>
      <trkpt lat="47.544903" lon="7.936917">
        <ele>300.823423</ele>
        <time>2021-11-14T19:54:56.444Z</time>
      </trkpt>
      <trkpt lat="47.545074" lon="7.936484">
        <ele>300.350515</ele>
        <time>2021-11-14T19:55:00.275Z</time>
      </trkpt>
      <trkpt lat="47.545457" lon="7.935110">
        <ele>298.949182</ele>
        <time>2021-11-14T19:55:11.644Z</time>
      </trkpt>
      <trkpt lat="47.545674" lon="7.933625">
        <ele>298.580268</ele>
        <time>2021-11-14T19:55:24.724Z</time>
      </trkpt>
      <trkpt lat="47.545702" lon="7.933290">
        <ele>298.671958</ele>
        <time>2021-11-14T19:55:28.304Z</time>
      </trkpt>
      <trkpt lat="47.545724" lon="7.932758">
        <ele>298.816734</ele>
        <time>2021-11-14T19:55:34.571Z</time>
      </trkpt>
      <trkpt lat="47.545721" lon="7.931992">
        <ele>299.024803</ele>
        <time>2021-11-14T19:55:44.610Z</time>
      </trkpt>
      <trkpt lat="47.545696" lon="7.931497">
        <ele>299.515778</ele>
        <time>2021-11-14T19:55:51.816Z</time>
      </trkpt>
      <trkpt lat="47.545661" lon="7.930955">
        <ele>300.227332</ele>
        <time>2021-11-14T19:56:00.511Z</time>
      </trkpt>
      <trkpt lat="47.545563" lon="7.929641">
        <ele>301.955002</ele>
        <time>2021-11-14T19:56:22.850Z</time>
      </trkpt>
      <trkpt lat="47.545475" lon="7.928419">
        <ele>302.083352</ele>
        <time>2021-11-14T19:56:39.153Z</time>
      </trkpt>
      <trkpt lat="47.545421" lon="7.927686">
        <ele>301.640658</ele>
        <time>2021-11-14T19:56:45.257Z</time>
      </trkpt>
      <trkpt lat="47.545406" lon="7.927306">
        <ele>301.412122</ele>
        <time>2021-11-14T19:56:48.160Z</time>
      </trkpt>
      <trkpt lat="47.545407" lon="7.927001">
        <ele>301.229002</ele>
        <time>2021-11-14T19:56:50.447Z</time>
      </trkpt>
      <trkpt lat="47.545409" lon="7.926773">
        <ele>301.092103</ele>
        <time>2021-11-14T19:56:52.076Z</time>
      </trkpt>
      <trkpt lat="47.545417" lon="7.925848">
        <ele>299.202010</ele>
        <time>2021-11-14T19:56:58.411Z</time>
      </trkpt>
      <trkpt lat="47.545446" lon="7.925350">
        <ele>297.929743</ele>
        <time>2021-11-14T19:57:01.703Z</time>
      </trkpt>
      <trkpt lat="47.545466" lon="7.924880">
        <ele>296.731078</ele>
        <time>2021-11-14T19:57:04.756Z</time>
      </trkpt>
      <trkpt lat="47.545481" lon="7.924396">
        <ele>295.497856</ele>
        <time>2021-11-14T19:57:07.840Z</time>
      </trkpt>
      <trkpt lat="47.545521" lon="7.923709">
        <ele>293.933772</ele>
        <time>2021-11-14T19:57:12.365Z</time>
      </trkpt>
      <trkpt lat="47.545536" lon="7.923407">
        <ele>293.510536</ele>
        <time>2021-11-14T19:57:14.513Z</time>
      </trkpt>
      <trkpt lat="47.545553" lon="7.923142">
        <ele>293.138486</ele>
        <time>2021-11-14T19:57:16.344Z</time>
      </trkpt>
      <trkpt lat="47.545587" lon="7.922895">
        <ele>292.786158</ele>
        <time>2021-11-14T19:57:18.278Z</time>
      </trkpt>
      <trkpt lat="47.545641" lon="7.922610">
        <ele>292.372429</ele>
        <time>2021-11-14T19:57:20.423Z</time>
      </trkpt>
      <trkpt lat="47.545690" lon="7.922369">
        <ele>292.020644</ele>
        <time>2021-11-14T19:57:22.430Z</time>
      </trkpt>
      <trkpt lat="47.545699" lon="7.922325">
        <ele>291.956385</ele>
        <time>2021-11-14T19:57:22.724Z</time>
      </trkpt>
      <trkpt lat="47.545714" lon="7.922249">
        <ele>291.845715</ele>
        <time>2021-11-14T19:57:23.314Z</time>
      </trkpt>
      <trkpt lat="47.545778" lon="7.921947">
        <ele>291.403308</ele>
        <time>2021-11-14T19:57:26.017Z</time>
      </trkpt>
      <trkpt lat="47.545810" lon="7.921755">
        <ele>291.126899</ele>
        <time>2021-11-14T19:57:27.497Z</time>
      </trkpt>
      <trkpt lat="47.545881" lon="7.921096">
        <ele>290.397674</ele>
        <time>2021-11-14T19:57:32.952Z</time>
      </trkpt>
      <trkpt lat="47.545913" lon="7.920765">
        <ele>290.313858</ele>
        <time>2021-11-14T19:57:35.769Z</time>
      </trkpt>
      <trkpt lat="47.545973" lon="7.920313">
        <ele>290.198389</ele>
        <time>2021-11-14T19:57:40.128Z</time>
      </trkpt>
      <trkpt lat="47.546128" lon="7.919617">
        <ele>290.014678</ele>
        <time>2021-11-14T19:57:47.331Z</time>
      </trkpt>
      <trkpt lat="47.546262" lon="7.919081">
        <ele>289.871404</ele>
        <time>2021-11-14T19:57:53.369Z</time>
      </trkpt>
      <trkpt lat="47.546334" lon="7.918797">
        <ele>289.795361</ele>
        <time>2021-11-14T19:57:56.396Z</time>
      </trkpt>
      <trkpt lat="47.546821" lon="7.916867">
        <ele>289.016235</ele>
        <time>2021-11-14T19:58:14.111Z</time>
      </trkpt>
      <trkpt lat="47.547032" lon="7.916218">
        <ele>288.751840</ele>
        <time>2021-11-14T19:58:20.525Z</time>
      </trkpt>
      <trkpt lat="47.547091" lon="7.916039">
        <ele>288.750207</ele>
        <time>2021-11-14T19:58:22.331Z</time>
      </trkpt>
      <trkpt lat="47.547113" lon="7.915971">
        <ele>288.749588</ele>
        <time>2021-11-14T19:58:22.928Z</time>
      </trkpt>
      <trkpt lat="47.547423" lon="7.915080">
        <ele>288.741368</ele>
        <time>2021-11-14T19:58:32.532Z</time>
      </trkpt>
      <trkpt lat="47.547994" lon="7.913433">
        <ele>289.023050</ele>
        <time>2021-11-14T19:58:52.248Z</time>
      </trkpt>
      <trkpt lat="47.548027" lon="7.913334">
        <ele>289.088287</ele>
        <time>2021-11-14T19:58:53.607Z</time>
      </trkpt>
      <trkpt lat="47.548412" lon="7.912168">
        <ele>289.855209</ele>
        <time>2021-11-14T19:59:10.010Z</time>
      </trkpt>
      <trkpt lat="47.549012" lon="7.910340">
        <ele>291.334315</ele>
        <time>2021-11-14T19:59:36.916Z</time>
      </trkpt>
      <trkpt lat="47.549102" lon="7.910058">
        <ele>291.586827</ele>
        <time>2021-11-14T19:59:41.097Z</time>
      </trkpt>
      <trkpt lat="47.549195" lon="7.909756">
        <ele>291.855538</ele>
        <time>2021-11-14T19:59:45.353Z</time>
      </trkpt>
      <trkpt lat="47.549236" lon="7.909620">
        <ele>291.976112</ele>
        <time>2021-11-14T19:59:47.377Z</time>
      </trkpt>
      <trkpt lat="47.549285" lon="7.909455">
        <ele>292.122036</ele>
        <time>2021-11-14T19:59:49.586Z</time>
      </trkpt>
      <trkpt lat="47.549325" lon="7.909323">
        <ele>292.239164</ele>
        <time>2021-11-14T19:59:51.462Z</time>
      </trkpt>
      <trkpt lat="47.549347" lon="7.909252">
        <ele>292.302406</ele>
        <time>2021-11-14T19:59:52.523Z</time>
      </trkpt>
      <trkpt lat="47.549373" lon="7.909166">
        <ele>292.378687</ele>
        <time>2021-11-14T19:59:53.814Z</time>
      </trkpt>
      <trkpt lat="47.549406" lon="7.909056">
        <ele>292.486421</ele>
        <time>2021-11-14T19:59:55.307Z</time>
      </trkpt>
      <trkpt lat="47.549433" lon="7.908965">
        <ele>292.624881</ele>
        <time>2021-11-14T19:59:56.519Z</time>
      </trkpt>
      <trkpt lat="47.549520" lon="7.908678">
        <ele>293.063107</ele>
        <time>2021-11-14T20:00:00.708Z</time>
      </trkpt>
      <trkpt lat="47.549539" lon="7.908625">
        <ele>293.146697</ele>
        <time>2021-11-14T20:00:01.444Z</time>
      </trkpt>
      <trkpt lat="47.550497" lon="7.905558">
        <ele>298.764020</ele>
        <time>2021-11-14T20:00:56.712Z</time>
      </trkpt>
      <trkpt lat="47.550283" lon="7.905413">
        <ele>299.512667</ele>
        <time>2021-11-14T20:01:04.473Z</time>
      </trkpt>
      <trkpt lat="47.550283" lon="7.905413">
        <ele>299.512667</ele>
        <time>2021-11-14T20:01:04.676Z</time>
      </trkpt>
      <trkpt lat="47.550067" lon="7.905245">
        <ele>300.288793</ele>
        <time>2021-11-14T20:01:12.536Z</time>
      </trkpt>
      <trkpt lat="47.549867" lon="7.905155">
        <ele>300.953783</ele>
        <time>2021-11-14T20:01:20.675Z</time>
      </trkpt>
      <trkpt lat="47.549868" lon="7.905010">
        <ele>301.265160</ele>
        <time>2021-11-14T20:01:23.748Z</time>
      </trkpt>
      <trkpt lat="47.550025" lon="7.904774">
        <ele>301.990655</ele>
        <time>2021-11-14T20:01:32.360Z</time>
      </trkpt>
      <trkpt lat="47.550302" lon="7.904164">
        <ele>303.842115</ele>
        <time>2021-11-14T20:01:50.196Z</time>
      </trkpt>
      <trkpt lat="47.550498" lon="7.903445">
        <ele>305.794854</ele>
        <time>2021-11-14T20:02:09.592Z</time>
      </trkpt>
      <trkpt lat="47.550688" lon="7.902451">
        <ele>308.396451</ele>
        <time>2021-11-14T20:02:32.141Z</time>
      </trkpt>
      <trkpt lat="47.550757" lon="7.901591">
        <ele>310.749987</ele>
        <time>2021-11-14T20:02:51.937Z</time>
      </trkpt>
      <trkpt lat="47.550769" lon="7.901362">
        <ele>311.379064</ele>
        <time>2021-11-14T20:02:57.845Z</time>
      </trkpt>
      <trkpt lat="47.550801" lon="7.900244">
        <ele>314.443810</ele>
        <time>2021-11-14T20:03:22.242Z</time>
      </trkpt>
      <trkpt lat="47.550819" lon="7.898109">
        <ele>319.804580</ele>
        <time>2021-11-14T20:04:09.282Z</time>
      </trkpt>
      <trkpt lat="47.550648" lon="7.896481">
        <ele>322.931132</ele>
        <time>2021-11-14T20:04:36.937Z</time>
      </trkpt>
      <trkpt lat="47.550639" lon="7.896345">
        <ele>323.056843</ele>
        <time>2021-11-14T20:04:39.313Z</time>
      </trkpt>
      <trkpt lat="47.550660" lon="7.896255">
        <ele>323.144445</ele>
        <time>2021-11-14T20:04:40.113Z</time>
      </trkpt>
      <trkpt lat="47.550838" lon="7.895509">
        <ele>323.872339</ele>
        <time>2021-11-14T20:04:50.281Z</time>
      </trkpt>
      <trkpt lat="47.550878" lon="7.895158">
        <ele>324.199806</ele>
        <time>2021-11-14T20:04:54.344Z</time>
      </trkpt>
      <trkpt lat="47.550908" lon="7.894308">
        <ele>325.118271</ele>
        <time>2021-11-14T20:05:04.816Z</time>
      </trkpt>
      <trkpt lat="47.550892" lon="7.893176">
        <ele>327.185835</ele>
        <time>2021-11-14T20:05:19.533Z</time>
      </trkpt>
      <trkpt lat="47.550904" lon="7.891725">
        <ele>329.982916</ele>
        <time>2021-11-14T20:05:49.295Z</time>
      </trkpt>
      <trkpt lat="47.550915" lon="7.890600">
        <ele>334.476459</ele>
        <time>2021-11-14T20:06:18.136Z</time>
      </trkpt>
      <trkpt lat="47.550833" lon="7.889069">
        <ele>340.614199</ele>
        <time>2021-11-14T20:07:00.769Z</time>
      </trkpt>
      <trkpt lat="47.550831" lon="7.888611">
        <ele>342.471661</ele>
        <time>2021-11-14T20:07:13.339Z</time>
      </trkpt>
      <trkpt lat="47.550789" lon="7.887816">
        <ele>345.705653</ele>
        <time>2021-11-14T20:07:33.951Z</time>
      </trkpt>
      <trkpt lat="47.550758" lon="7.887295">
        <ele>347.826770</ele>
        <time>2021-11-14T20:07:47.773Z</time>
      </trkpt>
      <trkpt lat="47.550677" lon="7.886476">
        <ele>351.179829</ele>
        <time>2021-11-14T20:08:09.261Z</time>
      </trkpt>
      <trkpt lat="47.550548" lon="7.885799">
        <ele>353.512698</ele>
        <time>2021-11-14T20:08:26.464Z</time>
      </trkpt>
      <trkpt lat="47.550391" lon="7.885109">
        <ele>355.927460</ele>
        <time>2021-11-14T20:08:44.102Z</time>
      </trkpt>
      <trkpt lat="47.550332" lon="7.884727">
        <ele>357.227026</ele>
        <time>2021-11-14T20:08:52.792Z</time>
      </trkpt>
      <trkpt lat="47.550234" lon="7.883221">
        <ele>361.613793</ele>
        <time>2021-11-14T20:09:25.624Z</time>
      </trkpt>
      <trkpt lat="47.549927" lon="7.881490">
        <ele>365.881347</ele>
        <time>2021-11-14T20:09:57.887Z</time>
      </trkpt>
      <trkpt lat="47.549726" lon="7.880786">
        <ele>367.960045</ele>
        <time>2021-11-14T20:10:13.864Z</time>
      </trkpt>
      <trkpt lat="47.549327" lon="7.879547">
        <ele>371.854316</ele>
        <time>2021-11-14T20:10:43.648Z</time>
      </trkpt>
      <trkpt lat="47.549318" lon="7.879398">
        <ele>372.278680</ele>
        <time>2021-11-14T20:10:46.836Z</time>
      </trkpt>
      <trkpt lat="47.549140" lon="7.879391">
        <ele>373.027054</ele>
        <time>2021-11-14T20:10:53.707Z</time>
      </trkpt>
      <trkpt lat="47.548718" lon="7.879258">
        <ele>374.484333</ele>
        <time>2021-11-14T20:11:07.377Z</time>
      </trkpt>
      <trkpt lat="47.548422" lon="7.878959">
        <ele>375.411616</ele>
        <time>2021-11-14T20:11:18.024Z</time>
      </trkpt>
      <trkpt lat="47.548234" lon="7.878638">
        <ele>376.154105</ele>
        <time>2021-11-14T20:11:26.456Z</time>
      </trkpt>
      <trkpt lat="47.547992" lon="7.877974">
        <ele>377.472461</ele>
        <time>2021-11-14T20:11:39.554Z</time>
      </trkpt>
      <trkpt lat="47.547574" lon="7.876801">
        <ele>377.554061</ele>
        <time>2021-11-14T20:11:53.317Z</time>
      </trkpt>
      <trkpt lat="47.547126" lon="7.875801">
        <ele>375.810532</ele>
        <time>2021-11-14T20:12:02.100Z</time>
      </trkpt>
      <trkpt lat="47.546309" lon="7.874154">
        <ele>369.745487</ele>
        <time>2021-11-14T20:12:15.288Z</time>
      </trkpt>
      <trkpt lat="47.546135" lon="7.873859">
        <ele>368.227485</ele>
        <time>2021-11-14T20:12:17.670Z</time>
      </trkpt>
      <trkpt lat="47.546077" lon="7.873763">
        <ele>367.728257</ele>
        <time>2021-11-14T20:12:18.481Z</time>
      </trkpt>
      <trkpt lat="47.545934" lon="7.873549">
        <ele>366.561435</ele>
        <time>2021-11-14T20:12:20.286Z</time>
      </trkpt>
      <trkpt lat="47.545746" lon="7.873302">
        <ele>365.118958</ele>
        <time>2021-11-14T20:12:22.574Z</time>
      </trkpt>
      <trkpt lat="47.545515" lon="7.873015">
        <ele>363.199780</ele>
        <time>2021-11-14T20:12:25.272Z</time>
      </trkpt>
      <trkpt lat="47.545478" lon="7.872968">
        <ele>362.866425</ele>
        <time>2021-11-14T20:12:25.714Z</time>
      </trkpt>
      <trkpt lat="47.545375" lon="7.872836">
        <ele>361.934933</ele>
        <time>2021-11-14T20:12:26.908Z</time>
      </trkpt>
      <trkpt lat="47.545131" lon="7.872664">
        <ele>360.086776</ele>
        <time>2021-11-14T20:12:29.366Z</time>
      </trkpt>
      <trkpt lat="47.544883" lon="7.872555">
        <ele>358.317479</ele>
        <time>2021-11-14T20:12:31.689Z</time>
      </trkpt>
      <trkpt lat="47.544390" lon="7.872423">
        <ele>354.890923</ele>
        <time>2021-11-14T20:12:36.154Z</time>
      </trkpt>
      <trkpt lat="47.543332" lon="7.872237">
        <ele>348.753124</ele>
        <time>2021-11-14T20:12:45.921Z</time>
      </trkpt>
      <trkpt lat="47.543251" lon="7.872152">
        <ele>348.248874</ele>
        <time>2021-11-14T20:12:46.862Z</time>
      </trkpt>
      <trkpt lat="47.543233" lon="7.872082">
        <ele>347.992009</ele>
        <time>2021-11-14T20:12:47.282Z</time>
      </trkpt>
      <trkpt lat="47.543013" lon="7.872182">
        <ele>346.823001</ele>
        <time>2021-11-14T20:12:49.523Z</time>
      </trkpt>
      <trkpt lat="47.542919" lon="7.872226">
        <ele>346.322218</ele>
        <time>2021-11-14T20:12:50.444Z</time>
      </trkpt>
      <trkpt lat="47.542814" lon="7.872280">
        <ele>345.757597</ele>
        <time>2021-11-14T20:12:51.497Z</time>
      </trkpt>
      <trkpt lat="47.542714" lon="7.872334">
        <ele>345.216907</ele>
        <time>2021-11-14T20:12:52.585Z</time>
      </trkpt>
      <trkpt lat="47.542537" lon="7.872430">
        <ele>344.259391</ele>
        <time>2021-11-14T20:12:54.318Z</time>
      </trkpt>
      <trkpt lat="47.542436" lon="7.872494">
        <ele>343.701351</ele>
        <time>2021-11-14T20:12:55.653Z</time>
      </trkpt>
      <trkpt lat="47.542394" lon="7.872341">
        <ele>343.134966</ele>
        <time>2021-11-14T20:12:56.739Z</time>
      </trkpt>
      <trkpt lat="47.542218" lon="7.871866">
        <ele>342.933946</ele>
        <time>2021-11-14T20:13:00.407Z</time>
      </trkpt>
      <trkpt lat="47.542091" lon="7.871721">
        <ele>342.933946</ele>
        <time>2021-11-14T20:13:01.926Z</time>
      </trkpt>
      <trkpt lat="47.542067" lon="7.871664">
        <ele>342.933946</ele>
        <time>2021-11-14T20:13:02.654Z</time>
      </trkpt>
      <trkpt lat="47.542039" lon="7.871556">
        <ele>342.933946</ele>
        <time>2021-11-14T20:13:03.552Z</time>
      </trkpt>
      <trkpt lat="47.541953" lon="7.871286">
        <ele>342.933946</ele>
        <time>2021-11-14T20:13:05.736Z</time>
      </trkpt>
      <trkpt lat="47.541796" lon="7.871042">
        <ele>342.933946</ele>
        <time>2021-11-14T20:13:08.285Z</time>
      </trkpt>
      <trkpt lat="47.541705" lon="7.870887">
        <ele>342.933946</ele>
        <time>2021-11-14T20:13:09.805Z</time>
      </trkpt>
    </trkseg>
  </trk>
</gpx>